<?xml version="1.0" encoding="UTF-8" standalone="no" ?>
<gpx xmlns="http://www.topografix.com/GPX/1/1" xmlns:xsi="http://www.w3.org/2001/XMLSchema-instance" xsi:schemaLocation="http://www.topografix.com/GPX/1/1 http://www.topografix.com/GPX/1/1/gpx.xsd" version="1.1" creator="VisuGPX - https://www.visugpx.com">
  <metadata>
    <name>8-Caniac du Causse-Rocamadour</name>
  </metadata>
  <trk>
    <name><![CDATA[8-Caniac du Causse-Rocamadour_1]]></name>
    <trkseg>
      <trkpt lat="44.65248" lon="1.64383">
        <ele>353</ele>
        <time>2010-01-01T00:00:00Z</time>
      </trkpt>
      <trkpt lat="44.65245" lon="1.64384">
        <ele>352.9</ele>
        <time>2010-01-01T00:00:00Z</time>
      </trkpt>
      <trkpt lat="44.65244" lon="1.64378">
        <ele>352.9</ele>
        <time>2010-01-01T00:00:00Z</time>
      </trkpt>
      <trkpt lat="44.65249" lon="1.64379">
        <ele>353</ele>
        <time>2010-01-01T00:00:00Z</time>
      </trkpt>
      <trkpt lat="44.65256" lon="1.6438">
        <ele>353</ele>
        <time>2010-01-01T00:00:00Z</time>
      </trkpt>
      <trkpt lat="44.65264" lon="1.64379">
        <ele>352.9</ele>
        <time>2010-01-01T00:00:00Z</time>
      </trkpt>
      <trkpt lat="44.65274" lon="1.64379">
        <ele>352.9</ele>
        <time>2010-01-01T00:00:00Z</time>
      </trkpt>
      <trkpt lat="44.65283" lon="1.64378">
        <ele>352.8</ele>
        <time>2010-01-01T00:00:00Z</time>
      </trkpt>
      <trkpt lat="44.65292" lon="1.64378">
        <ele>352.8</ele>
        <time>2010-01-01T00:00:00Z</time>
      </trkpt>
      <trkpt lat="44.65299" lon="1.64378">
        <ele>352.7</ele>
        <time>2010-01-01T00:00:00Z</time>
      </trkpt>
      <trkpt lat="44.6531" lon="1.64379">
        <ele>352.7</ele>
        <time>2010-01-01T00:00:00Z</time>
      </trkpt>
      <trkpt lat="44.65326" lon="1.64382">
        <ele>352.6</ele>
        <time>2010-01-01T00:00:00Z</time>
      </trkpt>
      <trkpt lat="44.65347" lon="1.64386">
        <ele>352.6</ele>
        <time>2010-01-01T00:00:00Z</time>
      </trkpt>
      <trkpt lat="44.65373" lon="1.64391">
        <ele>352.5</ele>
        <time>2010-01-01T00:00:00Z</time>
      </trkpt>
      <trkpt lat="44.65398" lon="1.64398">
        <ele>352.3</ele>
        <time>2010-01-01T00:00:00Z</time>
      </trkpt>
      <trkpt lat="44.65422" lon="1.64404">
        <ele>352.3</ele>
        <time>2010-01-01T00:00:00Z</time>
      </trkpt>
      <trkpt lat="44.65454" lon="1.64413">
        <ele>352.9</ele>
        <time>2010-01-01T00:00:00Z</time>
      </trkpt>
      <trkpt lat="44.65497" lon="1.64425">
        <ele>353.7</ele>
        <time>2010-01-01T00:00:00Z</time>
      </trkpt>
      <trkpt lat="44.65532" lon="1.64436">
        <ele>353.3</ele>
        <time>2010-01-01T00:00:00Z</time>
      </trkpt>
      <trkpt lat="44.65555" lon="1.64442">
        <ele>353.1</ele>
        <time>2010-01-01T00:00:00Z</time>
      </trkpt>
      <trkpt lat="44.65578" lon="1.64448">
        <ele>353</ele>
        <time>2010-01-01T00:00:00Z</time>
      </trkpt>
      <trkpt lat="44.65598" lon="1.64453">
        <ele>353.4</ele>
        <time>2010-01-01T00:00:00Z</time>
      </trkpt>
      <trkpt lat="44.65615" lon="1.64457">
        <ele>353.8</ele>
        <time>2010-01-01T00:00:00Z</time>
      </trkpt>
      <trkpt lat="44.65629" lon="1.64463">
        <ele>354.1</ele>
        <time>2010-01-01T00:00:00Z</time>
      </trkpt>
      <trkpt lat="44.65635" lon="1.64465">
        <ele>354.2</ele>
        <time>2010-01-01T00:00:00Z</time>
      </trkpt>
      <trkpt lat="44.65642" lon="1.64466">
        <ele>354.4</ele>
        <time>2010-01-01T00:00:00Z</time>
      </trkpt>
      <trkpt lat="44.65647" lon="1.64467">
        <ele>354.5</ele>
        <time>2010-01-01T00:00:00Z</time>
      </trkpt>
      <trkpt lat="44.65652" lon="1.64468">
        <ele>354.6</ele>
        <time>2010-01-01T00:00:00Z</time>
      </trkpt>
      <trkpt lat="44.65655" lon="1.64468">
        <ele>354.7</ele>
        <time>2010-01-01T00:00:00Z</time>
      </trkpt>
      <trkpt lat="44.65658" lon="1.64468">
        <ele>354.8</ele>
        <time>2010-01-01T00:00:00Z</time>
      </trkpt>
      <trkpt lat="44.65661" lon="1.64468">
        <ele>354.9</ele>
        <time>2010-01-01T00:00:00Z</time>
      </trkpt>
      <trkpt lat="44.65665" lon="1.64468">
        <ele>355</ele>
        <time>2010-01-01T00:00:00Z</time>
      </trkpt>
      <trkpt lat="44.65671" lon="1.64467">
        <ele>355</ele>
        <time>2010-01-01T00:00:00Z</time>
      </trkpt>
      <trkpt lat="44.65678" lon="1.64465">
        <ele>354.9</ele>
        <time>2010-01-01T00:00:00Z</time>
      </trkpt>
      <trkpt lat="44.65689" lon="1.6446">
        <ele>354.9</ele>
        <time>2010-01-01T00:00:00Z</time>
      </trkpt>
      <trkpt lat="44.65707" lon="1.64452">
        <ele>354.8</ele>
        <time>2010-01-01T00:00:00Z</time>
      </trkpt>
      <trkpt lat="44.65715" lon="1.64447">
        <ele>354.8</ele>
        <time>2010-01-01T00:00:00Z</time>
      </trkpt>
      <trkpt lat="44.65721" lon="1.64443">
        <ele>354.8</ele>
        <time>2010-01-01T00:00:00Z</time>
      </trkpt>
      <trkpt lat="44.65728" lon="1.6444">
        <ele>354.8</ele>
        <time>2010-01-01T00:00:00Z</time>
      </trkpt>
      <trkpt lat="44.65737" lon="1.64438">
        <ele>354.8</ele>
        <time>2010-01-01T00:00:00Z</time>
      </trkpt>
      <trkpt lat="44.65743" lon="1.64436">
        <ele>354.8</ele>
        <time>2010-01-01T00:00:00Z</time>
      </trkpt>
      <trkpt lat="44.65746" lon="1.64436">
        <ele>354.8</ele>
        <time>2010-01-01T00:00:00Z</time>
      </trkpt>
      <trkpt lat="44.6575" lon="1.64435">
        <ele>354.8</ele>
        <time>2010-01-01T00:00:00Z</time>
      </trkpt>
      <trkpt lat="44.65753" lon="1.64434">
        <ele>354.7</ele>
        <time>2010-01-01T00:00:00Z</time>
      </trkpt>
      <trkpt lat="44.65756" lon="1.64434">
        <ele>354.5</ele>
        <time>2010-01-01T00:00:00Z</time>
      </trkpt>
      <trkpt lat="44.6576" lon="1.64434">
        <ele>354.3</ele>
        <time>2010-01-01T00:00:00Z</time>
      </trkpt>
      <trkpt lat="44.65763" lon="1.64435">
        <ele>354.2</ele>
        <time>2010-01-01T00:00:00Z</time>
      </trkpt>
      <trkpt lat="44.65766" lon="1.64435">
        <ele>354.1</ele>
        <time>2010-01-01T00:00:00Z</time>
      </trkpt>
      <trkpt lat="44.6578" lon="1.64437">
        <ele>353.4</ele>
        <time>2010-01-01T00:00:00Z</time>
      </trkpt>
      <trkpt lat="44.65786" lon="1.64441">
        <ele>353.1</ele>
        <time>2010-01-01T00:00:00Z</time>
      </trkpt>
      <trkpt lat="44.65795" lon="1.64443">
        <ele>352.7</ele>
        <time>2010-01-01T00:00:00Z</time>
      </trkpt>
      <trkpt lat="44.658" lon="1.64444">
        <ele>352.5</ele>
        <time>2010-01-01T00:00:00Z</time>
      </trkpt>
      <trkpt lat="44.658" lon="1.64444">
        <ele>352.5</ele>
        <time>2010-01-01T00:00:00Z</time>
      </trkpt>
      <trkpt lat="44.65808" lon="1.64446">
        <ele>352.1</ele>
        <time>2010-01-01T00:00:00Z</time>
      </trkpt>
      <trkpt lat="44.65818" lon="1.64448">
        <ele>351.7</ele>
        <time>2010-01-01T00:00:00Z</time>
      </trkpt>
      <trkpt lat="44.65831" lon="1.64452">
        <ele>351.1</ele>
        <time>2010-01-01T00:00:00Z</time>
      </trkpt>
      <trkpt lat="44.65846" lon="1.64457">
        <ele>351.2</ele>
        <time>2010-01-01T00:00:00Z</time>
      </trkpt>
      <trkpt lat="44.65865" lon="1.64465">
        <ele>351.6</ele>
        <time>2010-01-01T00:00:00Z</time>
      </trkpt>
      <trkpt lat="44.6588" lon="1.64472">
        <ele>351.9</ele>
        <time>2010-01-01T00:00:00Z</time>
      </trkpt>
      <trkpt lat="44.65892" lon="1.64477">
        <ele>352.2</ele>
        <time>2010-01-01T00:00:00Z</time>
      </trkpt>
      <trkpt lat="44.65905" lon="1.6448">
        <ele>352.5</ele>
        <time>2010-01-01T00:00:00Z</time>
      </trkpt>
      <trkpt lat="44.65925" lon="1.64482">
        <ele>353</ele>
        <time>2010-01-01T00:00:00Z</time>
      </trkpt>
      <trkpt lat="44.65945" lon="1.64486">
        <ele>353.6</ele>
        <time>2010-01-01T00:00:00Z</time>
      </trkpt>
      <trkpt lat="44.65963" lon="1.6449">
        <ele>354.1</ele>
        <time>2010-01-01T00:00:00Z</time>
      </trkpt>
      <trkpt lat="44.65978" lon="1.64495">
        <ele>354.5</ele>
        <time>2010-01-01T00:00:00Z</time>
      </trkpt>
      <trkpt lat="44.65991" lon="1.64498">
        <ele>354.8</ele>
        <time>2010-01-01T00:00:00Z</time>
      </trkpt>
      <trkpt lat="44.66006" lon="1.64501">
        <ele>355</ele>
        <time>2010-01-01T00:00:00Z</time>
      </trkpt>
      <trkpt lat="44.66034" lon="1.64506">
        <ele>354.9</ele>
        <time>2010-01-01T00:00:00Z</time>
      </trkpt>
      <trkpt lat="44.66055" lon="1.6451">
        <ele>354.9</ele>
        <time>2010-01-01T00:00:00Z</time>
      </trkpt>
      <trkpt lat="44.66075" lon="1.64514">
        <ele>354.8</ele>
        <time>2010-01-01T00:00:00Z</time>
      </trkpt>
      <trkpt lat="44.66087" lon="1.64518">
        <ele>354.8</ele>
        <time>2010-01-01T00:00:00Z</time>
      </trkpt>
      <trkpt lat="44.66104" lon="1.64525">
        <ele>354.7</ele>
        <time>2010-01-01T00:00:00Z</time>
      </trkpt>
      <trkpt lat="44.66115" lon="1.64529">
        <ele>354.7</ele>
        <time>2010-01-01T00:00:00Z</time>
      </trkpt>
      <trkpt lat="44.66156" lon="1.64557">
        <ele>355.2</ele>
        <time>2010-01-01T00:00:00Z</time>
      </trkpt>
      <trkpt lat="44.66175" lon="1.64569">
        <ele>355.7</ele>
        <time>2010-01-01T00:00:00Z</time>
      </trkpt>
      <trkpt lat="44.66198" lon="1.64583">
        <ele>356</ele>
        <time>2010-01-01T00:00:00Z</time>
      </trkpt>
      <trkpt lat="44.66209" lon="1.64589">
        <ele>355.9</ele>
        <time>2010-01-01T00:00:00Z</time>
      </trkpt>
      <trkpt lat="44.66215" lon="1.64591">
        <ele>355.9</ele>
        <time>2010-01-01T00:00:00Z</time>
      </trkpt>
      <trkpt lat="44.66225" lon="1.64594">
        <ele>355.8</ele>
        <time>2010-01-01T00:00:00Z</time>
      </trkpt>
      <trkpt lat="44.66236" lon="1.64595">
        <ele>355.8</ele>
        <time>2010-01-01T00:00:00Z</time>
      </trkpt>
      <trkpt lat="44.66245" lon="1.64597">
        <ele>355.8</ele>
        <time>2010-01-01T00:00:00Z</time>
      </trkpt>
      <trkpt lat="44.66266" lon="1.64602">
        <ele>356.4</ele>
        <time>2010-01-01T00:00:00Z</time>
      </trkpt>
      <trkpt lat="44.66276" lon="1.64605">
        <ele>356.8</ele>
        <time>2010-01-01T00:00:00Z</time>
      </trkpt>
      <trkpt lat="44.66283" lon="1.64606">
        <ele>357</ele>
        <time>2010-01-01T00:00:00Z</time>
      </trkpt>
      <trkpt lat="44.6629" lon="1.64605">
        <ele>357.3</ele>
        <time>2010-01-01T00:00:00Z</time>
      </trkpt>
      <trkpt lat="44.66297" lon="1.64602">
        <ele>357.6</ele>
        <time>2010-01-01T00:00:00Z</time>
      </trkpt>
      <trkpt lat="44.66322" lon="1.6459">
        <ele>358.6</ele>
        <time>2010-01-01T00:00:00Z</time>
      </trkpt>
      <trkpt lat="44.66332" lon="1.64587">
        <ele>359</ele>
        <time>2010-01-01T00:00:00Z</time>
      </trkpt>
      <trkpt lat="44.66338" lon="1.64586">
        <ele>359.1</ele>
        <time>2010-01-01T00:00:00Z</time>
      </trkpt>
      <trkpt lat="44.66345" lon="1.64586">
        <ele>359.3</ele>
        <time>2010-01-01T00:00:00Z</time>
      </trkpt>
      <trkpt lat="44.66352" lon="1.64587">
        <ele>359.4</ele>
        <time>2010-01-01T00:00:00Z</time>
      </trkpt>
      <trkpt lat="44.66371" lon="1.64589">
        <ele>359.8</ele>
        <time>2010-01-01T00:00:00Z</time>
      </trkpt>
      <trkpt lat="44.66387" lon="1.64591">
        <ele>360.2</ele>
        <time>2010-01-01T00:00:00Z</time>
      </trkpt>
      <trkpt lat="44.66399" lon="1.64591">
        <ele>360.4</ele>
        <time>2010-01-01T00:00:00Z</time>
      </trkpt>
      <trkpt lat="44.6641" lon="1.64593">
        <ele>360.6</ele>
        <time>2010-01-01T00:00:00Z</time>
      </trkpt>
      <trkpt lat="44.66434" lon="1.64599">
        <ele>361.1</ele>
        <time>2010-01-01T00:00:00Z</time>
      </trkpt>
      <trkpt lat="44.66473" lon="1.64607">
        <ele>362.2</ele>
        <time>2010-01-01T00:00:00Z</time>
      </trkpt>
      <trkpt lat="44.665" lon="1.64614">
        <ele>363</ele>
        <time>2010-01-01T00:00:00Z</time>
      </trkpt>
      <trkpt lat="44.6652" lon="1.64619">
        <ele>363.6</ele>
        <time>2010-01-01T00:00:00Z</time>
      </trkpt>
      <trkpt lat="44.66531" lon="1.6462">
        <ele>364</ele>
        <time>2010-01-01T00:00:00Z</time>
      </trkpt>
      <trkpt lat="44.66543" lon="1.64622">
        <ele>364.3</ele>
        <time>2010-01-01T00:00:00Z</time>
      </trkpt>
      <trkpt lat="44.66553" lon="1.64622">
        <ele>364.6</ele>
        <time>2010-01-01T00:00:00Z</time>
      </trkpt>
      <trkpt lat="44.66568" lon="1.64622">
        <ele>365.1</ele>
        <time>2010-01-01T00:00:00Z</time>
      </trkpt>
      <trkpt lat="44.66574" lon="1.64621">
        <ele>365.3</ele>
        <time>2010-01-01T00:00:00Z</time>
      </trkpt>
      <trkpt lat="44.66582" lon="1.64621">
        <ele>365.5</ele>
        <time>2010-01-01T00:00:00Z</time>
      </trkpt>
      <trkpt lat="44.66596" lon="1.64625">
        <ele>365.8</ele>
        <time>2010-01-01T00:00:00Z</time>
      </trkpt>
      <trkpt lat="44.66607" lon="1.64627">
        <ele>366.1</ele>
        <time>2010-01-01T00:00:00Z</time>
      </trkpt>
      <trkpt lat="44.66615" lon="1.64628">
        <ele>366.3</ele>
        <time>2010-01-01T00:00:00Z</time>
      </trkpt>
      <trkpt lat="44.66619" lon="1.64627">
        <ele>366.4</ele>
        <time>2010-01-01T00:00:00Z</time>
      </trkpt>
      <trkpt lat="44.66624" lon="1.64625">
        <ele>366.5</ele>
        <time>2010-01-01T00:00:00Z</time>
      </trkpt>
      <trkpt lat="44.66628" lon="1.64621">
        <ele>366.6</ele>
        <time>2010-01-01T00:00:00Z</time>
      </trkpt>
      <trkpt lat="44.66634" lon="1.64618">
        <ele>366.7</ele>
        <time>2010-01-01T00:00:00Z</time>
      </trkpt>
      <trkpt lat="44.66644" lon="1.64614">
        <ele>366.9</ele>
        <time>2010-01-01T00:00:00Z</time>
      </trkpt>
      <trkpt lat="44.66665" lon="1.64611">
        <ele>367.3</ele>
        <time>2010-01-01T00:00:00Z</time>
      </trkpt>
      <trkpt lat="44.66687" lon="1.64605">
        <ele>367.5</ele>
        <time>2010-01-01T00:00:00Z</time>
      </trkpt>
      <trkpt lat="44.66697" lon="1.64601">
        <ele>367.6</ele>
        <time>2010-01-01T00:00:00Z</time>
      </trkpt>
      <trkpt lat="44.66704" lon="1.64595">
        <ele>367.6</ele>
        <time>2010-01-01T00:00:00Z</time>
      </trkpt>
      <trkpt lat="44.6671" lon="1.64585">
        <ele>367.5</ele>
        <time>2010-01-01T00:00:00Z</time>
      </trkpt>
      <trkpt lat="44.66717" lon="1.64569">
        <ele>367.8</ele>
        <time>2010-01-01T00:00:00Z</time>
      </trkpt>
      <trkpt lat="44.66727" lon="1.64548">
        <ele>368.3</ele>
        <time>2010-01-01T00:00:00Z</time>
      </trkpt>
      <trkpt lat="44.66734" lon="1.64538">
        <ele>368.5</ele>
        <time>2010-01-01T00:00:00Z</time>
      </trkpt>
      <trkpt lat="44.66749" lon="1.6452">
        <ele>368.8</ele>
        <time>2010-01-01T00:00:00Z</time>
      </trkpt>
      <trkpt lat="44.66758" lon="1.64511">
        <ele>369</ele>
        <time>2010-01-01T00:00:00Z</time>
      </trkpt>
      <trkpt lat="44.66765" lon="1.64508">
        <ele>369.1</ele>
        <time>2010-01-01T00:00:00Z</time>
      </trkpt>
      <trkpt lat="44.6676" lon="1.64506">
        <ele>369</ele>
        <time>2010-01-01T00:00:00Z</time>
      </trkpt>
      <trkpt lat="44.66759" lon="1.64505">
        <ele>369</ele>
        <time>2010-01-01T00:00:00Z</time>
      </trkpt>
      <trkpt lat="44.66759" lon="1.64505">
        <ele>369</ele>
        <time>2010-01-01T00:00:00Z</time>
      </trkpt>
      <trkpt lat="44.6676" lon="1.64506">
        <ele>369</ele>
        <time>2010-01-01T00:00:00Z</time>
      </trkpt>
      <trkpt lat="44.66765" lon="1.64508">
        <ele>369.1</ele>
        <time>2010-01-01T00:00:00Z</time>
      </trkpt>
      <trkpt lat="44.66771" lon="1.64509">
        <ele>369.1</ele>
        <time>2010-01-01T00:00:00Z</time>
      </trkpt>
      <trkpt lat="44.66781" lon="1.64512">
        <ele>369.2</ele>
        <time>2010-01-01T00:00:00Z</time>
      </trkpt>
      <trkpt lat="44.66788" lon="1.64513">
        <ele>369.3</ele>
        <time>2010-01-01T00:00:00Z</time>
      </trkpt>
      <trkpt lat="44.66797" lon="1.64517">
        <ele>369.4</ele>
        <time>2010-01-01T00:00:00Z</time>
      </trkpt>
      <trkpt lat="44.66809" lon="1.64525">
        <ele>369.4</ele>
        <time>2010-01-01T00:00:00Z</time>
      </trkpt>
      <trkpt lat="44.66818" lon="1.64531">
        <ele>369.4</ele>
        <time>2010-01-01T00:00:00Z</time>
      </trkpt>
      <trkpt lat="44.66827" lon="1.64538">
        <ele>369.5</ele>
        <time>2010-01-01T00:00:00Z</time>
      </trkpt>
      <trkpt lat="44.66836" lon="1.64543">
        <ele>369.6</ele>
        <time>2010-01-01T00:00:00Z</time>
      </trkpt>
      <trkpt lat="44.66846" lon="1.6455">
        <ele>369.9</ele>
        <time>2010-01-01T00:00:00Z</time>
      </trkpt>
      <trkpt lat="44.66856" lon="1.64558">
        <ele>370.3</ele>
        <time>2010-01-01T00:00:00Z</time>
      </trkpt>
      <trkpt lat="44.66874" lon="1.64573">
        <ele>371</ele>
        <time>2010-01-01T00:00:00Z</time>
      </trkpt>
      <trkpt lat="44.6689" lon="1.6459">
        <ele>371.7</ele>
        <time>2010-01-01T00:00:00Z</time>
      </trkpt>
      <trkpt lat="44.66908" lon="1.64607">
        <ele>372.6</ele>
        <time>2010-01-01T00:00:00Z</time>
      </trkpt>
      <trkpt lat="44.66922" lon="1.64621">
        <ele>373.2</ele>
        <time>2010-01-01T00:00:00Z</time>
      </trkpt>
      <trkpt lat="44.66933" lon="1.6463">
        <ele>373.6</ele>
        <time>2010-01-01T00:00:00Z</time>
      </trkpt>
      <trkpt lat="44.66946" lon="1.64641">
        <ele>374.1</ele>
        <time>2010-01-01T00:00:00Z</time>
      </trkpt>
      <trkpt lat="44.66956" lon="1.64648">
        <ele>374.4</ele>
        <time>2010-01-01T00:00:00Z</time>
      </trkpt>
      <trkpt lat="44.66991" lon="1.64686">
        <ele>375.7</ele>
        <time>2010-01-01T00:00:00Z</time>
      </trkpt>
      <trkpt lat="44.6702" lon="1.64715">
        <ele>376.1</ele>
        <time>2010-01-01T00:00:00Z</time>
      </trkpt>
      <trkpt lat="44.67039" lon="1.64736">
        <ele>376.4</ele>
        <time>2010-01-01T00:00:00Z</time>
      </trkpt>
      <trkpt lat="44.67047" lon="1.64743">
        <ele>376.5</ele>
        <time>2010-01-01T00:00:00Z</time>
      </trkpt>
      <trkpt lat="44.67053" lon="1.64746">
        <ele>376.6</ele>
        <time>2010-01-01T00:00:00Z</time>
      </trkpt>
      <trkpt lat="44.67059" lon="1.6475">
        <ele>376.7</ele>
        <time>2010-01-01T00:00:00Z</time>
      </trkpt>
      <trkpt lat="44.67068" lon="1.64753">
        <ele>376.9</ele>
        <time>2010-01-01T00:00:00Z</time>
      </trkpt>
      <trkpt lat="44.67075" lon="1.64757">
        <ele>377.1</ele>
        <time>2010-01-01T00:00:00Z</time>
      </trkpt>
      <trkpt lat="44.67087" lon="1.64765">
        <ele>377.7</ele>
        <time>2010-01-01T00:00:00Z</time>
      </trkpt>
      <trkpt lat="44.67096" lon="1.64771">
        <ele>378.5</ele>
        <time>2010-01-01T00:00:00Z</time>
      </trkpt>
      <trkpt lat="44.67111" lon="1.6478">
        <ele>379.8</ele>
        <time>2010-01-01T00:00:00Z</time>
      </trkpt>
      <trkpt lat="44.67111" lon="1.64782">
        <ele>379.8</ele>
        <time>2010-01-01T00:00:00Z</time>
      </trkpt>
      <trkpt lat="44.67111" lon="1.64782">
        <ele>379.8</ele>
        <time>2010-01-01T00:00:00Z</time>
      </trkpt>
      <trkpt lat="44.67111" lon="1.6478">
        <ele>379.8</ele>
        <time>2010-01-01T00:00:00Z</time>
      </trkpt>
      <trkpt lat="44.67112" lon="1.64774">
        <ele>379.8</ele>
        <time>2010-01-01T00:00:00Z</time>
      </trkpt>
      <trkpt lat="44.67118" lon="1.64762">
        <ele>380.1</ele>
        <time>2010-01-01T00:00:00Z</time>
      </trkpt>
      <trkpt lat="44.67134" lon="1.64727">
        <ele>381</ele>
        <time>2010-01-01T00:00:00Z</time>
      </trkpt>
      <trkpt lat="44.67153" lon="1.64689">
        <ele>382.1</ele>
        <time>2010-01-01T00:00:00Z</time>
      </trkpt>
      <trkpt lat="44.67162" lon="1.64676">
        <ele>382.7</ele>
        <time>2010-01-01T00:00:00Z</time>
      </trkpt>
      <trkpt lat="44.67169" lon="1.64671">
        <ele>383.1</ele>
        <time>2010-01-01T00:00:00Z</time>
      </trkpt>
      <trkpt lat="44.67192" lon="1.64657">
        <ele>383</ele>
        <time>2010-01-01T00:00:00Z</time>
      </trkpt>
      <trkpt lat="44.67204" lon="1.64649">
        <ele>383</ele>
        <time>2010-01-01T00:00:00Z</time>
      </trkpt>
      <trkpt lat="44.67206" lon="1.64648">
        <ele>383</ele>
        <time>2010-01-01T00:00:00Z</time>
      </trkpt>
      <trkpt lat="44.67211" lon="1.64647">
        <ele>383</ele>
        <time>2010-01-01T00:00:00Z</time>
      </trkpt>
      <trkpt lat="44.67218" lon="1.64646">
        <ele>383.1</ele>
        <time>2010-01-01T00:00:00Z</time>
      </trkpt>
      <trkpt lat="44.67225" lon="1.64645">
        <ele>383.1</ele>
        <time>2010-01-01T00:00:00Z</time>
      </trkpt>
      <trkpt lat="44.67232" lon="1.64644">
        <ele>383.2</ele>
        <time>2010-01-01T00:00:00Z</time>
      </trkpt>
      <trkpt lat="44.67238" lon="1.64643">
        <ele>383.2</ele>
        <time>2010-01-01T00:00:00Z</time>
      </trkpt>
      <trkpt lat="44.67245" lon="1.64643">
        <ele>383.2</ele>
        <time>2010-01-01T00:00:00Z</time>
      </trkpt>
      <trkpt lat="44.6725" lon="1.64644">
        <ele>383.3</ele>
        <time>2010-01-01T00:00:00Z</time>
      </trkpt>
      <trkpt lat="44.67253" lon="1.64645">
        <ele>383.3</ele>
        <time>2010-01-01T00:00:00Z</time>
      </trkpt>
      <trkpt lat="44.67254" lon="1.64646">
        <ele>383.3</ele>
        <time>2010-01-01T00:00:00Z</time>
      </trkpt>
      <trkpt lat="44.67255" lon="1.64647">
        <ele>383.4</ele>
        <time>2010-01-01T00:00:00Z</time>
      </trkpt>
      <trkpt lat="44.67255" lon="1.64647">
        <ele>383.4</ele>
        <time>2010-01-01T00:00:00Z</time>
      </trkpt>
      <trkpt lat="44.67259" lon="1.64652">
        <ele>383.4</ele>
        <time>2010-01-01T00:00:00Z</time>
      </trkpt>
      <trkpt lat="44.67265" lon="1.64662">
        <ele>383.4</ele>
        <time>2010-01-01T00:00:00Z</time>
      </trkpt>
      <trkpt lat="44.67302" lon="1.64718">
        <ele>384.5</ele>
        <time>2010-01-01T00:00:00Z</time>
      </trkpt>
      <trkpt lat="44.67314" lon="1.64737">
        <ele>384.7</ele>
        <time>2010-01-01T00:00:00Z</time>
      </trkpt>
      <trkpt lat="44.67318" lon="1.64742">
        <ele>384.8</ele>
        <time>2010-01-01T00:00:00Z</time>
      </trkpt>
      <trkpt lat="44.67318" lon="1.64742">
        <ele>384.8</ele>
        <time>2010-01-01T00:00:00Z</time>
      </trkpt>
      <trkpt lat="44.67314" lon="1.64737">
        <ele>384.7</ele>
        <time>2010-01-01T00:00:00Z</time>
      </trkpt>
      <trkpt lat="44.67317" lon="1.64735">
        <ele>384.8</ele>
        <time>2010-01-01T00:00:00Z</time>
      </trkpt>
      <trkpt lat="44.67323" lon="1.64727">
        <ele>384.8</ele>
        <time>2010-01-01T00:00:00Z</time>
      </trkpt>
      <trkpt lat="44.67333" lon="1.64709">
        <ele>385</ele>
        <time>2010-01-01T00:00:00Z</time>
      </trkpt>
      <trkpt lat="44.6736" lon="1.64656">
        <ele>385.4</ele>
        <time>2010-01-01T00:00:00Z</time>
      </trkpt>
      <trkpt lat="44.67388" lon="1.64599">
        <ele>385.9</ele>
        <time>2010-01-01T00:00:00Z</time>
      </trkpt>
      <trkpt lat="44.67403" lon="1.64568">
        <ele>386.2</ele>
        <time>2010-01-01T00:00:00Z</time>
      </trkpt>
      <trkpt lat="44.67408" lon="1.64554">
        <ele>386.4</ele>
        <time>2010-01-01T00:00:00Z</time>
      </trkpt>
      <trkpt lat="44.6741" lon="1.64546">
        <ele>386.4</ele>
        <time>2010-01-01T00:00:00Z</time>
      </trkpt>
      <trkpt lat="44.67411" lon="1.64537">
        <ele>386.6</ele>
        <time>2010-01-01T00:00:00Z</time>
      </trkpt>
      <trkpt lat="44.67412" lon="1.64527">
        <ele>386.7</ele>
        <time>2010-01-01T00:00:00Z</time>
      </trkpt>
      <trkpt lat="44.67411" lon="1.64517">
        <ele>386.8</ele>
        <time>2010-01-01T00:00:00Z</time>
      </trkpt>
      <trkpt lat="44.67411" lon="1.64498">
        <ele>387</ele>
        <time>2010-01-01T00:00:00Z</time>
      </trkpt>
      <trkpt lat="44.67413" lon="1.64488">
        <ele>387.3</ele>
        <time>2010-01-01T00:00:00Z</time>
      </trkpt>
      <trkpt lat="44.67415" lon="1.64477">
        <ele>387.5</ele>
        <time>2010-01-01T00:00:00Z</time>
      </trkpt>
      <trkpt lat="44.67422" lon="1.64462">
        <ele>387.9</ele>
        <time>2010-01-01T00:00:00Z</time>
      </trkpt>
      <trkpt lat="44.6743" lon="1.64449">
        <ele>388.1</ele>
        <time>2010-01-01T00:00:00Z</time>
      </trkpt>
      <trkpt lat="44.67436" lon="1.64437">
        <ele>388.3</ele>
        <time>2010-01-01T00:00:00Z</time>
      </trkpt>
      <trkpt lat="44.67453" lon="1.64394">
        <ele>388.7</ele>
        <time>2010-01-01T00:00:00Z</time>
      </trkpt>
      <trkpt lat="44.67459" lon="1.64379">
        <ele>388.7</ele>
        <time>2010-01-01T00:00:00Z</time>
      </trkpt>
      <trkpt lat="44.67461" lon="1.64373">
        <ele>388.7</ele>
        <time>2010-01-01T00:00:00Z</time>
      </trkpt>
      <trkpt lat="44.67467" lon="1.64354">
        <ele>388.9</ele>
        <time>2010-01-01T00:00:00Z</time>
      </trkpt>
      <trkpt lat="44.67472" lon="1.64333">
        <ele>389</ele>
        <time>2010-01-01T00:00:00Z</time>
      </trkpt>
      <trkpt lat="44.67473" lon="1.64328">
        <ele>388.9</ele>
        <time>2010-01-01T00:00:00Z</time>
      </trkpt>
      <trkpt lat="44.67475" lon="1.64318">
        <ele>388.6</ele>
        <time>2010-01-01T00:00:00Z</time>
      </trkpt>
      <trkpt lat="44.67478" lon="1.64298">
        <ele>388</ele>
        <time>2010-01-01T00:00:00Z</time>
      </trkpt>
      <trkpt lat="44.67482" lon="1.64281">
        <ele>387.6</ele>
        <time>2010-01-01T00:00:00Z</time>
      </trkpt>
      <trkpt lat="44.67487" lon="1.64268">
        <ele>387.3</ele>
        <time>2010-01-01T00:00:00Z</time>
      </trkpt>
      <trkpt lat="44.67493" lon="1.64258">
        <ele>387.1</ele>
        <time>2010-01-01T00:00:00Z</time>
      </trkpt>
      <trkpt lat="44.67501" lon="1.64242">
        <ele>386.7</ele>
        <time>2010-01-01T00:00:00Z</time>
      </trkpt>
      <trkpt lat="44.67516" lon="1.64216">
        <ele>385.2</ele>
        <time>2010-01-01T00:00:00Z</time>
      </trkpt>
      <trkpt lat="44.67523" lon="1.64201">
        <ele>384.6</ele>
        <time>2010-01-01T00:00:00Z</time>
      </trkpt>
      <trkpt lat="44.67538" lon="1.64157">
        <ele>383</ele>
        <time>2010-01-01T00:00:00Z</time>
      </trkpt>
      <trkpt lat="44.67545" lon="1.64136">
        <ele>381.8</ele>
        <time>2010-01-01T00:00:00Z</time>
      </trkpt>
      <trkpt lat="44.6755" lon="1.6414">
        <ele>382</ele>
        <time>2010-01-01T00:00:00Z</time>
      </trkpt>
      <trkpt lat="44.6755" lon="1.6414">
        <ele>382</ele>
        <time>2010-01-01T00:00:00Z</time>
      </trkpt>
      <trkpt lat="44.6755" lon="1.6414">
        <ele>382</ele>
        <time>2010-01-01T00:00:00Z</time>
      </trkpt>
      <trkpt lat="44.67554" lon="1.64143">
        <ele>382.1</ele>
        <time>2010-01-01T00:00:00Z</time>
      </trkpt>
      <trkpt lat="44.67566" lon="1.64151">
        <ele>382.4</ele>
        <time>2010-01-01T00:00:00Z</time>
      </trkpt>
      <trkpt lat="44.67572" lon="1.64157">
        <ele>382.7</ele>
        <time>2010-01-01T00:00:00Z</time>
      </trkpt>
      <trkpt lat="44.67581" lon="1.64166">
        <ele>383</ele>
        <time>2010-01-01T00:00:00Z</time>
      </trkpt>
      <trkpt lat="44.67585" lon="1.64169">
        <ele>382.9</ele>
        <time>2010-01-01T00:00:00Z</time>
      </trkpt>
      <trkpt lat="44.6759" lon="1.6417">
        <ele>382.5</ele>
        <time>2010-01-01T00:00:00Z</time>
      </trkpt>
      <trkpt lat="44.67599" lon="1.6417">
        <ele>381.9</ele>
        <time>2010-01-01T00:00:00Z</time>
      </trkpt>
      <trkpt lat="44.67612" lon="1.64169">
        <ele>380.9</ele>
        <time>2010-01-01T00:00:00Z</time>
      </trkpt>
      <trkpt lat="44.67621" lon="1.6417">
        <ele>380.3</ele>
        <time>2010-01-01T00:00:00Z</time>
      </trkpt>
      <trkpt lat="44.67635" lon="1.64176">
        <ele>379.3</ele>
        <time>2010-01-01T00:00:00Z</time>
      </trkpt>
      <trkpt lat="44.67644" lon="1.64177">
        <ele>378.6</ele>
        <time>2010-01-01T00:00:00Z</time>
      </trkpt>
      <trkpt lat="44.67649" lon="1.64176">
        <ele>378.3</ele>
        <time>2010-01-01T00:00:00Z</time>
      </trkpt>
      <trkpt lat="44.67657" lon="1.64171">
        <ele>377.7</ele>
        <time>2010-01-01T00:00:00Z</time>
      </trkpt>
      <trkpt lat="44.67665" lon="1.64162">
        <ele>377</ele>
        <time>2010-01-01T00:00:00Z</time>
      </trkpt>
      <trkpt lat="44.67672" lon="1.64151">
        <ele>376.3</ele>
        <time>2010-01-01T00:00:00Z</time>
      </trkpt>
      <trkpt lat="44.67677" lon="1.64147">
        <ele>375.9</ele>
        <time>2010-01-01T00:00:00Z</time>
      </trkpt>
      <trkpt lat="44.67683" lon="1.64145">
        <ele>375.6</ele>
        <time>2010-01-01T00:00:00Z</time>
      </trkpt>
      <trkpt lat="44.67691" lon="1.64144">
        <ele>375.1</ele>
        <time>2010-01-01T00:00:00Z</time>
      </trkpt>
      <trkpt lat="44.67703" lon="1.64145">
        <ele>374.4</ele>
        <time>2010-01-01T00:00:00Z</time>
      </trkpt>
      <trkpt lat="44.67728" lon="1.64152">
        <ele>373.1</ele>
        <time>2010-01-01T00:00:00Z</time>
      </trkpt>
      <trkpt lat="44.67756" lon="1.64156">
        <ele>371.5</ele>
        <time>2010-01-01T00:00:00Z</time>
      </trkpt>
      <trkpt lat="44.67785" lon="1.64159">
        <ele>369.9</ele>
        <time>2010-01-01T00:00:00Z</time>
      </trkpt>
      <trkpt lat="44.67794" lon="1.6416">
        <ele>369.4</ele>
        <time>2010-01-01T00:00:00Z</time>
      </trkpt>
      <trkpt lat="44.67811" lon="1.64162">
        <ele>368.4</ele>
        <time>2010-01-01T00:00:00Z</time>
      </trkpt>
      <trkpt lat="44.67819" lon="1.64163">
        <ele>367.9</ele>
        <time>2010-01-01T00:00:00Z</time>
      </trkpt>
      <trkpt lat="44.67821" lon="1.64163">
        <ele>367.8</ele>
        <time>2010-01-01T00:00:00Z</time>
      </trkpt>
      <trkpt lat="44.67821" lon="1.64163">
        <ele>367.8</ele>
        <time>2010-01-01T00:00:00Z</time>
      </trkpt>
      <trkpt lat="44.67853" lon="1.64166">
        <ele>366.1</ele>
        <time>2010-01-01T00:00:00Z</time>
      </trkpt>
      <trkpt lat="44.67893" lon="1.64171">
        <ele>364.1</ele>
        <time>2010-01-01T00:00:00Z</time>
      </trkpt>
      <trkpt lat="44.6792" lon="1.64173">
        <ele>363.2</ele>
        <time>2010-01-01T00:00:00Z</time>
      </trkpt>
      <trkpt lat="44.67934" lon="1.64174">
        <ele>364</ele>
        <time>2010-01-01T00:00:00Z</time>
      </trkpt>
      <trkpt lat="44.67939" lon="1.64174">
        <ele>364.2</ele>
        <time>2010-01-01T00:00:00Z</time>
      </trkpt>
      <trkpt lat="44.67945" lon="1.64173">
        <ele>364.5</ele>
        <time>2010-01-01T00:00:00Z</time>
      </trkpt>
      <trkpt lat="44.67951" lon="1.6417">
        <ele>364.7</ele>
        <time>2010-01-01T00:00:00Z</time>
      </trkpt>
      <trkpt lat="44.67954" lon="1.64167">
        <ele>364.8</ele>
        <time>2010-01-01T00:00:00Z</time>
      </trkpt>
      <trkpt lat="44.67962" lon="1.64159">
        <ele>365</ele>
        <time>2010-01-01T00:00:00Z</time>
      </trkpt>
      <trkpt lat="44.67969" lon="1.64152">
        <ele>365.1</ele>
        <time>2010-01-01T00:00:00Z</time>
      </trkpt>
      <trkpt lat="44.67977" lon="1.64147">
        <ele>365.2</ele>
        <time>2010-01-01T00:00:00Z</time>
      </trkpt>
      <trkpt lat="44.67986" lon="1.64145">
        <ele>365.5</ele>
        <time>2010-01-01T00:00:00Z</time>
      </trkpt>
      <trkpt lat="44.67997" lon="1.64143">
        <ele>365.8</ele>
        <time>2010-01-01T00:00:00Z</time>
      </trkpt>
      <trkpt lat="44.68007" lon="1.64142">
        <ele>366.2</ele>
        <time>2010-01-01T00:00:00Z</time>
      </trkpt>
      <trkpt lat="44.68017" lon="1.64136">
        <ele>366.5</ele>
        <time>2010-01-01T00:00:00Z</time>
      </trkpt>
      <trkpt lat="44.68025" lon="1.64131">
        <ele>366.8</ele>
        <time>2010-01-01T00:00:00Z</time>
      </trkpt>
      <trkpt lat="44.68035" lon="1.64122">
        <ele>367</ele>
        <time>2010-01-01T00:00:00Z</time>
      </trkpt>
      <trkpt lat="44.68048" lon="1.64112">
        <ele>367.3</ele>
        <time>2010-01-01T00:00:00Z</time>
      </trkpt>
      <trkpt lat="44.68068" lon="1.64098">
        <ele>367.8</ele>
        <time>2010-01-01T00:00:00Z</time>
      </trkpt>
      <trkpt lat="44.6809" lon="1.64086">
        <ele>368.5</ele>
        <time>2010-01-01T00:00:00Z</time>
      </trkpt>
      <trkpt lat="44.68106" lon="1.64076">
        <ele>369.1</ele>
        <time>2010-01-01T00:00:00Z</time>
      </trkpt>
      <trkpt lat="44.68122" lon="1.64066">
        <ele>369.7</ele>
        <time>2010-01-01T00:00:00Z</time>
      </trkpt>
      <trkpt lat="44.68137" lon="1.6406">
        <ele>370.5</ele>
        <time>2010-01-01T00:00:00Z</time>
      </trkpt>
      <trkpt lat="44.68159" lon="1.64049">
        <ele>371.6</ele>
        <time>2010-01-01T00:00:00Z</time>
      </trkpt>
      <trkpt lat="44.68172" lon="1.64041">
        <ele>372.3</ele>
        <time>2010-01-01T00:00:00Z</time>
      </trkpt>
      <trkpt lat="44.68179" lon="1.64034">
        <ele>372.7</ele>
        <time>2010-01-01T00:00:00Z</time>
      </trkpt>
      <trkpt lat="44.68187" lon="1.64023">
        <ele>373.1</ele>
        <time>2010-01-01T00:00:00Z</time>
      </trkpt>
      <trkpt lat="44.68196" lon="1.64012">
        <ele>373.6</ele>
        <time>2010-01-01T00:00:00Z</time>
      </trkpt>
      <trkpt lat="44.68206" lon="1.64004">
        <ele>374.3</ele>
        <time>2010-01-01T00:00:00Z</time>
      </trkpt>
      <trkpt lat="44.68219" lon="1.63996">
        <ele>375.4</ele>
        <time>2010-01-01T00:00:00Z</time>
      </trkpt>
      <trkpt lat="44.68239" lon="1.63989">
        <ele>377.1</ele>
        <time>2010-01-01T00:00:00Z</time>
      </trkpt>
      <trkpt lat="44.68257" lon="1.63984">
        <ele>377.8</ele>
        <time>2010-01-01T00:00:00Z</time>
      </trkpt>
      <trkpt lat="44.6827" lon="1.6398">
        <ele>377.6</ele>
        <time>2010-01-01T00:00:00Z</time>
      </trkpt>
      <trkpt lat="44.68285" lon="1.63977">
        <ele>377.3</ele>
        <time>2010-01-01T00:00:00Z</time>
      </trkpt>
      <trkpt lat="44.68303" lon="1.63972">
        <ele>376.9</ele>
        <time>2010-01-01T00:00:00Z</time>
      </trkpt>
      <trkpt lat="44.68323" lon="1.63965">
        <ele>376.6</ele>
        <time>2010-01-01T00:00:00Z</time>
      </trkpt>
      <trkpt lat="44.68326" lon="1.63962">
        <ele>376.6</ele>
        <time>2010-01-01T00:00:00Z</time>
      </trkpt>
      <trkpt lat="44.68329" lon="1.63956">
        <ele>376.6</ele>
        <time>2010-01-01T00:00:00Z</time>
      </trkpt>
      <trkpt lat="44.68331" lon="1.6393">
        <ele>376.9</ele>
        <time>2010-01-01T00:00:00Z</time>
      </trkpt>
      <trkpt lat="44.68335" lon="1.63904">
        <ele>376.8</ele>
        <time>2010-01-01T00:00:00Z</time>
      </trkpt>
      <trkpt lat="44.68342" lon="1.63873">
        <ele>376.2</ele>
        <time>2010-01-01T00:00:00Z</time>
      </trkpt>
      <trkpt lat="44.68352" lon="1.63831">
        <ele>375.5</ele>
        <time>2010-01-01T00:00:00Z</time>
      </trkpt>
      <trkpt lat="44.68371" lon="1.63754">
        <ele>373.5</ele>
        <time>2010-01-01T00:00:00Z</time>
      </trkpt>
      <trkpt lat="44.68387" lon="1.63704">
        <ele>373.5</ele>
        <time>2010-01-01T00:00:00Z</time>
      </trkpt>
      <trkpt lat="44.68396" lon="1.63681">
        <ele>373.3</ele>
        <time>2010-01-01T00:00:00Z</time>
      </trkpt>
      <trkpt lat="44.68401" lon="1.63668">
        <ele>373.2</ele>
        <time>2010-01-01T00:00:00Z</time>
      </trkpt>
      <trkpt lat="44.68433" lon="1.63633">
        <ele>371.2</ele>
        <time>2010-01-01T00:00:00Z</time>
      </trkpt>
      <trkpt lat="44.68462" lon="1.63601">
        <ele>368.4</ele>
        <time>2010-01-01T00:00:00Z</time>
      </trkpt>
      <trkpt lat="44.68478" lon="1.6358">
        <ele>366.5</ele>
        <time>2010-01-01T00:00:00Z</time>
      </trkpt>
      <trkpt lat="44.68482" lon="1.63592">
        <ele>366.7</ele>
        <time>2010-01-01T00:00:00Z</time>
      </trkpt>
      <trkpt lat="44.68482" lon="1.63592">
        <ele>366.7</ele>
        <time>2010-01-01T00:00:00Z</time>
      </trkpt>
      <trkpt lat="44.68478" lon="1.6358">
        <ele>366.5</ele>
        <time>2010-01-01T00:00:00Z</time>
      </trkpt>
      <trkpt lat="44.68497" lon="1.63562">
        <ele>365</ele>
        <time>2010-01-01T00:00:00Z</time>
      </trkpt>
      <trkpt lat="44.68522" lon="1.63546">
        <ele>363.1</ele>
        <time>2010-01-01T00:00:00Z</time>
      </trkpt>
      <trkpt lat="44.68543" lon="1.63532">
        <ele>361.6</ele>
        <time>2010-01-01T00:00:00Z</time>
      </trkpt>
      <trkpt lat="44.68575" lon="1.63509">
        <ele>359.5</ele>
        <time>2010-01-01T00:00:00Z</time>
      </trkpt>
      <trkpt lat="44.68615" lon="1.63476">
        <ele>357.1</ele>
        <time>2010-01-01T00:00:00Z</time>
      </trkpt>
      <trkpt lat="44.6865" lon="1.63448">
        <ele>355</ele>
        <time>2010-01-01T00:00:00Z</time>
      </trkpt>
      <trkpt lat="44.68671" lon="1.6343">
        <ele>353.9</ele>
        <time>2010-01-01T00:00:00Z</time>
      </trkpt>
      <trkpt lat="44.68685" lon="1.63418">
        <ele>353.3</ele>
        <time>2010-01-01T00:00:00Z</time>
      </trkpt>
      <trkpt lat="44.68704" lon="1.63402">
        <ele>353.1</ele>
        <time>2010-01-01T00:00:00Z</time>
      </trkpt>
      <trkpt lat="44.68716" lon="1.63389">
        <ele>353</ele>
        <time>2010-01-01T00:00:00Z</time>
      </trkpt>
      <trkpt lat="44.68717" lon="1.63382">
        <ele>353.2</ele>
        <time>2010-01-01T00:00:00Z</time>
      </trkpt>
      <trkpt lat="44.68717" lon="1.63382">
        <ele>353.2</ele>
        <time>2010-01-01T00:00:00Z</time>
      </trkpt>
      <trkpt lat="44.68721" lon="1.63359">
        <ele>353.7</ele>
        <time>2010-01-01T00:00:00Z</time>
      </trkpt>
      <trkpt lat="44.68741" lon="1.63263">
        <ele>355.3</ele>
        <time>2010-01-01T00:00:00Z</time>
      </trkpt>
      <trkpt lat="44.68764" lon="1.63139">
        <ele>353.1</ele>
        <time>2010-01-01T00:00:00Z</time>
      </trkpt>
      <trkpt lat="44.68779" lon="1.63063">
        <ele>351.6</ele>
        <time>2010-01-01T00:00:00Z</time>
      </trkpt>
      <trkpt lat="44.68787" lon="1.63018">
        <ele>351.2</ele>
        <time>2010-01-01T00:00:00Z</time>
      </trkpt>
      <trkpt lat="44.68798" lon="1.62956">
        <ele>352</ele>
        <time>2010-01-01T00:00:00Z</time>
      </trkpt>
      <trkpt lat="44.68813" lon="1.62882">
        <ele>353.5</ele>
        <time>2010-01-01T00:00:00Z</time>
      </trkpt>
      <trkpt lat="44.68822" lon="1.62836">
        <ele>354.6</ele>
        <time>2010-01-01T00:00:00Z</time>
      </trkpt>
      <trkpt lat="44.68839" lon="1.62752">
        <ele>358.7</ele>
        <time>2010-01-01T00:00:00Z</time>
      </trkpt>
      <trkpt lat="44.68855" lon="1.62671">
        <ele>358.7</ele>
        <time>2010-01-01T00:00:00Z</time>
      </trkpt>
      <trkpt lat="44.6887" lon="1.62592">
        <ele>355.8</ele>
        <time>2010-01-01T00:00:00Z</time>
      </trkpt>
      <trkpt lat="44.68881" lon="1.62532">
        <ele>353.5</ele>
        <time>2010-01-01T00:00:00Z</time>
      </trkpt>
      <trkpt lat="44.68895" lon="1.62458">
        <ele>351.2</ele>
        <time>2010-01-01T00:00:00Z</time>
      </trkpt>
      <trkpt lat="44.68897" lon="1.62451">
        <ele>350.9</ele>
        <time>2010-01-01T00:00:00Z</time>
      </trkpt>
      <trkpt lat="44.68915" lon="1.62364">
        <ele>349.1</ele>
        <time>2010-01-01T00:00:00Z</time>
      </trkpt>
      <trkpt lat="44.68936" lon="1.62262">
        <ele>349.6</ele>
        <time>2010-01-01T00:00:00Z</time>
      </trkpt>
      <trkpt lat="44.68951" lon="1.62187">
        <ele>350</ele>
        <time>2010-01-01T00:00:00Z</time>
      </trkpt>
      <trkpt lat="44.68964" lon="1.62132">
        <ele>349.4</ele>
        <time>2010-01-01T00:00:00Z</time>
      </trkpt>
      <trkpt lat="44.68969" lon="1.62103">
        <ele>348.9</ele>
        <time>2010-01-01T00:00:00Z</time>
      </trkpt>
      <trkpt lat="44.68985" lon="1.62031">
        <ele>347</ele>
        <time>2010-01-01T00:00:00Z</time>
      </trkpt>
      <trkpt lat="44.68991" lon="1.62038">
        <ele>347.1</ele>
        <time>2010-01-01T00:00:00Z</time>
      </trkpt>
      <trkpt lat="44.68991" lon="1.62038">
        <ele>347.1</ele>
        <time>2010-01-01T00:00:00Z</time>
      </trkpt>
      <trkpt lat="44.69017" lon="1.6207">
        <ele>346.5</ele>
        <time>2010-01-01T00:00:00Z</time>
      </trkpt>
      <trkpt lat="44.69054" lon="1.62111">
        <ele>344.1</ele>
        <time>2010-01-01T00:00:00Z</time>
      </trkpt>
      <trkpt lat="44.69076" lon="1.62137">
        <ele>342.5</ele>
        <time>2010-01-01T00:00:00Z</time>
      </trkpt>
      <trkpt lat="44.69112" lon="1.62179">
        <ele>341.2</ele>
        <time>2010-01-01T00:00:00Z</time>
      </trkpt>
      <trkpt lat="44.69137" lon="1.6221">
        <ele>340.9</ele>
        <time>2010-01-01T00:00:00Z</time>
      </trkpt>
      <trkpt lat="44.69159" lon="1.62235">
        <ele>340.8</ele>
        <time>2010-01-01T00:00:00Z</time>
      </trkpt>
      <trkpt lat="44.69188" lon="1.62269">
        <ele>343.3</ele>
        <time>2010-01-01T00:00:00Z</time>
      </trkpt>
      <trkpt lat="44.69228" lon="1.62314">
        <ele>346.8</ele>
        <time>2010-01-01T00:00:00Z</time>
      </trkpt>
      <trkpt lat="44.69256" lon="1.62345">
        <ele>348.2</ele>
        <time>2010-01-01T00:00:00Z</time>
      </trkpt>
      <trkpt lat="44.69295" lon="1.62389">
        <ele>349.3</ele>
        <time>2010-01-01T00:00:00Z</time>
      </trkpt>
      <trkpt lat="44.69315" lon="1.6241">
        <ele>349.6</ele>
        <time>2010-01-01T00:00:00Z</time>
      </trkpt>
      <trkpt lat="44.69378" lon="1.62482">
        <ele>349.9</ele>
        <time>2010-01-01T00:00:00Z</time>
      </trkpt>
      <trkpt lat="44.69384" lon="1.62488">
        <ele>350</ele>
        <time>2010-01-01T00:00:00Z</time>
      </trkpt>
      <trkpt lat="44.69384" lon="1.62488">
        <ele>350</ele>
        <time>2010-01-01T00:00:00Z</time>
      </trkpt>
      <trkpt lat="44.69378" lon="1.62482">
        <ele>349.9</ele>
        <time>2010-01-01T00:00:00Z</time>
      </trkpt>
      <trkpt lat="44.69374" lon="1.62493">
        <ele>350.3</ele>
        <time>2010-01-01T00:00:00Z</time>
      </trkpt>
      <trkpt lat="44.69365" lon="1.62515">
        <ele>351.3</ele>
        <time>2010-01-01T00:00:00Z</time>
      </trkpt>
      <trkpt lat="44.6935" lon="1.62543">
        <ele>352.6</ele>
        <time>2010-01-01T00:00:00Z</time>
      </trkpt>
      <trkpt lat="44.69316" lon="1.62627">
        <ele>354.8</ele>
        <time>2010-01-01T00:00:00Z</time>
      </trkpt>
      <trkpt lat="44.69297" lon="1.62678">
        <ele>355.5</ele>
        <time>2010-01-01T00:00:00Z</time>
      </trkpt>
      <trkpt lat="44.69275" lon="1.62728">
        <ele>355.7</ele>
        <time>2010-01-01T00:00:00Z</time>
      </trkpt>
      <trkpt lat="44.69259" lon="1.62767">
        <ele>356.5</ele>
        <time>2010-01-01T00:00:00Z</time>
      </trkpt>
      <trkpt lat="44.69221" lon="1.6286">
        <ele>358.3</ele>
        <time>2010-01-01T00:00:00Z</time>
      </trkpt>
      <trkpt lat="44.69226" lon="1.62864">
        <ele>359</ele>
        <time>2010-01-01T00:00:00Z</time>
      </trkpt>
      <trkpt lat="44.69226" lon="1.62864">
        <ele>359</ele>
        <time>2010-01-01T00:00:00Z</time>
      </trkpt>
      <trkpt lat="44.69281" lon="1.62911">
        <ele>364.9</ele>
        <time>2010-01-01T00:00:00Z</time>
      </trkpt>
      <trkpt lat="44.69329" lon="1.62952">
        <ele>368.5</ele>
        <time>2010-01-01T00:00:00Z</time>
      </trkpt>
      <trkpt lat="44.69353" lon="1.62974">
        <ele>370.3</ele>
        <time>2010-01-01T00:00:00Z</time>
      </trkpt>
      <trkpt lat="44.69358" lon="1.62976">
        <ele>370.5</ele>
        <time>2010-01-01T00:00:00Z</time>
      </trkpt>
      <trkpt lat="44.69363" lon="1.62976">
        <ele>370.7</ele>
        <time>2010-01-01T00:00:00Z</time>
      </trkpt>
      <trkpt lat="44.69382" lon="1.62965">
        <ele>370.7</ele>
        <time>2010-01-01T00:00:00Z</time>
      </trkpt>
      <trkpt lat="44.69407" lon="1.62948">
        <ele>370.8</ele>
        <time>2010-01-01T00:00:00Z</time>
      </trkpt>
      <trkpt lat="44.69443" lon="1.62925">
        <ele>370.2</ele>
        <time>2010-01-01T00:00:00Z</time>
      </trkpt>
      <trkpt lat="44.69464" lon="1.62912">
        <ele>369.7</ele>
        <time>2010-01-01T00:00:00Z</time>
      </trkpt>
      <trkpt lat="44.69489" lon="1.62901">
        <ele>369.1</ele>
        <time>2010-01-01T00:00:00Z</time>
      </trkpt>
      <trkpt lat="44.69541" lon="1.6289">
        <ele>368.5</ele>
        <time>2010-01-01T00:00:00Z</time>
      </trkpt>
      <trkpt lat="44.69573" lon="1.62885">
        <ele>368.6</ele>
        <time>2010-01-01T00:00:00Z</time>
      </trkpt>
      <trkpt lat="44.69581" lon="1.62883">
        <ele>368.6</ele>
        <time>2010-01-01T00:00:00Z</time>
      </trkpt>
      <trkpt lat="44.69581" lon="1.62883">
        <ele>368.6</ele>
        <time>2010-01-01T00:00:00Z</time>
      </trkpt>
      <trkpt lat="44.69584" lon="1.62883">
        <ele>368.6</ele>
        <time>2010-01-01T00:00:00Z</time>
      </trkpt>
      <trkpt lat="44.69585" lon="1.62875">
        <ele>368.6</ele>
        <time>2010-01-01T00:00:00Z</time>
      </trkpt>
      <trkpt lat="44.6959" lon="1.62837">
        <ele>368.4</ele>
        <time>2010-01-01T00:00:00Z</time>
      </trkpt>
      <trkpt lat="44.69593" lon="1.62799">
        <ele>367.3</ele>
        <time>2010-01-01T00:00:00Z</time>
      </trkpt>
      <trkpt lat="44.69595" lon="1.62769">
        <ele>366.5</ele>
        <time>2010-01-01T00:00:00Z</time>
      </trkpt>
      <trkpt lat="44.69596" lon="1.6275">
        <ele>365.9</ele>
        <time>2010-01-01T00:00:00Z</time>
      </trkpt>
      <trkpt lat="44.69598" lon="1.62735">
        <ele>365.8</ele>
        <time>2010-01-01T00:00:00Z</time>
      </trkpt>
      <trkpt lat="44.69598" lon="1.62718">
        <ele>365.6</ele>
        <time>2010-01-01T00:00:00Z</time>
      </trkpt>
      <trkpt lat="44.69602" lon="1.62675">
        <ele>365.2</ele>
        <time>2010-01-01T00:00:00Z</time>
      </trkpt>
      <trkpt lat="44.69608" lon="1.62628">
        <ele>365.5</ele>
        <time>2010-01-01T00:00:00Z</time>
      </trkpt>
      <trkpt lat="44.69612" lon="1.62578">
        <ele>365.4</ele>
        <time>2010-01-01T00:00:00Z</time>
      </trkpt>
      <trkpt lat="44.69616" lon="1.62525">
        <ele>363</ele>
        <time>2010-01-01T00:00:00Z</time>
      </trkpt>
      <trkpt lat="44.69622" lon="1.62444">
        <ele>359.9</ele>
        <time>2010-01-01T00:00:00Z</time>
      </trkpt>
      <trkpt lat="44.69627" lon="1.62371">
        <ele>357.2</ele>
        <time>2010-01-01T00:00:00Z</time>
      </trkpt>
      <trkpt lat="44.69631" lon="1.62341">
        <ele>356.2</ele>
        <time>2010-01-01T00:00:00Z</time>
      </trkpt>
      <trkpt lat="44.69635" lon="1.62309">
        <ele>355.4</ele>
        <time>2010-01-01T00:00:00Z</time>
      </trkpt>
      <trkpt lat="44.69636" lon="1.62277">
        <ele>354.6</ele>
        <time>2010-01-01T00:00:00Z</time>
      </trkpt>
      <trkpt lat="44.69641" lon="1.62209">
        <ele>354</ele>
        <time>2010-01-01T00:00:00Z</time>
      </trkpt>
      <trkpt lat="44.69648" lon="1.62134">
        <ele>353.6</ele>
        <time>2010-01-01T00:00:00Z</time>
      </trkpt>
      <trkpt lat="44.69657" lon="1.62012">
        <ele>349.9</ele>
        <time>2010-01-01T00:00:00Z</time>
      </trkpt>
      <trkpt lat="44.69664" lon="1.61924">
        <ele>347.1</ele>
        <time>2010-01-01T00:00:00Z</time>
      </trkpt>
      <trkpt lat="44.69671" lon="1.61853">
        <ele>347</ele>
        <time>2010-01-01T00:00:00Z</time>
      </trkpt>
      <trkpt lat="44.69676" lon="1.61829">
        <ele>346.9</ele>
        <time>2010-01-01T00:00:00Z</time>
      </trkpt>
      <trkpt lat="44.69677" lon="1.6183">
        <ele>347</ele>
        <time>2010-01-01T00:00:00Z</time>
      </trkpt>
      <trkpt lat="44.69677" lon="1.6183">
        <ele>347</ele>
        <time>2010-01-01T00:00:00Z</time>
      </trkpt>
      <trkpt lat="44.69676" lon="1.61829">
        <ele>346.9</ele>
        <time>2010-01-01T00:00:00Z</time>
      </trkpt>
      <trkpt lat="44.6958" lon="1.61621">
        <ele>343.8</ele>
        <time>2010-01-01T00:00:00Z</time>
      </trkpt>
      <trkpt lat="44.69589" lon="1.61608">
        <ele>344.1</ele>
        <time>2010-01-01T00:00:00Z</time>
      </trkpt>
      <trkpt lat="44.69588" lon="1.61601">
        <ele>344.1</ele>
        <time>2010-01-01T00:00:00Z</time>
      </trkpt>
      <trkpt lat="44.69586" lon="1.61595">
        <ele>344</ele>
        <time>2010-01-01T00:00:00Z</time>
      </trkpt>
      <trkpt lat="44.69575" lon="1.61575">
        <ele>343.7</ele>
        <time>2010-01-01T00:00:00Z</time>
      </trkpt>
      <trkpt lat="44.69572" lon="1.61565">
        <ele>343.6</ele>
        <time>2010-01-01T00:00:00Z</time>
      </trkpt>
      <trkpt lat="44.69572" lon="1.61557">
        <ele>343.6</ele>
        <time>2010-01-01T00:00:00Z</time>
      </trkpt>
      <trkpt lat="44.69572" lon="1.6155">
        <ele>343.7</ele>
        <time>2010-01-01T00:00:00Z</time>
      </trkpt>
      <trkpt lat="44.69586" lon="1.61456">
        <ele>343.5</ele>
        <time>2010-01-01T00:00:00Z</time>
      </trkpt>
      <trkpt lat="44.69595" lon="1.61406">
        <ele>342.1</ele>
        <time>2010-01-01T00:00:00Z</time>
      </trkpt>
      <trkpt lat="44.69605" lon="1.61326">
        <ele>340.9</ele>
        <time>2010-01-01T00:00:00Z</time>
      </trkpt>
      <trkpt lat="44.69611" lon="1.6127">
        <ele>339.7</ele>
        <time>2010-01-01T00:00:00Z</time>
      </trkpt>
      <trkpt lat="44.69616" lon="1.61229">
        <ele>338.9</ele>
        <time>2010-01-01T00:00:00Z</time>
      </trkpt>
      <trkpt lat="44.69632" lon="1.61129">
        <ele>336.8</ele>
        <time>2010-01-01T00:00:00Z</time>
      </trkpt>
      <trkpt lat="44.69653" lon="1.60961">
        <ele>333.6</ele>
        <time>2010-01-01T00:00:00Z</time>
      </trkpt>
      <trkpt lat="44.69663" lon="1.60888">
        <ele>333.5</ele>
        <time>2010-01-01T00:00:00Z</time>
      </trkpt>
      <trkpt lat="44.69681" lon="1.60758">
        <ele>334</ele>
        <time>2010-01-01T00:00:00Z</time>
      </trkpt>
      <trkpt lat="44.69705" lon="1.60572">
        <ele>332.3</ele>
        <time>2010-01-01T00:00:00Z</time>
      </trkpt>
      <trkpt lat="44.69727" lon="1.60425">
        <ele>327.8</ele>
        <time>2010-01-01T00:00:00Z</time>
      </trkpt>
      <trkpt lat="44.69738" lon="1.60323">
        <ele>327.1</ele>
        <time>2010-01-01T00:00:00Z</time>
      </trkpt>
      <trkpt lat="44.69747" lon="1.60262">
        <ele>327.8</ele>
        <time>2010-01-01T00:00:00Z</time>
      </trkpt>
      <trkpt lat="44.69759" lon="1.60189">
        <ele>329.6</ele>
        <time>2010-01-01T00:00:00Z</time>
      </trkpt>
      <trkpt lat="44.69763" lon="1.60193">
        <ele>329.6</ele>
        <time>2010-01-01T00:00:00Z</time>
      </trkpt>
      <trkpt lat="44.69763" lon="1.60193">
        <ele>329.6</ele>
        <time>2010-01-01T00:00:00Z</time>
      </trkpt>
      <trkpt lat="44.69771" lon="1.60202">
        <ele>329.5</ele>
        <time>2010-01-01T00:00:00Z</time>
      </trkpt>
      <trkpt lat="44.6978" lon="1.60217">
        <ele>329.4</ele>
        <time>2010-01-01T00:00:00Z</time>
      </trkpt>
      <trkpt lat="44.6979" lon="1.60233">
        <ele>329.3</ele>
        <time>2010-01-01T00:00:00Z</time>
      </trkpt>
      <trkpt lat="44.69797" lon="1.6024">
        <ele>329.3</ele>
        <time>2010-01-01T00:00:00Z</time>
      </trkpt>
      <trkpt lat="44.69801" lon="1.60243">
        <ele>329.3</ele>
        <time>2010-01-01T00:00:00Z</time>
      </trkpt>
      <trkpt lat="44.69838" lon="1.60271">
        <ele>330.4</ele>
        <time>2010-01-01T00:00:00Z</time>
      </trkpt>
      <trkpt lat="44.69859" lon="1.60288">
        <ele>332.5</ele>
        <time>2010-01-01T00:00:00Z</time>
      </trkpt>
      <trkpt lat="44.69873" lon="1.60306">
        <ele>333.8</ele>
        <time>2010-01-01T00:00:00Z</time>
      </trkpt>
      <trkpt lat="44.69891" lon="1.60332">
        <ele>335.5</ele>
        <time>2010-01-01T00:00:00Z</time>
      </trkpt>
      <trkpt lat="44.69908" lon="1.60353">
        <ele>336.3</ele>
        <time>2010-01-01T00:00:00Z</time>
      </trkpt>
      <trkpt lat="44.69921" lon="1.60367">
        <ele>336.4</ele>
        <time>2010-01-01T00:00:00Z</time>
      </trkpt>
      <trkpt lat="44.69959" lon="1.60394">
        <ele>335.1</ele>
        <time>2010-01-01T00:00:00Z</time>
      </trkpt>
      <trkpt lat="44.69983" lon="1.60415">
        <ele>334.1</ele>
        <time>2010-01-01T00:00:00Z</time>
      </trkpt>
      <trkpt lat="44.70001" lon="1.60434">
        <ele>333.8</ele>
        <time>2010-01-01T00:00:00Z</time>
      </trkpt>
      <trkpt lat="44.70004" lon="1.60438">
        <ele>333.9</ele>
        <time>2010-01-01T00:00:00Z</time>
      </trkpt>
      <trkpt lat="44.70022" lon="1.60454">
        <ele>334.6</ele>
        <time>2010-01-01T00:00:00Z</time>
      </trkpt>
      <trkpt lat="44.70035" lon="1.60461">
        <ele>335.1</ele>
        <time>2010-01-01T00:00:00Z</time>
      </trkpt>
      <trkpt lat="44.70045" lon="1.60462">
        <ele>335.6</ele>
        <time>2010-01-01T00:00:00Z</time>
      </trkpt>
      <trkpt lat="44.70079" lon="1.6046">
        <ele>337.3</ele>
        <time>2010-01-01T00:00:00Z</time>
      </trkpt>
      <trkpt lat="44.70127" lon="1.60461">
        <ele>340.1</ele>
        <time>2010-01-01T00:00:00Z</time>
      </trkpt>
      <trkpt lat="44.70158" lon="1.60465">
        <ele>341.9</ele>
        <time>2010-01-01T00:00:00Z</time>
      </trkpt>
      <trkpt lat="44.70189" lon="1.60475">
        <ele>343.4</ele>
        <time>2010-01-01T00:00:00Z</time>
      </trkpt>
      <trkpt lat="44.70227" lon="1.60495">
        <ele>345</ele>
        <time>2010-01-01T00:00:00Z</time>
      </trkpt>
      <trkpt lat="44.70264" lon="1.60519">
        <ele>345.2</ele>
        <time>2010-01-01T00:00:00Z</time>
      </trkpt>
      <trkpt lat="44.70306" lon="1.60555">
        <ele>344.7</ele>
        <time>2010-01-01T00:00:00Z</time>
      </trkpt>
      <trkpt lat="44.70321" lon="1.60569">
        <ele>344.8</ele>
        <time>2010-01-01T00:00:00Z</time>
      </trkpt>
      <trkpt lat="44.70322" lon="1.6057">
        <ele>344.8</ele>
        <time>2010-01-01T00:00:00Z</time>
      </trkpt>
      <trkpt lat="44.70331" lon="1.60575">
        <ele>345</ele>
        <time>2010-01-01T00:00:00Z</time>
      </trkpt>
      <trkpt lat="44.70335" lon="1.60578">
        <ele>345.1</ele>
        <time>2010-01-01T00:00:00Z</time>
      </trkpt>
      <trkpt lat="44.7036" lon="1.60585">
        <ele>345.3</ele>
        <time>2010-01-01T00:00:00Z</time>
      </trkpt>
      <trkpt lat="44.70376" lon="1.6059">
        <ele>345.5</ele>
        <time>2010-01-01T00:00:00Z</time>
      </trkpt>
      <trkpt lat="44.70391" lon="1.60597">
        <ele>345.6</ele>
        <time>2010-01-01T00:00:00Z</time>
      </trkpt>
      <trkpt lat="44.70423" lon="1.60623">
        <ele>346.1</ele>
        <time>2010-01-01T00:00:00Z</time>
      </trkpt>
      <trkpt lat="44.70454" lon="1.6065">
        <ele>346.8</ele>
        <time>2010-01-01T00:00:00Z</time>
      </trkpt>
      <trkpt lat="44.70468" lon="1.6066">
        <ele>347.2</ele>
        <time>2010-01-01T00:00:00Z</time>
      </trkpt>
      <trkpt lat="44.70522" lon="1.6069">
        <ele>347.1</ele>
        <time>2010-01-01T00:00:00Z</time>
      </trkpt>
      <trkpt lat="44.70582" lon="1.60722">
        <ele>347</ele>
        <time>2010-01-01T00:00:00Z</time>
      </trkpt>
      <trkpt lat="44.70604" lon="1.60737">
        <ele>346.6</ele>
        <time>2010-01-01T00:00:00Z</time>
      </trkpt>
      <trkpt lat="44.70627" lon="1.60757">
        <ele>346.5</ele>
        <time>2010-01-01T00:00:00Z</time>
      </trkpt>
      <trkpt lat="44.70652" lon="1.60784">
        <ele>346.4</ele>
        <time>2010-01-01T00:00:00Z</time>
      </trkpt>
      <trkpt lat="44.7067" lon="1.60801">
        <ele>346.6</ele>
        <time>2010-01-01T00:00:00Z</time>
      </trkpt>
      <trkpt lat="44.70686" lon="1.6081">
        <ele>346.5</ele>
        <time>2010-01-01T00:00:00Z</time>
      </trkpt>
      <trkpt lat="44.70706" lon="1.60817">
        <ele>346.1</ele>
        <time>2010-01-01T00:00:00Z</time>
      </trkpt>
      <trkpt lat="44.70726" lon="1.60822">
        <ele>345.7</ele>
        <time>2010-01-01T00:00:00Z</time>
      </trkpt>
      <trkpt lat="44.70745" lon="1.6083">
        <ele>345.2</ele>
        <time>2010-01-01T00:00:00Z</time>
      </trkpt>
      <trkpt lat="44.70801" lon="1.60865">
        <ele>344.8</ele>
        <time>2010-01-01T00:00:00Z</time>
      </trkpt>
      <trkpt lat="44.70862" lon="1.60901">
        <ele>346.8</ele>
        <time>2010-01-01T00:00:00Z</time>
      </trkpt>
      <trkpt lat="44.70912" lon="1.6093">
        <ele>348.8</ele>
        <time>2010-01-01T00:00:00Z</time>
      </trkpt>
      <trkpt lat="44.70952" lon="1.60947">
        <ele>349.7</ele>
        <time>2010-01-01T00:00:00Z</time>
      </trkpt>
      <trkpt lat="44.70983" lon="1.60963">
        <ele>350.1</ele>
        <time>2010-01-01T00:00:00Z</time>
      </trkpt>
      <trkpt lat="44.71055" lon="1.61011">
        <ele>350.2</ele>
        <time>2010-01-01T00:00:00Z</time>
      </trkpt>
      <trkpt lat="44.71125" lon="1.61058">
        <ele>351</ele>
        <time>2010-01-01T00:00:00Z</time>
      </trkpt>
      <trkpt lat="44.71152" lon="1.61074">
        <ele>351</ele>
        <time>2010-01-01T00:00:00Z</time>
      </trkpt>
      <trkpt lat="44.7117" lon="1.61082">
        <ele>350.9</ele>
        <time>2010-01-01T00:00:00Z</time>
      </trkpt>
      <trkpt lat="44.71188" lon="1.61088">
        <ele>350.5</ele>
        <time>2010-01-01T00:00:00Z</time>
      </trkpt>
      <trkpt lat="44.71206" lon="1.6109">
        <ele>350</ele>
        <time>2010-01-01T00:00:00Z</time>
      </trkpt>
      <trkpt lat="44.71239" lon="1.61089">
        <ele>349.1</ele>
        <time>2010-01-01T00:00:00Z</time>
      </trkpt>
      <trkpt lat="44.71288" lon="1.61089">
        <ele>346.9</ele>
        <time>2010-01-01T00:00:00Z</time>
      </trkpt>
      <trkpt lat="44.71322" lon="1.6109">
        <ele>345.1</ele>
        <time>2010-01-01T00:00:00Z</time>
      </trkpt>
      <trkpt lat="44.71338" lon="1.61093">
        <ele>344</ele>
        <time>2010-01-01T00:00:00Z</time>
      </trkpt>
      <trkpt lat="44.71351" lon="1.611">
        <ele>342.8</ele>
        <time>2010-01-01T00:00:00Z</time>
      </trkpt>
      <trkpt lat="44.71374" lon="1.61113">
        <ele>341</ele>
        <time>2010-01-01T00:00:00Z</time>
      </trkpt>
      <trkpt lat="44.71422" lon="1.61144">
        <ele>339</ele>
        <time>2010-01-01T00:00:00Z</time>
      </trkpt>
      <trkpt lat="44.71449" lon="1.6116">
        <ele>339</ele>
        <time>2010-01-01T00:00:00Z</time>
      </trkpt>
      <trkpt lat="44.71473" lon="1.61172">
        <ele>339</ele>
        <time>2010-01-01T00:00:00Z</time>
      </trkpt>
      <trkpt lat="44.71516" lon="1.61187">
        <ele>337.8</ele>
        <time>2010-01-01T00:00:00Z</time>
      </trkpt>
      <trkpt lat="44.71534" lon="1.61199">
        <ele>336.7</ele>
        <time>2010-01-01T00:00:00Z</time>
      </trkpt>
      <trkpt lat="44.71555" lon="1.61215">
        <ele>335.5</ele>
        <time>2010-01-01T00:00:00Z</time>
      </trkpt>
      <trkpt lat="44.71573" lon="1.61227">
        <ele>334.5</ele>
        <time>2010-01-01T00:00:00Z</time>
      </trkpt>
      <trkpt lat="44.71587" lon="1.61232">
        <ele>333.6</ele>
        <time>2010-01-01T00:00:00Z</time>
      </trkpt>
      <trkpt lat="44.71611" lon="1.61237">
        <ele>331.1</ele>
        <time>2010-01-01T00:00:00Z</time>
      </trkpt>
      <trkpt lat="44.71622" lon="1.61238">
        <ele>329.9</ele>
        <time>2010-01-01T00:00:00Z</time>
      </trkpt>
      <trkpt lat="44.71628" lon="1.6124">
        <ele>329.2</ele>
        <time>2010-01-01T00:00:00Z</time>
      </trkpt>
      <trkpt lat="44.71628" lon="1.6124">
        <ele>329.2</ele>
        <time>2010-01-01T00:00:00Z</time>
      </trkpt>
      <trkpt lat="44.71622" lon="1.61238">
        <ele>329.9</ele>
        <time>2010-01-01T00:00:00Z</time>
      </trkpt>
      <trkpt lat="44.71668" lon="1.61148">
        <ele>325.8</ele>
        <time>2010-01-01T00:00:00Z</time>
      </trkpt>
      <trkpt lat="44.71671" lon="1.61136">
        <ele>325.5</ele>
        <time>2010-01-01T00:00:00Z</time>
      </trkpt>
      <trkpt lat="44.71671" lon="1.61125">
        <ele>325.5</ele>
        <time>2010-01-01T00:00:00Z</time>
      </trkpt>
      <trkpt lat="44.71669" lon="1.61114">
        <ele>325.7</ele>
        <time>2010-01-01T00:00:00Z</time>
      </trkpt>
      <trkpt lat="44.71663" lon="1.61094">
        <ele>326.4</ele>
        <time>2010-01-01T00:00:00Z</time>
      </trkpt>
      <trkpt lat="44.71662" lon="1.61084">
        <ele>326.4</ele>
        <time>2010-01-01T00:00:00Z</time>
      </trkpt>
      <trkpt lat="44.71664" lon="1.61074">
        <ele>326.5</ele>
        <time>2010-01-01T00:00:00Z</time>
      </trkpt>
      <trkpt lat="44.71669" lon="1.61067">
        <ele>326.1</ele>
        <time>2010-01-01T00:00:00Z</time>
      </trkpt>
      <trkpt lat="44.71678" lon="1.61063">
        <ele>324.8</ele>
        <time>2010-01-01T00:00:00Z</time>
      </trkpt>
      <trkpt lat="44.71711" lon="1.6105">
        <ele>320.2</ele>
        <time>2010-01-01T00:00:00Z</time>
      </trkpt>
      <trkpt lat="44.71718" lon="1.61043">
        <ele>319.3</ele>
        <time>2010-01-01T00:00:00Z</time>
      </trkpt>
      <trkpt lat="44.71724" lon="1.61032">
        <ele>318.6</ele>
        <time>2010-01-01T00:00:00Z</time>
      </trkpt>
      <trkpt lat="44.71726" lon="1.61019">
        <ele>318.5</ele>
        <time>2010-01-01T00:00:00Z</time>
      </trkpt>
      <trkpt lat="44.71726" lon="1.61002">
        <ele>318.7</ele>
        <time>2010-01-01T00:00:00Z</time>
      </trkpt>
      <trkpt lat="44.7172" lon="1.60985">
        <ele>319.6</ele>
        <time>2010-01-01T00:00:00Z</time>
      </trkpt>
      <trkpt lat="44.71695" lon="1.60949">
        <ele>322.6</ele>
        <time>2010-01-01T00:00:00Z</time>
      </trkpt>
      <trkpt lat="44.71691" lon="1.6094">
        <ele>322.9</ele>
        <time>2010-01-01T00:00:00Z</time>
      </trkpt>
      <trkpt lat="44.71689" lon="1.6093">
        <ele>322.9</ele>
        <time>2010-01-01T00:00:00Z</time>
      </trkpt>
      <trkpt lat="44.71691" lon="1.60917">
        <ele>322.4</ele>
        <time>2010-01-01T00:00:00Z</time>
      </trkpt>
      <trkpt lat="44.71697" lon="1.60906">
        <ele>322.3</ele>
        <time>2010-01-01T00:00:00Z</time>
      </trkpt>
      <trkpt lat="44.717" lon="1.60904">
        <ele>322.1</ele>
        <time>2010-01-01T00:00:00Z</time>
      </trkpt>
      <trkpt lat="44.71705" lon="1.60903">
        <ele>321.6</ele>
        <time>2010-01-01T00:00:00Z</time>
      </trkpt>
      <trkpt lat="44.71736" lon="1.60915">
        <ele>317.6</ele>
        <time>2010-01-01T00:00:00Z</time>
      </trkpt>
      <trkpt lat="44.71747" lon="1.60916">
        <ele>316.4</ele>
        <time>2010-01-01T00:00:00Z</time>
      </trkpt>
      <trkpt lat="44.71757" lon="1.60913">
        <ele>316.5</ele>
        <time>2010-01-01T00:00:00Z</time>
      </trkpt>
      <trkpt lat="44.71762" lon="1.60908">
        <ele>317.1</ele>
        <time>2010-01-01T00:00:00Z</time>
      </trkpt>
      <trkpt lat="44.71765" lon="1.60902">
        <ele>317.5</ele>
        <time>2010-01-01T00:00:00Z</time>
      </trkpt>
      <trkpt lat="44.71776" lon="1.60842">
        <ele>320.9</ele>
        <time>2010-01-01T00:00:00Z</time>
      </trkpt>
      <trkpt lat="44.71777" lon="1.60836">
        <ele>321.2</ele>
        <time>2010-01-01T00:00:00Z</time>
      </trkpt>
      <trkpt lat="44.71781" lon="1.6083">
        <ele>321.5</ele>
        <time>2010-01-01T00:00:00Z</time>
      </trkpt>
      <trkpt lat="44.71789" lon="1.60828">
        <ele>321.7</ele>
        <time>2010-01-01T00:00:00Z</time>
      </trkpt>
      <trkpt lat="44.71798" lon="1.60833">
        <ele>321.6</ele>
        <time>2010-01-01T00:00:00Z</time>
      </trkpt>
      <trkpt lat="44.71805" lon="1.60834">
        <ele>321.6</ele>
        <time>2010-01-01T00:00:00Z</time>
      </trkpt>
      <trkpt lat="44.71806" lon="1.60821">
        <ele>322.2</ele>
        <time>2010-01-01T00:00:00Z</time>
      </trkpt>
      <trkpt lat="44.71806" lon="1.60821">
        <ele>322.2</ele>
        <time>2010-01-01T00:00:00Z</time>
      </trkpt>
      <trkpt lat="44.71811" lon="1.60766">
        <ele>324.4</ele>
        <time>2010-01-01T00:00:00Z</time>
      </trkpt>
      <trkpt lat="44.71821" lon="1.60708">
        <ele>326.7</ele>
        <time>2010-01-01T00:00:00Z</time>
      </trkpt>
      <trkpt lat="44.71825" lon="1.60675">
        <ele>327.9</ele>
        <time>2010-01-01T00:00:00Z</time>
      </trkpt>
      <trkpt lat="44.71823" lon="1.60657">
        <ele>328.3</ele>
        <time>2010-01-01T00:00:00Z</time>
      </trkpt>
      <trkpt lat="44.71818" lon="1.60632">
        <ele>328.7</ele>
        <time>2010-01-01T00:00:00Z</time>
      </trkpt>
      <trkpt lat="44.71814" lon="1.60594">
        <ele>329.1</ele>
        <time>2010-01-01T00:00:00Z</time>
      </trkpt>
      <trkpt lat="44.71815" lon="1.6056">
        <ele>329.5</ele>
        <time>2010-01-01T00:00:00Z</time>
      </trkpt>
      <trkpt lat="44.71821" lon="1.60524">
        <ele>329.7</ele>
        <time>2010-01-01T00:00:00Z</time>
      </trkpt>
      <trkpt lat="44.71833" lon="1.60489">
        <ele>329.8</ele>
        <time>2010-01-01T00:00:00Z</time>
      </trkpt>
      <trkpt lat="44.71848" lon="1.60459">
        <ele>333.7</ele>
        <time>2010-01-01T00:00:00Z</time>
      </trkpt>
      <trkpt lat="44.7187" lon="1.60428">
        <ele>336.7</ele>
        <time>2010-01-01T00:00:00Z</time>
      </trkpt>
      <trkpt lat="44.71898" lon="1.60406">
        <ele>338.5</ele>
        <time>2010-01-01T00:00:00Z</time>
      </trkpt>
      <trkpt lat="44.71929" lon="1.60394">
        <ele>340.7</ele>
        <time>2010-01-01T00:00:00Z</time>
      </trkpt>
      <trkpt lat="44.71957" lon="1.60388">
        <ele>343.2</ele>
        <time>2010-01-01T00:00:00Z</time>
      </trkpt>
      <trkpt lat="44.71971" lon="1.60379">
        <ele>344.3</ele>
        <time>2010-01-01T00:00:00Z</time>
      </trkpt>
      <trkpt lat="44.71986" lon="1.6036">
        <ele>345</ele>
        <time>2010-01-01T00:00:00Z</time>
      </trkpt>
      <trkpt lat="44.72003" lon="1.60315">
        <ele>347.2</ele>
        <time>2010-01-01T00:00:00Z</time>
      </trkpt>
      <trkpt lat="44.72003" lon="1.60315">
        <ele>347.2</ele>
        <time>2010-01-01T00:00:00Z</time>
      </trkpt>
      <trkpt lat="44.72093" lon="1.60121">
        <ele>364.2</ele>
        <time>2010-01-01T00:00:00Z</time>
      </trkpt>
      <trkpt lat="44.72093" lon="1.60121">
        <ele>364.2</ele>
        <time>2010-01-01T00:00:00Z</time>
      </trkpt>
      <trkpt lat="44.72091" lon="1.60122">
        <ele>363.9</ele>
        <time>2010-01-01T00:00:00Z</time>
      </trkpt>
      <trkpt lat="44.72092" lon="1.60123">
        <ele>364</ele>
        <time>2010-01-01T00:00:00Z</time>
      </trkpt>
      <trkpt lat="44.72108" lon="1.60176">
        <ele>362.6</ele>
        <time>2010-01-01T00:00:00Z</time>
      </trkpt>
      <trkpt lat="44.72112" lon="1.60196">
        <ele>362.9</ele>
        <time>2010-01-01T00:00:00Z</time>
      </trkpt>
      <trkpt lat="44.72113" lon="1.60213">
        <ele>362.8</ele>
        <time>2010-01-01T00:00:00Z</time>
      </trkpt>
      <trkpt lat="44.72112" lon="1.60231">
        <ele>362.6</ele>
        <time>2010-01-01T00:00:00Z</time>
      </trkpt>
      <trkpt lat="44.7211" lon="1.6024">
        <ele>362.3</ele>
        <time>2010-01-01T00:00:00Z</time>
      </trkpt>
      <trkpt lat="44.72108" lon="1.6026">
        <ele>362</ele>
        <time>2010-01-01T00:00:00Z</time>
      </trkpt>
      <trkpt lat="44.72109" lon="1.60267">
        <ele>362.2</ele>
        <time>2010-01-01T00:00:00Z</time>
      </trkpt>
      <trkpt lat="44.72109" lon="1.60275">
        <ele>362.3</ele>
        <time>2010-01-01T00:00:00Z</time>
      </trkpt>
      <trkpt lat="44.72111" lon="1.60283">
        <ele>362.6</ele>
        <time>2010-01-01T00:00:00Z</time>
      </trkpt>
      <trkpt lat="44.72113" lon="1.60292">
        <ele>362.9</ele>
        <time>2010-01-01T00:00:00Z</time>
      </trkpt>
      <trkpt lat="44.72117" lon="1.603">
        <ele>363.4</ele>
        <time>2010-01-01T00:00:00Z</time>
      </trkpt>
      <trkpt lat="44.72121" lon="1.60306">
        <ele>363.9</ele>
        <time>2010-01-01T00:00:00Z</time>
      </trkpt>
      <trkpt lat="44.72126" lon="1.60313">
        <ele>364.5</ele>
        <time>2010-01-01T00:00:00Z</time>
      </trkpt>
      <trkpt lat="44.72131" lon="1.60317">
        <ele>365.1</ele>
        <time>2010-01-01T00:00:00Z</time>
      </trkpt>
      <trkpt lat="44.72134" lon="1.6031">
        <ele>365.4</ele>
        <time>2010-01-01T00:00:00Z</time>
      </trkpt>
      <trkpt lat="44.72134" lon="1.6031">
        <ele>365.4</ele>
        <time>2010-01-01T00:00:00Z</time>
      </trkpt>
      <trkpt lat="44.72131" lon="1.60317">
        <ele>365.1</ele>
        <time>2010-01-01T00:00:00Z</time>
      </trkpt>
      <trkpt lat="44.7214" lon="1.60323">
        <ele>366.1</ele>
        <time>2010-01-01T00:00:00Z</time>
      </trkpt>
      <trkpt lat="44.72148" lon="1.60329">
        <ele>367</ele>
        <time>2010-01-01T00:00:00Z</time>
      </trkpt>
      <trkpt lat="44.72173" lon="1.60347">
        <ele>368.7</ele>
        <time>2010-01-01T00:00:00Z</time>
      </trkpt>
      <trkpt lat="44.72191" lon="1.6036">
        <ele>368.6</ele>
        <time>2010-01-01T00:00:00Z</time>
      </trkpt>
      <trkpt lat="44.72202" lon="1.60369">
        <ele>368.4</ele>
        <time>2010-01-01T00:00:00Z</time>
      </trkpt>
      <trkpt lat="44.7221" lon="1.60377">
        <ele>368.2</ele>
        <time>2010-01-01T00:00:00Z</time>
      </trkpt>
      <trkpt lat="44.72221" lon="1.60387">
        <ele>367.9</ele>
        <time>2010-01-01T00:00:00Z</time>
      </trkpt>
      <trkpt lat="44.7223" lon="1.60391">
        <ele>367.9</ele>
        <time>2010-01-01T00:00:00Z</time>
      </trkpt>
      <trkpt lat="44.72238" lon="1.60393">
        <ele>367.8</ele>
        <time>2010-01-01T00:00:00Z</time>
      </trkpt>
      <trkpt lat="44.72247" lon="1.60394">
        <ele>367.8</ele>
        <time>2010-01-01T00:00:00Z</time>
      </trkpt>
      <trkpt lat="44.72254" lon="1.60394">
        <ele>367.5</ele>
        <time>2010-01-01T00:00:00Z</time>
      </trkpt>
      <trkpt lat="44.72272" lon="1.60392">
        <ele>366.1</ele>
        <time>2010-01-01T00:00:00Z</time>
      </trkpt>
      <trkpt lat="44.72297" lon="1.60388">
        <ele>364.3</ele>
        <time>2010-01-01T00:00:00Z</time>
      </trkpt>
      <trkpt lat="44.72312" lon="1.60386">
        <ele>363.2</ele>
        <time>2010-01-01T00:00:00Z</time>
      </trkpt>
      <trkpt lat="44.72328" lon="1.60382">
        <ele>362.3</ele>
        <time>2010-01-01T00:00:00Z</time>
      </trkpt>
      <trkpt lat="44.72345" lon="1.60378">
        <ele>360.7</ele>
        <time>2010-01-01T00:00:00Z</time>
      </trkpt>
      <trkpt lat="44.72358" lon="1.60374">
        <ele>359.3</ele>
        <time>2010-01-01T00:00:00Z</time>
      </trkpt>
      <trkpt lat="44.72371" lon="1.60371">
        <ele>357.9</ele>
        <time>2010-01-01T00:00:00Z</time>
      </trkpt>
      <trkpt lat="44.72385" lon="1.60368">
        <ele>356.3</ele>
        <time>2010-01-01T00:00:00Z</time>
      </trkpt>
      <trkpt lat="44.72393" lon="1.60367">
        <ele>355.3</ele>
        <time>2010-01-01T00:00:00Z</time>
      </trkpt>
      <trkpt lat="44.72398" lon="1.60368">
        <ele>354.6</ele>
        <time>2010-01-01T00:00:00Z</time>
      </trkpt>
      <trkpt lat="44.72402" lon="1.60372">
        <ele>353.7</ele>
        <time>2010-01-01T00:00:00Z</time>
      </trkpt>
      <trkpt lat="44.72403" lon="1.60376">
        <ele>353.2</ele>
        <time>2010-01-01T00:00:00Z</time>
      </trkpt>
      <trkpt lat="44.72404" lon="1.60384">
        <ele>352.4</ele>
        <time>2010-01-01T00:00:00Z</time>
      </trkpt>
      <trkpt lat="44.72404" lon="1.60393">
        <ele>351.7</ele>
        <time>2010-01-01T00:00:00Z</time>
      </trkpt>
      <trkpt lat="44.72402" lon="1.60402">
        <ele>351.2</ele>
        <time>2010-01-01T00:00:00Z</time>
      </trkpt>
      <trkpt lat="44.72393" lon="1.60434">
        <ele>350</ele>
        <time>2010-01-01T00:00:00Z</time>
      </trkpt>
      <trkpt lat="44.7239" lon="1.60451">
        <ele>349.2</ele>
        <time>2010-01-01T00:00:00Z</time>
      </trkpt>
      <trkpt lat="44.72389" lon="1.60464">
        <ele>348.4</ele>
        <time>2010-01-01T00:00:00Z</time>
      </trkpt>
      <trkpt lat="44.72389" lon="1.60473">
        <ele>347.8</ele>
        <time>2010-01-01T00:00:00Z</time>
      </trkpt>
      <trkpt lat="44.72391" lon="1.60483">
        <ele>347</ele>
        <time>2010-01-01T00:00:00Z</time>
      </trkpt>
      <trkpt lat="44.72394" lon="1.60491">
        <ele>346.2</ele>
        <time>2010-01-01T00:00:00Z</time>
      </trkpt>
      <trkpt lat="44.72407" lon="1.60511">
        <ele>344.4</ele>
        <time>2010-01-01T00:00:00Z</time>
      </trkpt>
      <trkpt lat="44.72423" lon="1.60532">
        <ele>342.8</ele>
        <time>2010-01-01T00:00:00Z</time>
      </trkpt>
      <trkpt lat="44.72438" lon="1.60551">
        <ele>341.8</ele>
        <time>2010-01-01T00:00:00Z</time>
      </trkpt>
      <trkpt lat="44.72442" lon="1.60555">
        <ele>341.6</ele>
        <time>2010-01-01T00:00:00Z</time>
      </trkpt>
      <trkpt lat="44.72442" lon="1.60555">
        <ele>341.6</ele>
        <time>2010-01-01T00:00:00Z</time>
      </trkpt>
      <trkpt lat="44.72445" lon="1.6056">
        <ele>341.4</ele>
        <time>2010-01-01T00:00:00Z</time>
      </trkpt>
      <trkpt lat="44.72451" lon="1.60542">
        <ele>341.1</ele>
        <time>2010-01-01T00:00:00Z</time>
      </trkpt>
      <trkpt lat="44.72459" lon="1.60519">
        <ele>340.6</ele>
        <time>2010-01-01T00:00:00Z</time>
      </trkpt>
      <trkpt lat="44.72471" lon="1.60486">
        <ele>339.7</ele>
        <time>2010-01-01T00:00:00Z</time>
      </trkpt>
      <trkpt lat="44.72482" lon="1.60455">
        <ele>339</ele>
        <time>2010-01-01T00:00:00Z</time>
      </trkpt>
      <trkpt lat="44.72489" lon="1.60432">
        <ele>338.4</ele>
        <time>2010-01-01T00:00:00Z</time>
      </trkpt>
      <trkpt lat="44.72495" lon="1.60414">
        <ele>337.7</ele>
        <time>2010-01-01T00:00:00Z</time>
      </trkpt>
      <trkpt lat="44.72499" lon="1.60401">
        <ele>337.3</ele>
        <time>2010-01-01T00:00:00Z</time>
      </trkpt>
      <trkpt lat="44.72503" lon="1.60383">
        <ele>337.1</ele>
        <time>2010-01-01T00:00:00Z</time>
      </trkpt>
      <trkpt lat="44.7251" lon="1.60346">
        <ele>336.9</ele>
        <time>2010-01-01T00:00:00Z</time>
      </trkpt>
      <trkpt lat="44.72516" lon="1.60324">
        <ele>337.3</ele>
        <time>2010-01-01T00:00:00Z</time>
      </trkpt>
      <trkpt lat="44.72522" lon="1.60305">
        <ele>338.4</ele>
        <time>2010-01-01T00:00:00Z</time>
      </trkpt>
      <trkpt lat="44.72529" lon="1.60286">
        <ele>339.4</ele>
        <time>2010-01-01T00:00:00Z</time>
      </trkpt>
      <trkpt lat="44.72536" lon="1.60269">
        <ele>340.1</ele>
        <time>2010-01-01T00:00:00Z</time>
      </trkpt>
      <trkpt lat="44.7254" lon="1.60258">
        <ele>340.5</ele>
        <time>2010-01-01T00:00:00Z</time>
      </trkpt>
      <trkpt lat="44.72544" lon="1.6025">
        <ele>340.7</ele>
        <time>2010-01-01T00:00:00Z</time>
      </trkpt>
      <trkpt lat="44.7255" lon="1.60245">
        <ele>340.1</ele>
        <time>2010-01-01T00:00:00Z</time>
      </trkpt>
      <trkpt lat="44.72556" lon="1.6024">
        <ele>339.5</ele>
        <time>2010-01-01T00:00:00Z</time>
      </trkpt>
      <trkpt lat="44.72564" lon="1.60235">
        <ele>338.6</ele>
        <time>2010-01-01T00:00:00Z</time>
      </trkpt>
      <trkpt lat="44.7257" lon="1.60231">
        <ele>337.9</ele>
        <time>2010-01-01T00:00:00Z</time>
      </trkpt>
      <trkpt lat="44.72577" lon="1.60224">
        <ele>337.1</ele>
        <time>2010-01-01T00:00:00Z</time>
      </trkpt>
      <trkpt lat="44.72583" lon="1.60214">
        <ele>336.5</ele>
        <time>2010-01-01T00:00:00Z</time>
      </trkpt>
      <trkpt lat="44.72586" lon="1.60203">
        <ele>336.2</ele>
        <time>2010-01-01T00:00:00Z</time>
      </trkpt>
      <trkpt lat="44.72591" lon="1.60185">
        <ele>335.8</ele>
        <time>2010-01-01T00:00:00Z</time>
      </trkpt>
      <trkpt lat="44.72595" lon="1.60173">
        <ele>335.5</ele>
        <time>2010-01-01T00:00:00Z</time>
      </trkpt>
      <trkpt lat="44.726" lon="1.6016">
        <ele>335.6</ele>
        <time>2010-01-01T00:00:00Z</time>
      </trkpt>
      <trkpt lat="44.72606" lon="1.6015">
        <ele>335.7</ele>
        <time>2010-01-01T00:00:00Z</time>
      </trkpt>
      <trkpt lat="44.72615" lon="1.60141">
        <ele>335.5</ele>
        <time>2010-01-01T00:00:00Z</time>
      </trkpt>
      <trkpt lat="44.72638" lon="1.60119">
        <ele>334.8</ele>
        <time>2010-01-01T00:00:00Z</time>
      </trkpt>
      <trkpt lat="44.72661" lon="1.60097">
        <ele>334.3</ele>
        <time>2010-01-01T00:00:00Z</time>
      </trkpt>
      <trkpt lat="44.72673" lon="1.60085">
        <ele>334.2</ele>
        <time>2010-01-01T00:00:00Z</time>
      </trkpt>
      <trkpt lat="44.72685" lon="1.60073">
        <ele>333.5</ele>
        <time>2010-01-01T00:00:00Z</time>
      </trkpt>
      <trkpt lat="44.72689" lon="1.60072">
        <ele>333.1</ele>
        <time>2010-01-01T00:00:00Z</time>
      </trkpt>
      <trkpt lat="44.72689" lon="1.60072">
        <ele>333.1</ele>
        <time>2010-01-01T00:00:00Z</time>
      </trkpt>
      <trkpt lat="44.72696" lon="1.60071">
        <ele>332.3</ele>
        <time>2010-01-01T00:00:00Z</time>
      </trkpt>
      <trkpt lat="44.72707" lon="1.6007">
        <ele>331.1</ele>
        <time>2010-01-01T00:00:00Z</time>
      </trkpt>
      <trkpt lat="44.72736" lon="1.60065">
        <ele>328</ele>
        <time>2010-01-01T00:00:00Z</time>
      </trkpt>
      <trkpt lat="44.72755" lon="1.60062">
        <ele>326</ele>
        <time>2010-01-01T00:00:00Z</time>
      </trkpt>
      <trkpt lat="44.72769" lon="1.60059">
        <ele>324.6</ele>
        <time>2010-01-01T00:00:00Z</time>
      </trkpt>
      <trkpt lat="44.72783" lon="1.60055">
        <ele>323.1</ele>
        <time>2010-01-01T00:00:00Z</time>
      </trkpt>
      <trkpt lat="44.72797" lon="1.60047">
        <ele>321.6</ele>
        <time>2010-01-01T00:00:00Z</time>
      </trkpt>
      <trkpt lat="44.72813" lon="1.60035">
        <ele>319.8</ele>
        <time>2010-01-01T00:00:00Z</time>
      </trkpt>
      <trkpt lat="44.72828" lon="1.60023">
        <ele>317.9</ele>
        <time>2010-01-01T00:00:00Z</time>
      </trkpt>
      <trkpt lat="44.72844" lon="1.60004">
        <ele>316</ele>
        <time>2010-01-01T00:00:00Z</time>
      </trkpt>
      <trkpt lat="44.72856" lon="1.5999">
        <ele>314.9</ele>
        <time>2010-01-01T00:00:00Z</time>
      </trkpt>
      <trkpt lat="44.72865" lon="1.59976">
        <ele>314.1</ele>
        <time>2010-01-01T00:00:00Z</time>
      </trkpt>
      <trkpt lat="44.72873" lon="1.59961">
        <ele>313.4</ele>
        <time>2010-01-01T00:00:00Z</time>
      </trkpt>
      <trkpt lat="44.72881" lon="1.59947">
        <ele>312.8</ele>
        <time>2010-01-01T00:00:00Z</time>
      </trkpt>
      <trkpt lat="44.72887" lon="1.59932">
        <ele>312.4</ele>
        <time>2010-01-01T00:00:00Z</time>
      </trkpt>
      <trkpt lat="44.72891" lon="1.59919">
        <ele>312.1</ele>
        <time>2010-01-01T00:00:00Z</time>
      </trkpt>
      <trkpt lat="44.72895" lon="1.59906">
        <ele>311.8</ele>
        <time>2010-01-01T00:00:00Z</time>
      </trkpt>
      <trkpt lat="44.72898" lon="1.5989">
        <ele>311.6</ele>
        <time>2010-01-01T00:00:00Z</time>
      </trkpt>
      <trkpt lat="44.72899" lon="1.59876">
        <ele>311.5</ele>
        <time>2010-01-01T00:00:00Z</time>
      </trkpt>
      <trkpt lat="44.72899" lon="1.59864">
        <ele>311.5</ele>
        <time>2010-01-01T00:00:00Z</time>
      </trkpt>
      <trkpt lat="44.72898" lon="1.59852">
        <ele>311.6</ele>
        <time>2010-01-01T00:00:00Z</time>
      </trkpt>
      <trkpt lat="44.72895" lon="1.59835">
        <ele>311.8</ele>
        <time>2010-01-01T00:00:00Z</time>
      </trkpt>
      <trkpt lat="44.72893" lon="1.59826">
        <ele>312.5</ele>
        <time>2010-01-01T00:00:00Z</time>
      </trkpt>
      <trkpt lat="44.72892" lon="1.59821">
        <ele>312.9</ele>
        <time>2010-01-01T00:00:00Z</time>
      </trkpt>
      <trkpt lat="44.72893" lon="1.59816">
        <ele>313.1</ele>
        <time>2010-01-01T00:00:00Z</time>
      </trkpt>
      <trkpt lat="44.72894" lon="1.59813">
        <ele>313.2</ele>
        <time>2010-01-01T00:00:00Z</time>
      </trkpt>
      <trkpt lat="44.72891" lon="1.59813">
        <ele>313.5</ele>
        <time>2010-01-01T00:00:00Z</time>
      </trkpt>
      <trkpt lat="44.72891" lon="1.59813">
        <ele>313.5</ele>
        <time>2010-01-01T00:00:00Z</time>
      </trkpt>
      <trkpt lat="44.72894" lon="1.59813">
        <ele>313.2</ele>
        <time>2010-01-01T00:00:00Z</time>
      </trkpt>
      <trkpt lat="44.72898" lon="1.59812">
        <ele>312.9</ele>
        <time>2010-01-01T00:00:00Z</time>
      </trkpt>
      <trkpt lat="44.72903" lon="1.5981">
        <ele>312.6</ele>
        <time>2010-01-01T00:00:00Z</time>
      </trkpt>
      <trkpt lat="44.72931" lon="1.59803">
        <ele>310.6</ele>
        <time>2010-01-01T00:00:00Z</time>
      </trkpt>
      <trkpt lat="44.72943" lon="1.598">
        <ele>309.7</ele>
        <time>2010-01-01T00:00:00Z</time>
      </trkpt>
      <trkpt lat="44.72955" lon="1.59796">
        <ele>308.9</ele>
        <time>2010-01-01T00:00:00Z</time>
      </trkpt>
      <trkpt lat="44.72965" lon="1.59792">
        <ele>308.1</ele>
        <time>2010-01-01T00:00:00Z</time>
      </trkpt>
      <trkpt lat="44.72973" lon="1.59787">
        <ele>307.6</ele>
        <time>2010-01-01T00:00:00Z</time>
      </trkpt>
      <trkpt lat="44.72979" lon="1.59777">
        <ele>307.4</ele>
        <time>2010-01-01T00:00:00Z</time>
      </trkpt>
      <trkpt lat="44.72989" lon="1.59755">
        <ele>307</ele>
        <time>2010-01-01T00:00:00Z</time>
      </trkpt>
      <trkpt lat="44.73" lon="1.59727">
        <ele>306.6</ele>
        <time>2010-01-01T00:00:00Z</time>
      </trkpt>
      <trkpt lat="44.73011" lon="1.59701">
        <ele>306.5</ele>
        <time>2010-01-01T00:00:00Z</time>
      </trkpt>
      <trkpt lat="44.73023" lon="1.59672">
        <ele>306</ele>
        <time>2010-01-01T00:00:00Z</time>
      </trkpt>
      <trkpt lat="44.73039" lon="1.59632">
        <ele>305.2</ele>
        <time>2010-01-01T00:00:00Z</time>
      </trkpt>
      <trkpt lat="44.7305" lon="1.59606">
        <ele>304.4</ele>
        <time>2010-01-01T00:00:00Z</time>
      </trkpt>
      <trkpt lat="44.73056" lon="1.5959">
        <ele>303.9</ele>
        <time>2010-01-01T00:00:00Z</time>
      </trkpt>
      <trkpt lat="44.73062" lon="1.59581">
        <ele>303.3</ele>
        <time>2010-01-01T00:00:00Z</time>
      </trkpt>
      <trkpt lat="44.73066" lon="1.59577">
        <ele>302.8</ele>
        <time>2010-01-01T00:00:00Z</time>
      </trkpt>
      <trkpt lat="44.73069" lon="1.59575">
        <ele>302.5</ele>
        <time>2010-01-01T00:00:00Z</time>
      </trkpt>
      <trkpt lat="44.73071" lon="1.59573">
        <ele>302.3</ele>
        <time>2010-01-01T00:00:00Z</time>
      </trkpt>
      <trkpt lat="44.73074" lon="1.59572">
        <ele>302</ele>
        <time>2010-01-01T00:00:00Z</time>
      </trkpt>
      <trkpt lat="44.73077" lon="1.59571">
        <ele>301.7</ele>
        <time>2010-01-01T00:00:00Z</time>
      </trkpt>
      <trkpt lat="44.73079" lon="1.59571">
        <ele>301.4</ele>
        <time>2010-01-01T00:00:00Z</time>
      </trkpt>
      <trkpt lat="44.73082" lon="1.5957">
        <ele>301.1</ele>
        <time>2010-01-01T00:00:00Z</time>
      </trkpt>
      <trkpt lat="44.73086" lon="1.5957">
        <ele>301.1</ele>
        <time>2010-01-01T00:00:00Z</time>
      </trkpt>
      <trkpt lat="44.73089" lon="1.5957">
        <ele>301.3</ele>
        <time>2010-01-01T00:00:00Z</time>
      </trkpt>
      <trkpt lat="44.73092" lon="1.59571">
        <ele>301.5</ele>
        <time>2010-01-01T00:00:00Z</time>
      </trkpt>
      <trkpt lat="44.73107" lon="1.59576">
        <ele>302.3</ele>
        <time>2010-01-01T00:00:00Z</time>
      </trkpt>
      <trkpt lat="44.73113" lon="1.59577">
        <ele>302.7</ele>
        <time>2010-01-01T00:00:00Z</time>
      </trkpt>
      <trkpt lat="44.73116" lon="1.59578">
        <ele>302.9</ele>
        <time>2010-01-01T00:00:00Z</time>
      </trkpt>
      <trkpt lat="44.7312" lon="1.59578">
        <ele>303.1</ele>
        <time>2010-01-01T00:00:00Z</time>
      </trkpt>
      <trkpt lat="44.73122" lon="1.59577">
        <ele>303.2</ele>
        <time>2010-01-01T00:00:00Z</time>
      </trkpt>
      <trkpt lat="44.73123" lon="1.59577">
        <ele>303.2</ele>
        <time>2010-01-01T00:00:00Z</time>
      </trkpt>
      <trkpt lat="44.73125" lon="1.59576">
        <ele>303.3</ele>
        <time>2010-01-01T00:00:00Z</time>
      </trkpt>
      <trkpt lat="44.73127" lon="1.59574">
        <ele>303.4</ele>
        <time>2010-01-01T00:00:00Z</time>
      </trkpt>
      <trkpt lat="44.73129" lon="1.59572">
        <ele>303.4</ele>
        <time>2010-01-01T00:00:00Z</time>
      </trkpt>
      <trkpt lat="44.73131" lon="1.5957">
        <ele>303.5</ele>
        <time>2010-01-01T00:00:00Z</time>
      </trkpt>
      <trkpt lat="44.73135" lon="1.59563">
        <ele>303.5</ele>
        <time>2010-01-01T00:00:00Z</time>
      </trkpt>
      <trkpt lat="44.73142" lon="1.59544">
        <ele>303.2</ele>
        <time>2010-01-01T00:00:00Z</time>
      </trkpt>
      <trkpt lat="44.73147" lon="1.5953">
        <ele>302.9</ele>
        <time>2010-01-01T00:00:00Z</time>
      </trkpt>
      <trkpt lat="44.73153" lon="1.59518">
        <ele>302.6</ele>
        <time>2010-01-01T00:00:00Z</time>
      </trkpt>
      <trkpt lat="44.73162" lon="1.59504">
        <ele>302.1</ele>
        <time>2010-01-01T00:00:00Z</time>
      </trkpt>
      <trkpt lat="44.73173" lon="1.59492">
        <ele>302.8</ele>
        <time>2010-01-01T00:00:00Z</time>
      </trkpt>
      <trkpt lat="44.73183" lon="1.59475">
        <ele>303.8</ele>
        <time>2010-01-01T00:00:00Z</time>
      </trkpt>
      <trkpt lat="44.73201" lon="1.59447">
        <ele>305.3</ele>
        <time>2010-01-01T00:00:00Z</time>
      </trkpt>
      <trkpt lat="44.73226" lon="1.59403">
        <ele>305.7</ele>
        <time>2010-01-01T00:00:00Z</time>
      </trkpt>
      <trkpt lat="44.73248" lon="1.5937">
        <ele>304.4</ele>
        <time>2010-01-01T00:00:00Z</time>
      </trkpt>
      <trkpt lat="44.7326" lon="1.59352">
        <ele>304.6</ele>
        <time>2010-01-01T00:00:00Z</time>
      </trkpt>
      <trkpt lat="44.73271" lon="1.59337">
        <ele>305.1</ele>
        <time>2010-01-01T00:00:00Z</time>
      </trkpt>
      <trkpt lat="44.73291" lon="1.59314">
        <ele>306.3</ele>
        <time>2010-01-01T00:00:00Z</time>
      </trkpt>
      <trkpt lat="44.73306" lon="1.59298">
        <ele>307</ele>
        <time>2010-01-01T00:00:00Z</time>
      </trkpt>
      <trkpt lat="44.73328" lon="1.59277">
        <ele>307.8</ele>
        <time>2010-01-01T00:00:00Z</time>
      </trkpt>
      <trkpt lat="44.73355" lon="1.59251">
        <ele>309</ele>
        <time>2010-01-01T00:00:00Z</time>
      </trkpt>
      <trkpt lat="44.73394" lon="1.59207">
        <ele>311.3</ele>
        <time>2010-01-01T00:00:00Z</time>
      </trkpt>
      <trkpt lat="44.73435" lon="1.59158">
        <ele>312.7</ele>
        <time>2010-01-01T00:00:00Z</time>
      </trkpt>
      <trkpt lat="44.73455" lon="1.59136">
        <ele>313.7</ele>
        <time>2010-01-01T00:00:00Z</time>
      </trkpt>
      <trkpt lat="44.73462" lon="1.5913">
        <ele>314.3</ele>
        <time>2010-01-01T00:00:00Z</time>
      </trkpt>
      <trkpt lat="44.73466" lon="1.59126">
        <ele>314.7</ele>
        <time>2010-01-01T00:00:00Z</time>
      </trkpt>
      <trkpt lat="44.73472" lon="1.59117">
        <ele>315</ele>
        <time>2010-01-01T00:00:00Z</time>
      </trkpt>
      <trkpt lat="44.73477" lon="1.59109">
        <ele>315.3</ele>
        <time>2010-01-01T00:00:00Z</time>
      </trkpt>
      <trkpt lat="44.73485" lon="1.59095">
        <ele>315.8</ele>
        <time>2010-01-01T00:00:00Z</time>
      </trkpt>
      <trkpt lat="44.73493" lon="1.59076">
        <ele>315.9</ele>
        <time>2010-01-01T00:00:00Z</time>
      </trkpt>
      <trkpt lat="44.735" lon="1.5906">
        <ele>316</ele>
        <time>2010-01-01T00:00:00Z</time>
      </trkpt>
      <trkpt lat="44.73511" lon="1.59037">
        <ele>315.5</ele>
        <time>2010-01-01T00:00:00Z</time>
      </trkpt>
      <trkpt lat="44.73516" lon="1.59025">
        <ele>315.2</ele>
        <time>2010-01-01T00:00:00Z</time>
      </trkpt>
      <trkpt lat="44.7353" lon="1.59002">
        <ele>315.5</ele>
        <time>2010-01-01T00:00:00Z</time>
      </trkpt>
      <trkpt lat="44.73538" lon="1.5899">
        <ele>315.4</ele>
        <time>2010-01-01T00:00:00Z</time>
      </trkpt>
      <trkpt lat="44.73565" lon="1.58963">
        <ele>317</ele>
        <time>2010-01-01T00:00:00Z</time>
      </trkpt>
      <trkpt lat="44.73584" lon="1.58945">
        <ele>318.4</ele>
        <time>2010-01-01T00:00:00Z</time>
      </trkpt>
      <trkpt lat="44.73613" lon="1.58916">
        <ele>319.1</ele>
        <time>2010-01-01T00:00:00Z</time>
      </trkpt>
      <trkpt lat="44.73628" lon="1.58901">
        <ele>319.4</ele>
        <time>2010-01-01T00:00:00Z</time>
      </trkpt>
      <trkpt lat="44.73645" lon="1.5888">
        <ele>319.5</ele>
        <time>2010-01-01T00:00:00Z</time>
      </trkpt>
      <trkpt lat="44.73666" lon="1.58854">
        <ele>319.7</ele>
        <time>2010-01-01T00:00:00Z</time>
      </trkpt>
      <trkpt lat="44.73684" lon="1.58834">
        <ele>318.9</ele>
        <time>2010-01-01T00:00:00Z</time>
      </trkpt>
      <trkpt lat="44.73695" lon="1.58824">
        <ele>318.6</ele>
        <time>2010-01-01T00:00:00Z</time>
      </trkpt>
      <trkpt lat="44.73706" lon="1.58816">
        <ele>318.6</ele>
        <time>2010-01-01T00:00:00Z</time>
      </trkpt>
      <trkpt lat="44.73726" lon="1.58804">
        <ele>319</ele>
        <time>2010-01-01T00:00:00Z</time>
      </trkpt>
      <trkpt lat="44.73756" lon="1.58793">
        <ele>319.7</ele>
        <time>2010-01-01T00:00:00Z</time>
      </trkpt>
      <trkpt lat="44.73779" lon="1.58783">
        <ele>318.2</ele>
        <time>2010-01-01T00:00:00Z</time>
      </trkpt>
      <trkpt lat="44.738" lon="1.58774">
        <ele>317.1</ele>
        <time>2010-01-01T00:00:00Z</time>
      </trkpt>
      <trkpt lat="44.73819" lon="1.58764">
        <ele>316.3</ele>
        <time>2010-01-01T00:00:00Z</time>
      </trkpt>
      <trkpt lat="44.73837" lon="1.58753">
        <ele>315.7</ele>
        <time>2010-01-01T00:00:00Z</time>
      </trkpt>
      <trkpt lat="44.73849" lon="1.58746">
        <ele>314.7</ele>
        <time>2010-01-01T00:00:00Z</time>
      </trkpt>
      <trkpt lat="44.73856" lon="1.58742">
        <ele>314</ele>
        <time>2010-01-01T00:00:00Z</time>
      </trkpt>
      <trkpt lat="44.73862" lon="1.58741">
        <ele>313.5</ele>
        <time>2010-01-01T00:00:00Z</time>
      </trkpt>
      <trkpt lat="44.7387" lon="1.5874">
        <ele>312.9</ele>
        <time>2010-01-01T00:00:00Z</time>
      </trkpt>
      <trkpt lat="44.73886" lon="1.58744">
        <ele>312</ele>
        <time>2010-01-01T00:00:00Z</time>
      </trkpt>
      <trkpt lat="44.73891" lon="1.58744">
        <ele>311.6</ele>
        <time>2010-01-01T00:00:00Z</time>
      </trkpt>
      <trkpt lat="44.7391" lon="1.58747">
        <ele>310.4</ele>
        <time>2010-01-01T00:00:00Z</time>
      </trkpt>
      <trkpt lat="44.7393" lon="1.58751">
        <ele>308.5</ele>
        <time>2010-01-01T00:00:00Z</time>
      </trkpt>
      <trkpt lat="44.73941" lon="1.58753">
        <ele>307.3</ele>
        <time>2010-01-01T00:00:00Z</time>
      </trkpt>
      <trkpt lat="44.73945" lon="1.58753">
        <ele>306.9</ele>
        <time>2010-01-01T00:00:00Z</time>
      </trkpt>
      <trkpt lat="44.7395" lon="1.58752">
        <ele>306.3</ele>
        <time>2010-01-01T00:00:00Z</time>
      </trkpt>
      <trkpt lat="44.73954" lon="1.58751">
        <ele>305.9</ele>
        <time>2010-01-01T00:00:00Z</time>
      </trkpt>
      <trkpt lat="44.73957" lon="1.5875">
        <ele>305.6</ele>
        <time>2010-01-01T00:00:00Z</time>
      </trkpt>
      <trkpt lat="44.73962" lon="1.58748">
        <ele>305.1</ele>
        <time>2010-01-01T00:00:00Z</time>
      </trkpt>
      <trkpt lat="44.73969" lon="1.58744">
        <ele>304.3</ele>
        <time>2010-01-01T00:00:00Z</time>
      </trkpt>
      <trkpt lat="44.73985" lon="1.58733">
        <ele>302.7</ele>
        <time>2010-01-01T00:00:00Z</time>
      </trkpt>
      <trkpt lat="44.74003" lon="1.58719">
        <ele>301.1</ele>
        <time>2010-01-01T00:00:00Z</time>
      </trkpt>
      <trkpt lat="44.74019" lon="1.58709">
        <ele>299.8</ele>
        <time>2010-01-01T00:00:00Z</time>
      </trkpt>
      <trkpt lat="44.74026" lon="1.58704">
        <ele>299.2</ele>
        <time>2010-01-01T00:00:00Z</time>
      </trkpt>
      <trkpt lat="44.74032" lon="1.58702">
        <ele>298.7</ele>
        <time>2010-01-01T00:00:00Z</time>
      </trkpt>
      <trkpt lat="44.74035" lon="1.58701">
        <ele>298.5</ele>
        <time>2010-01-01T00:00:00Z</time>
      </trkpt>
      <trkpt lat="44.74042" lon="1.587">
        <ele>297.9</ele>
        <time>2010-01-01T00:00:00Z</time>
      </trkpt>
      <trkpt lat="44.74046" lon="1.58701">
        <ele>297.5</ele>
        <time>2010-01-01T00:00:00Z</time>
      </trkpt>
      <trkpt lat="44.74052" lon="1.58702">
        <ele>296.9</ele>
        <time>2010-01-01T00:00:00Z</time>
      </trkpt>
      <trkpt lat="44.74059" lon="1.58704">
        <ele>296.3</ele>
        <time>2010-01-01T00:00:00Z</time>
      </trkpt>
      <trkpt lat="44.74071" lon="1.58707">
        <ele>295.1</ele>
        <time>2010-01-01T00:00:00Z</time>
      </trkpt>
      <trkpt lat="44.74085" lon="1.58712">
        <ele>293.9</ele>
        <time>2010-01-01T00:00:00Z</time>
      </trkpt>
      <trkpt lat="44.74108" lon="1.58719">
        <ele>293.4</ele>
        <time>2010-01-01T00:00:00Z</time>
      </trkpt>
      <trkpt lat="44.74128" lon="1.58724">
        <ele>293.1</ele>
        <time>2010-01-01T00:00:00Z</time>
      </trkpt>
      <trkpt lat="44.74149" lon="1.5873">
        <ele>292.9</ele>
        <time>2010-01-01T00:00:00Z</time>
      </trkpt>
      <trkpt lat="44.74162" lon="1.58733">
        <ele>292.8</ele>
        <time>2010-01-01T00:00:00Z</time>
      </trkpt>
      <trkpt lat="44.74177" lon="1.58747">
        <ele>293.7</ele>
        <time>2010-01-01T00:00:00Z</time>
      </trkpt>
      <trkpt lat="44.74194" lon="1.58761">
        <ele>294.7</ele>
        <time>2010-01-01T00:00:00Z</time>
      </trkpt>
      <trkpt lat="44.74212" lon="1.58773">
        <ele>295.6</ele>
        <time>2010-01-01T00:00:00Z</time>
      </trkpt>
      <trkpt lat="44.74242" lon="1.58792">
        <ele>297</ele>
        <time>2010-01-01T00:00:00Z</time>
      </trkpt>
      <trkpt lat="44.74284" lon="1.58818">
        <ele>301</ele>
        <time>2010-01-01T00:00:00Z</time>
      </trkpt>
      <trkpt lat="44.74316" lon="1.58836">
        <ele>304.5</ele>
        <time>2010-01-01T00:00:00Z</time>
      </trkpt>
      <trkpt lat="44.74344" lon="1.58851">
        <ele>306.8</ele>
        <time>2010-01-01T00:00:00Z</time>
      </trkpt>
      <trkpt lat="44.74374" lon="1.58867">
        <ele>309.1</ele>
        <time>2010-01-01T00:00:00Z</time>
      </trkpt>
      <trkpt lat="44.74391" lon="1.58876">
        <ele>310.3</ele>
        <time>2010-01-01T00:00:00Z</time>
      </trkpt>
      <trkpt lat="44.74399" lon="1.5888">
        <ele>311</ele>
        <time>2010-01-01T00:00:00Z</time>
      </trkpt>
      <trkpt lat="44.74422" lon="1.58888">
        <ele>312.7</ele>
        <time>2010-01-01T00:00:00Z</time>
      </trkpt>
      <trkpt lat="44.74451" lon="1.58898">
        <ele>313.7</ele>
        <time>2010-01-01T00:00:00Z</time>
      </trkpt>
      <trkpt lat="44.74473" lon="1.58905">
        <ele>314.7</ele>
        <time>2010-01-01T00:00:00Z</time>
      </trkpt>
      <trkpt lat="44.74477" lon="1.58906">
        <ele>314.9</ele>
        <time>2010-01-01T00:00:00Z</time>
      </trkpt>
      <trkpt lat="44.7449" lon="1.5891">
        <ele>315.6</ele>
        <time>2010-01-01T00:00:00Z</time>
      </trkpt>
      <trkpt lat="44.74521" lon="1.58918">
        <ele>315.4</ele>
        <time>2010-01-01T00:00:00Z</time>
      </trkpt>
      <trkpt lat="44.74533" lon="1.58921">
        <ele>314.8</ele>
        <time>2010-01-01T00:00:00Z</time>
      </trkpt>
      <trkpt lat="44.74543" lon="1.58922">
        <ele>314.5</ele>
        <time>2010-01-01T00:00:00Z</time>
      </trkpt>
      <trkpt lat="44.74564" lon="1.58924">
        <ele>313.8</ele>
        <time>2010-01-01T00:00:00Z</time>
      </trkpt>
      <trkpt lat="44.7457" lon="1.58925">
        <ele>313.6</ele>
        <time>2010-01-01T00:00:00Z</time>
      </trkpt>
      <trkpt lat="44.7458" lon="1.58928">
        <ele>313.1</ele>
        <time>2010-01-01T00:00:00Z</time>
      </trkpt>
      <trkpt lat="44.7459" lon="1.58931">
        <ele>313</ele>
        <time>2010-01-01T00:00:00Z</time>
      </trkpt>
      <trkpt lat="44.74599" lon="1.58936">
        <ele>313</ele>
        <time>2010-01-01T00:00:00Z</time>
      </trkpt>
      <trkpt lat="44.74608" lon="1.5894">
        <ele>313.1</ele>
        <time>2010-01-01T00:00:00Z</time>
      </trkpt>
      <trkpt lat="44.74612" lon="1.58944">
        <ele>313.1</ele>
        <time>2010-01-01T00:00:00Z</time>
      </trkpt>
      <trkpt lat="44.74621" lon="1.5896">
        <ele>312.7</ele>
        <time>2010-01-01T00:00:00Z</time>
      </trkpt>
      <trkpt lat="44.74635" lon="1.58984">
        <ele>312.6</ele>
        <time>2010-01-01T00:00:00Z</time>
      </trkpt>
      <trkpt lat="44.74641" lon="1.58997">
        <ele>312.6</ele>
        <time>2010-01-01T00:00:00Z</time>
      </trkpt>
      <trkpt lat="44.74646" lon="1.59009">
        <ele>312.8</ele>
        <time>2010-01-01T00:00:00Z</time>
      </trkpt>
      <trkpt lat="44.74656" lon="1.59034">
        <ele>313.3</ele>
        <time>2010-01-01T00:00:00Z</time>
      </trkpt>
      <trkpt lat="44.74662" lon="1.5905">
        <ele>313.8</ele>
        <time>2010-01-01T00:00:00Z</time>
      </trkpt>
      <trkpt lat="44.74672" lon="1.59069">
        <ele>314.5</ele>
        <time>2010-01-01T00:00:00Z</time>
      </trkpt>
      <trkpt lat="44.74679" lon="1.59079">
        <ele>314.8</ele>
        <time>2010-01-01T00:00:00Z</time>
      </trkpt>
      <trkpt lat="44.74685" lon="1.5909">
        <ele>315.2</ele>
        <time>2010-01-01T00:00:00Z</time>
      </trkpt>
      <trkpt lat="44.74696" lon="1.59109">
        <ele>316.2</ele>
        <time>2010-01-01T00:00:00Z</time>
      </trkpt>
      <trkpt lat="44.74707" lon="1.5913">
        <ele>317.3</ele>
        <time>2010-01-01T00:00:00Z</time>
      </trkpt>
      <trkpt lat="44.74712" lon="1.59142">
        <ele>317.8</ele>
        <time>2010-01-01T00:00:00Z</time>
      </trkpt>
      <trkpt lat="44.74715" lon="1.59149">
        <ele>318.1</ele>
        <time>2010-01-01T00:00:00Z</time>
      </trkpt>
      <trkpt lat="44.7472" lon="1.59156">
        <ele>318.6</ele>
        <time>2010-01-01T00:00:00Z</time>
      </trkpt>
      <trkpt lat="44.74728" lon="1.59167">
        <ele>319.4</ele>
        <time>2010-01-01T00:00:00Z</time>
      </trkpt>
      <trkpt lat="44.74736" lon="1.59174">
        <ele>319.9</ele>
        <time>2010-01-01T00:00:00Z</time>
      </trkpt>
      <trkpt lat="44.74746" lon="1.59184">
        <ele>320.5</ele>
        <time>2010-01-01T00:00:00Z</time>
      </trkpt>
      <trkpt lat="44.74752" lon="1.59191">
        <ele>320.6</ele>
        <time>2010-01-01T00:00:00Z</time>
      </trkpt>
      <trkpt lat="44.74753" lon="1.59193">
        <ele>320.6</ele>
        <time>2010-01-01T00:00:00Z</time>
      </trkpt>
      <trkpt lat="44.74759" lon="1.59203">
        <ele>320.2</ele>
        <time>2010-01-01T00:00:00Z</time>
      </trkpt>
      <trkpt lat="44.74767" lon="1.5921">
        <ele>319.9</ele>
        <time>2010-01-01T00:00:00Z</time>
      </trkpt>
      <trkpt lat="44.74788" lon="1.59231">
        <ele>319.1</ele>
        <time>2010-01-01T00:00:00Z</time>
      </trkpt>
      <trkpt lat="44.74804" lon="1.59245">
        <ele>318.7</ele>
        <time>2010-01-01T00:00:00Z</time>
      </trkpt>
      <trkpt lat="44.74825" lon="1.59257">
        <ele>317.5</ele>
        <time>2010-01-01T00:00:00Z</time>
      </trkpt>
      <trkpt lat="44.74844" lon="1.59272">
        <ele>315.1</ele>
        <time>2010-01-01T00:00:00Z</time>
      </trkpt>
      <trkpt lat="44.74854" lon="1.59278">
        <ele>314</ele>
        <time>2010-01-01T00:00:00Z</time>
      </trkpt>
      <trkpt lat="44.74871" lon="1.59285">
        <ele>312.6</ele>
        <time>2010-01-01T00:00:00Z</time>
      </trkpt>
      <trkpt lat="44.74882" lon="1.59291">
        <ele>311.8</ele>
        <time>2010-01-01T00:00:00Z</time>
      </trkpt>
      <trkpt lat="44.74894" lon="1.59296">
        <ele>311.1</ele>
        <time>2010-01-01T00:00:00Z</time>
      </trkpt>
      <trkpt lat="44.74914" lon="1.59309">
        <ele>309.9</ele>
        <time>2010-01-01T00:00:00Z</time>
      </trkpt>
      <trkpt lat="44.74928" lon="1.59314">
        <ele>309</ele>
        <time>2010-01-01T00:00:00Z</time>
      </trkpt>
      <trkpt lat="44.74946" lon="1.59318">
        <ele>307.8</ele>
        <time>2010-01-01T00:00:00Z</time>
      </trkpt>
      <trkpt lat="44.74992" lon="1.59336">
        <ele>304.3</ele>
        <time>2010-01-01T00:00:00Z</time>
      </trkpt>
      <trkpt lat="44.75031" lon="1.5935">
        <ele>299.7</ele>
        <time>2010-01-01T00:00:00Z</time>
      </trkpt>
      <trkpt lat="44.75047" lon="1.59358">
        <ele>297.5</ele>
        <time>2010-01-01T00:00:00Z</time>
      </trkpt>
      <trkpt lat="44.75047" lon="1.59358">
        <ele>297.5</ele>
        <time>2010-01-01T00:00:00Z</time>
      </trkpt>
      <trkpt lat="44.7505" lon="1.5936">
        <ele>297.1</ele>
        <time>2010-01-01T00:00:00Z</time>
      </trkpt>
      <trkpt lat="44.75054" lon="1.59367">
        <ele>296.1</ele>
        <time>2010-01-01T00:00:00Z</time>
      </trkpt>
      <trkpt lat="44.75059" lon="1.59382">
        <ele>294.4</ele>
        <time>2010-01-01T00:00:00Z</time>
      </trkpt>
      <trkpt lat="44.75065" lon="1.59404">
        <ele>292</ele>
        <time>2010-01-01T00:00:00Z</time>
      </trkpt>
      <trkpt lat="44.75068" lon="1.5941">
        <ele>291.2</ele>
        <time>2010-01-01T00:00:00Z</time>
      </trkpt>
      <trkpt lat="44.75077" lon="1.59424">
        <ele>289.1</ele>
        <time>2010-01-01T00:00:00Z</time>
      </trkpt>
      <trkpt lat="44.75111" lon="1.59463">
        <ele>282.2</ele>
        <time>2010-01-01T00:00:00Z</time>
      </trkpt>
      <trkpt lat="44.75133" lon="1.59494">
        <ele>277.9</ele>
        <time>2010-01-01T00:00:00Z</time>
      </trkpt>
      <trkpt lat="44.75147" lon="1.59518">
        <ele>275.3</ele>
        <time>2010-01-01T00:00:00Z</time>
      </trkpt>
      <trkpt lat="44.75159" lon="1.59546">
        <ele>273</ele>
        <time>2010-01-01T00:00:00Z</time>
      </trkpt>
      <trkpt lat="44.75164" lon="1.59563">
        <ele>271.9</ele>
        <time>2010-01-01T00:00:00Z</time>
      </trkpt>
      <trkpt lat="44.75172" lon="1.59573">
        <ele>271.1</ele>
        <time>2010-01-01T00:00:00Z</time>
      </trkpt>
      <trkpt lat="44.75189" lon="1.59587">
        <ele>269.2</ele>
        <time>2010-01-01T00:00:00Z</time>
      </trkpt>
      <trkpt lat="44.75212" lon="1.59606">
        <ele>265.1</ele>
        <time>2010-01-01T00:00:00Z</time>
      </trkpt>
      <trkpt lat="44.75255" lon="1.59654">
        <ele>258.7</ele>
        <time>2010-01-01T00:00:00Z</time>
      </trkpt>
      <trkpt lat="44.75275" lon="1.5968">
        <ele>255.1</ele>
        <time>2010-01-01T00:00:00Z</time>
      </trkpt>
      <trkpt lat="44.75294" lon="1.59716">
        <ele>248.6</ele>
        <time>2010-01-01T00:00:00Z</time>
      </trkpt>
      <trkpt lat="44.75317" lon="1.59769">
        <ele>240.7</ele>
        <time>2010-01-01T00:00:00Z</time>
      </trkpt>
      <trkpt lat="44.75332" lon="1.59806">
        <ele>236.4</ele>
        <time>2010-01-01T00:00:00Z</time>
      </trkpt>
      <trkpt lat="44.7534" lon="1.59829">
        <ele>233</ele>
        <time>2010-01-01T00:00:00Z</time>
      </trkpt>
      <trkpt lat="44.75343" lon="1.59853">
        <ele>230.2</ele>
        <time>2010-01-01T00:00:00Z</time>
      </trkpt>
      <trkpt lat="44.75347" lon="1.59881">
        <ele>227.3</ele>
        <time>2010-01-01T00:00:00Z</time>
      </trkpt>
      <trkpt lat="44.75351" lon="1.59891">
        <ele>226.5</ele>
        <time>2010-01-01T00:00:00Z</time>
      </trkpt>
      <trkpt lat="44.75353" lon="1.59895">
        <ele>226.2</ele>
        <time>2010-01-01T00:00:00Z</time>
      </trkpt>
      <trkpt lat="44.75359" lon="1.59903">
        <ele>225.9</ele>
        <time>2010-01-01T00:00:00Z</time>
      </trkpt>
      <trkpt lat="44.75369" lon="1.59915">
        <ele>225.6</ele>
        <time>2010-01-01T00:00:00Z</time>
      </trkpt>
      <trkpt lat="44.75377" lon="1.59924">
        <ele>225.3</ele>
        <time>2010-01-01T00:00:00Z</time>
      </trkpt>
      <trkpt lat="44.75387" lon="1.59951">
        <ele>223.2</ele>
        <time>2010-01-01T00:00:00Z</time>
      </trkpt>
      <trkpt lat="44.75392" lon="1.59966">
        <ele>222</ele>
        <time>2010-01-01T00:00:00Z</time>
      </trkpt>
      <trkpt lat="44.75413" lon="1.60018">
        <ele>218.4</ele>
        <time>2010-01-01T00:00:00Z</time>
      </trkpt>
      <trkpt lat="44.75436" lon="1.60067">
        <ele>215.4</ele>
        <time>2010-01-01T00:00:00Z</time>
      </trkpt>
      <trkpt lat="44.75461" lon="1.60105">
        <ele>212.9</ele>
        <time>2010-01-01T00:00:00Z</time>
      </trkpt>
      <trkpt lat="44.75468" lon="1.6012">
        <ele>211.3</ele>
        <time>2010-01-01T00:00:00Z</time>
      </trkpt>
      <trkpt lat="44.7548" lon="1.60145">
        <ele>208.2</ele>
        <time>2010-01-01T00:00:00Z</time>
      </trkpt>
      <trkpt lat="44.75483" lon="1.60149">
        <ele>207.6</ele>
        <time>2010-01-01T00:00:00Z</time>
      </trkpt>
      <trkpt lat="44.75505" lon="1.60173">
        <ele>205.5</ele>
        <time>2010-01-01T00:00:00Z</time>
      </trkpt>
      <trkpt lat="44.75539" lon="1.60213">
        <ele>206.2</ele>
        <time>2010-01-01T00:00:00Z</time>
      </trkpt>
      <trkpt lat="44.75552" lon="1.60231">
        <ele>204.7</ele>
        <time>2010-01-01T00:00:00Z</time>
      </trkpt>
      <trkpt lat="44.75554" lon="1.60237">
        <ele>203.9</ele>
        <time>2010-01-01T00:00:00Z</time>
      </trkpt>
      <trkpt lat="44.75554" lon="1.60245">
        <ele>202.7</ele>
        <time>2010-01-01T00:00:00Z</time>
      </trkpt>
      <trkpt lat="44.75553" lon="1.60253">
        <ele>202</ele>
        <time>2010-01-01T00:00:00Z</time>
      </trkpt>
      <trkpt lat="44.75549" lon="1.60266">
        <ele>202.4</ele>
        <time>2010-01-01T00:00:00Z</time>
      </trkpt>
      <trkpt lat="44.75538" lon="1.60281">
        <ele>203.6</ele>
        <time>2010-01-01T00:00:00Z</time>
      </trkpt>
      <trkpt lat="44.75527" lon="1.60291">
        <ele>205.2</ele>
        <time>2010-01-01T00:00:00Z</time>
      </trkpt>
      <trkpt lat="44.75522" lon="1.60298">
        <ele>206.3</ele>
        <time>2010-01-01T00:00:00Z</time>
      </trkpt>
      <trkpt lat="44.75523" lon="1.60306">
        <ele>206.9</ele>
        <time>2010-01-01T00:00:00Z</time>
      </trkpt>
      <trkpt lat="44.75524" lon="1.60314">
        <ele>207.5</ele>
        <time>2010-01-01T00:00:00Z</time>
      </trkpt>
      <trkpt lat="44.75541" lon="1.60341">
        <ele>205.5</ele>
        <time>2010-01-01T00:00:00Z</time>
      </trkpt>
      <trkpt lat="44.7555" lon="1.60363">
        <ele>203.4</ele>
        <time>2010-01-01T00:00:00Z</time>
      </trkpt>
      <trkpt lat="44.75552" lon="1.60379">
        <ele>202.8</ele>
        <time>2010-01-01T00:00:00Z</time>
      </trkpt>
      <trkpt lat="44.75551" lon="1.60392">
        <ele>202.8</ele>
        <time>2010-01-01T00:00:00Z</time>
      </trkpt>
      <trkpt lat="44.75549" lon="1.60399">
        <ele>203</ele>
        <time>2010-01-01T00:00:00Z</time>
      </trkpt>
      <trkpt lat="44.75548" lon="1.60414">
        <ele>203</ele>
        <time>2010-01-01T00:00:00Z</time>
      </trkpt>
      <trkpt lat="44.75549" lon="1.60421">
        <ele>203.1</ele>
        <time>2010-01-01T00:00:00Z</time>
      </trkpt>
      <trkpt lat="44.75551" lon="1.60424">
        <ele>203</ele>
        <time>2010-01-01T00:00:00Z</time>
      </trkpt>
      <trkpt lat="44.75559" lon="1.60431">
        <ele>202.5</ele>
        <time>2010-01-01T00:00:00Z</time>
      </trkpt>
      <trkpt lat="44.75562" lon="1.6043">
        <ele>202</ele>
        <time>2010-01-01T00:00:00Z</time>
      </trkpt>
      <trkpt lat="44.75562" lon="1.6043">
        <ele>202</ele>
        <time>2010-01-01T00:00:00Z</time>
      </trkpt>
      <trkpt lat="44.75583" lon="1.60422">
        <ele>197.9</ele>
        <time>2010-01-01T00:00:00Z</time>
      </trkpt>
      <trkpt lat="44.75607" lon="1.60414">
        <ele>196.2</ele>
        <time>2010-01-01T00:00:00Z</time>
      </trkpt>
      <trkpt lat="44.75634" lon="1.60409">
        <ele>195.5</ele>
        <time>2010-01-01T00:00:00Z</time>
      </trkpt>
      <trkpt lat="44.75672" lon="1.60403">
        <ele>195</ele>
        <time>2010-01-01T00:00:00Z</time>
      </trkpt>
      <trkpt lat="44.75727" lon="1.60392">
        <ele>196.6</ele>
        <time>2010-01-01T00:00:00Z</time>
      </trkpt>
      <trkpt lat="44.75733" lon="1.6039">
        <ele>196.7</ele>
        <time>2010-01-01T00:00:00Z</time>
      </trkpt>
      <trkpt lat="44.75757" lon="1.60385">
        <ele>197.3</ele>
        <time>2010-01-01T00:00:00Z</time>
      </trkpt>
      <trkpt lat="44.75772" lon="1.60379">
        <ele>197.8</ele>
        <time>2010-01-01T00:00:00Z</time>
      </trkpt>
      <trkpt lat="44.7578" lon="1.60373">
        <ele>197.8</ele>
        <time>2010-01-01T00:00:00Z</time>
      </trkpt>
      <trkpt lat="44.75796" lon="1.60362">
        <ele>197.4</ele>
        <time>2010-01-01T00:00:00Z</time>
      </trkpt>
      <trkpt lat="44.75817" lon="1.60341">
        <ele>195.4</ele>
        <time>2010-01-01T00:00:00Z</time>
      </trkpt>
      <trkpt lat="44.7583" lon="1.60326">
        <ele>194.2</ele>
        <time>2010-01-01T00:00:00Z</time>
      </trkpt>
      <trkpt lat="44.75837" lon="1.6031">
        <ele>194.7</ele>
        <time>2010-01-01T00:00:00Z</time>
      </trkpt>
      <trkpt lat="44.7584" lon="1.60304">
        <ele>195.1</ele>
        <time>2010-01-01T00:00:00Z</time>
      </trkpt>
      <trkpt lat="44.7584" lon="1.60303">
        <ele>195.1</ele>
        <time>2010-01-01T00:00:00Z</time>
      </trkpt>
      <trkpt lat="44.75848" lon="1.60279">
        <ele>196.2</ele>
        <time>2010-01-01T00:00:00Z</time>
      </trkpt>
      <trkpt lat="44.75853" lon="1.60245">
        <ele>196.9</ele>
        <time>2010-01-01T00:00:00Z</time>
      </trkpt>
      <trkpt lat="44.75854" lon="1.60226">
        <ele>197.3</ele>
        <time>2010-01-01T00:00:00Z</time>
      </trkpt>
      <trkpt lat="44.75855" lon="1.60219">
        <ele>197.5</ele>
        <time>2010-01-01T00:00:00Z</time>
      </trkpt>
      <trkpt lat="44.75856" lon="1.60182">
        <ele>198</ele>
        <time>2010-01-01T00:00:00Z</time>
      </trkpt>
      <trkpt lat="44.75856" lon="1.60128">
        <ele>197.5</ele>
        <time>2010-01-01T00:00:00Z</time>
      </trkpt>
      <trkpt lat="44.75855" lon="1.60085">
        <ele>196.8</ele>
        <time>2010-01-01T00:00:00Z</time>
      </trkpt>
      <trkpt lat="44.75855" lon="1.6007">
        <ele>196.6</ele>
        <time>2010-01-01T00:00:00Z</time>
      </trkpt>
      <trkpt lat="44.75856" lon="1.60055">
        <ele>196.4</ele>
        <time>2010-01-01T00:00:00Z</time>
      </trkpt>
      <trkpt lat="44.7586" lon="1.6003">
        <ele>196</ele>
        <time>2010-01-01T00:00:00Z</time>
      </trkpt>
      <trkpt lat="44.75867" lon="1.60003">
        <ele>195.1</ele>
        <time>2010-01-01T00:00:00Z</time>
      </trkpt>
      <trkpt lat="44.75881" lon="1.59962">
        <ele>194.2</ele>
        <time>2010-01-01T00:00:00Z</time>
      </trkpt>
      <trkpt lat="44.75903" lon="1.59904">
        <ele>191.3</ele>
        <time>2010-01-01T00:00:00Z</time>
      </trkpt>
      <trkpt lat="44.75919" lon="1.59866">
        <ele>188.3</ele>
        <time>2010-01-01T00:00:00Z</time>
      </trkpt>
      <trkpt lat="44.75934" lon="1.5984">
        <ele>187.7</ele>
        <time>2010-01-01T00:00:00Z</time>
      </trkpt>
      <trkpt lat="44.75941" lon="1.59826">
        <ele>188</ele>
        <time>2010-01-01T00:00:00Z</time>
      </trkpt>
      <trkpt lat="44.75946" lon="1.59816">
        <ele>188.6</ele>
        <time>2010-01-01T00:00:00Z</time>
      </trkpt>
      <trkpt lat="44.75962" lon="1.59788">
        <ele>189.1</ele>
        <time>2010-01-01T00:00:00Z</time>
      </trkpt>
      <trkpt lat="44.75976" lon="1.59769">
        <ele>188.2</ele>
        <time>2010-01-01T00:00:00Z</time>
      </trkpt>
      <trkpt lat="44.75993" lon="1.59747">
        <ele>186</ele>
        <time>2010-01-01T00:00:00Z</time>
      </trkpt>
      <trkpt lat="44.75997" lon="1.59742">
        <ele>185.6</ele>
        <time>2010-01-01T00:00:00Z</time>
      </trkpt>
      <trkpt lat="44.76008" lon="1.59728">
        <ele>186.2</ele>
        <time>2010-01-01T00:00:00Z</time>
      </trkpt>
      <trkpt lat="44.76023" lon="1.59702">
        <ele>187.2</ele>
        <time>2010-01-01T00:00:00Z</time>
      </trkpt>
      <trkpt lat="44.76027" lon="1.59692">
        <ele>187.3</ele>
        <time>2010-01-01T00:00:00Z</time>
      </trkpt>
      <trkpt lat="44.76028" lon="1.5969">
        <ele>187.3</ele>
        <time>2010-01-01T00:00:00Z</time>
      </trkpt>
      <trkpt lat="44.76039" lon="1.59667">
        <ele>187</ele>
        <time>2010-01-01T00:00:00Z</time>
      </trkpt>
      <trkpt lat="44.76047" lon="1.59646">
        <ele>187.1</ele>
        <time>2010-01-01T00:00:00Z</time>
      </trkpt>
      <trkpt lat="44.76051" lon="1.5965">
        <ele>187</ele>
        <time>2010-01-01T00:00:00Z</time>
      </trkpt>
      <trkpt lat="44.76051" lon="1.5965">
        <ele>187</ele>
        <time>2010-01-01T00:00:00Z</time>
      </trkpt>
      <trkpt lat="44.76055" lon="1.59655">
        <ele>187</ele>
        <time>2010-01-01T00:00:00Z</time>
      </trkpt>
      <trkpt lat="44.76062" lon="1.59663">
        <ele>187</ele>
        <time>2010-01-01T00:00:00Z</time>
      </trkpt>
      <trkpt lat="44.76083" lon="1.59681">
        <ele>188.2</ele>
        <time>2010-01-01T00:00:00Z</time>
      </trkpt>
      <trkpt lat="44.76095" lon="1.59692">
        <ele>192.4</ele>
        <time>2010-01-01T00:00:00Z</time>
      </trkpt>
      <trkpt lat="44.76097" lon="1.59696">
        <ele>193.3</ele>
        <time>2010-01-01T00:00:00Z</time>
      </trkpt>
      <trkpt lat="44.76098" lon="1.59701">
        <ele>194</ele>
        <time>2010-01-01T00:00:00Z</time>
      </trkpt>
      <trkpt lat="44.76098" lon="1.59708">
        <ele>194.6</ele>
        <time>2010-01-01T00:00:00Z</time>
      </trkpt>
      <trkpt lat="44.76095" lon="1.59729">
        <ele>195.5</ele>
        <time>2010-01-01T00:00:00Z</time>
      </trkpt>
      <trkpt lat="44.76083" lon="1.59781">
        <ele>196.6</ele>
        <time>2010-01-01T00:00:00Z</time>
      </trkpt>
      <trkpt lat="44.76082" lon="1.59792">
        <ele>197.4</ele>
        <time>2010-01-01T00:00:00Z</time>
      </trkpt>
      <trkpt lat="44.76082" lon="1.59804">
        <ele>198.4</ele>
        <time>2010-01-01T00:00:00Z</time>
      </trkpt>
      <trkpt lat="44.76087" lon="1.59842">
        <ele>202.6</ele>
        <time>2010-01-01T00:00:00Z</time>
      </trkpt>
      <trkpt lat="44.76093" lon="1.59871">
        <ele>206.4</ele>
        <time>2010-01-01T00:00:00Z</time>
      </trkpt>
      <trkpt lat="44.76094" lon="1.59886">
        <ele>207.9</ele>
        <time>2010-01-01T00:00:00Z</time>
      </trkpt>
      <trkpt lat="44.76093" lon="1.59908">
        <ele>209.4</ele>
        <time>2010-01-01T00:00:00Z</time>
      </trkpt>
      <trkpt lat="44.76089" lon="1.5994">
        <ele>210.3</ele>
        <time>2010-01-01T00:00:00Z</time>
      </trkpt>
      <trkpt lat="44.76088" lon="1.59954">
        <ele>210.8</ele>
        <time>2010-01-01T00:00:00Z</time>
      </trkpt>
      <trkpt lat="44.76088" lon="1.59973">
        <ele>211.7</ele>
        <time>2010-01-01T00:00:00Z</time>
      </trkpt>
      <trkpt lat="44.76091" lon="1.6">
        <ele>213.7</ele>
        <time>2010-01-01T00:00:00Z</time>
      </trkpt>
      <trkpt lat="44.76096" lon="1.60015">
        <ele>215.8</ele>
        <time>2010-01-01T00:00:00Z</time>
      </trkpt>
      <trkpt lat="44.76107" lon="1.60035">
        <ele>219.3</ele>
        <time>2010-01-01T00:00:00Z</time>
      </trkpt>
      <trkpt lat="44.76117" lon="1.60053">
        <ele>222.2</ele>
        <time>2010-01-01T00:00:00Z</time>
      </trkpt>
      <trkpt lat="44.76129" lon="1.60073">
        <ele>225.1</ele>
        <time>2010-01-01T00:00:00Z</time>
      </trkpt>
      <trkpt lat="44.7613" lon="1.60074">
        <ele>225.3</ele>
        <time>2010-01-01T00:00:00Z</time>
      </trkpt>
      <trkpt lat="44.76144" lon="1.60095">
        <ele>228.9</ele>
        <time>2010-01-01T00:00:00Z</time>
      </trkpt>
      <trkpt lat="44.76155" lon="1.60111">
        <ele>231.9</ele>
        <time>2010-01-01T00:00:00Z</time>
      </trkpt>
      <trkpt lat="44.76171" lon="1.60123">
        <ele>235</ele>
        <time>2010-01-01T00:00:00Z</time>
      </trkpt>
      <trkpt lat="44.76184" lon="1.60129">
        <ele>237.6</ele>
        <time>2010-01-01T00:00:00Z</time>
      </trkpt>
      <trkpt lat="44.76203" lon="1.60135">
        <ele>240.8</ele>
        <time>2010-01-01T00:00:00Z</time>
      </trkpt>
      <trkpt lat="44.76217" lon="1.60137">
        <ele>242.9</ele>
        <time>2010-01-01T00:00:00Z</time>
      </trkpt>
      <trkpt lat="44.7623" lon="1.60138">
        <ele>244.8</ele>
        <time>2010-01-01T00:00:00Z</time>
      </trkpt>
      <trkpt lat="44.76246" lon="1.60138">
        <ele>247.1</ele>
        <time>2010-01-01T00:00:00Z</time>
      </trkpt>
      <trkpt lat="44.76268" lon="1.60134">
        <ele>249.9</ele>
        <time>2010-01-01T00:00:00Z</time>
      </trkpt>
      <trkpt lat="44.76293" lon="1.60128">
        <ele>253.1</ele>
        <time>2010-01-01T00:00:00Z</time>
      </trkpt>
      <trkpt lat="44.76307" lon="1.60125">
        <ele>254.8</ele>
        <time>2010-01-01T00:00:00Z</time>
      </trkpt>
      <trkpt lat="44.76327" lon="1.60124">
        <ele>257.3</ele>
        <time>2010-01-01T00:00:00Z</time>
      </trkpt>
      <trkpt lat="44.76337" lon="1.60125">
        <ele>258.4</ele>
        <time>2010-01-01T00:00:00Z</time>
      </trkpt>
      <trkpt lat="44.76357" lon="1.60137">
        <ele>259.9</ele>
        <time>2010-01-01T00:00:00Z</time>
      </trkpt>
      <trkpt lat="44.76371" lon="1.60149">
        <ele>260.8</ele>
        <time>2010-01-01T00:00:00Z</time>
      </trkpt>
      <trkpt lat="44.76385" lon="1.6017">
        <ele>261.8</ele>
        <time>2010-01-01T00:00:00Z</time>
      </trkpt>
      <trkpt lat="44.76399" lon="1.60197">
        <ele>264.6</ele>
        <time>2010-01-01T00:00:00Z</time>
      </trkpt>
      <trkpt lat="44.76403" lon="1.60214">
        <ele>265.8</ele>
        <time>2010-01-01T00:00:00Z</time>
      </trkpt>
      <trkpt lat="44.76405" lon="1.60225">
        <ele>266.4</ele>
        <time>2010-01-01T00:00:00Z</time>
      </trkpt>
      <trkpt lat="44.76404" lon="1.60233">
        <ele>266.7</ele>
        <time>2010-01-01T00:00:00Z</time>
      </trkpt>
      <trkpt lat="44.76401" lon="1.60239">
        <ele>266.9</ele>
        <time>2010-01-01T00:00:00Z</time>
      </trkpt>
      <trkpt lat="44.76398" lon="1.60243">
        <ele>267</ele>
        <time>2010-01-01T00:00:00Z</time>
      </trkpt>
      <trkpt lat="44.76392" lon="1.60245">
        <ele>266.8</ele>
        <time>2010-01-01T00:00:00Z</time>
      </trkpt>
      <trkpt lat="44.76381" lon="1.60245">
        <ele>266.4</ele>
        <time>2010-01-01T00:00:00Z</time>
      </trkpt>
      <trkpt lat="44.7637" lon="1.60247">
        <ele>266.1</ele>
        <time>2010-01-01T00:00:00Z</time>
      </trkpt>
      <trkpt lat="44.7636" lon="1.60255">
        <ele>266.4</ele>
        <time>2010-01-01T00:00:00Z</time>
      </trkpt>
      <trkpt lat="44.76348" lon="1.60268">
        <ele>267.4</ele>
        <time>2010-01-01T00:00:00Z</time>
      </trkpt>
      <trkpt lat="44.76337" lon="1.60287">
        <ele>269.1</ele>
        <time>2010-01-01T00:00:00Z</time>
      </trkpt>
      <trkpt lat="44.76329" lon="1.603">
        <ele>270.2</ele>
        <time>2010-01-01T00:00:00Z</time>
      </trkpt>
      <trkpt lat="44.76315" lon="1.60315">
        <ele>271.3</ele>
        <time>2010-01-01T00:00:00Z</time>
      </trkpt>
      <trkpt lat="44.76294" lon="1.60331">
        <ele>272.3</ele>
        <time>2010-01-01T00:00:00Z</time>
      </trkpt>
      <trkpt lat="44.7627" lon="1.6035">
        <ele>273</ele>
        <time>2010-01-01T00:00:00Z</time>
      </trkpt>
      <trkpt lat="44.76242" lon="1.60384">
        <ele>274.5</ele>
        <time>2010-01-01T00:00:00Z</time>
      </trkpt>
      <trkpt lat="44.76226" lon="1.60404">
        <ele>274.5</ele>
        <time>2010-01-01T00:00:00Z</time>
      </trkpt>
      <trkpt lat="44.7621" lon="1.60434">
        <ele>273.8</ele>
        <time>2010-01-01T00:00:00Z</time>
      </trkpt>
      <trkpt lat="44.76208" lon="1.6044">
        <ele>273.6</ele>
        <time>2010-01-01T00:00:00Z</time>
      </trkpt>
      <trkpt lat="44.76207" lon="1.60443">
        <ele>273.5</ele>
        <time>2010-01-01T00:00:00Z</time>
      </trkpt>
      <trkpt lat="44.76205" lon="1.60453">
        <ele>273.3</ele>
        <time>2010-01-01T00:00:00Z</time>
      </trkpt>
      <trkpt lat="44.76205" lon="1.60461">
        <ele>273.4</ele>
        <time>2010-01-01T00:00:00Z</time>
      </trkpt>
      <trkpt lat="44.76205" lon="1.60461">
        <ele>273.4</ele>
        <time>2010-01-01T00:00:00Z</time>
      </trkpt>
      <trkpt lat="44.76205" lon="1.60461">
        <ele>273.4</ele>
        <time>2010-01-01T00:00:00Z</time>
      </trkpt>
      <trkpt lat="44.76206" lon="1.60468">
        <ele>273.5</ele>
        <time>2010-01-01T00:00:00Z</time>
      </trkpt>
      <trkpt lat="44.76212" lon="1.60486">
        <ele>274.3</ele>
        <time>2010-01-01T00:00:00Z</time>
      </trkpt>
      <trkpt lat="44.76221" lon="1.60504">
        <ele>275.7</ele>
        <time>2010-01-01T00:00:00Z</time>
      </trkpt>
      <trkpt lat="44.76229" lon="1.6052">
        <ele>277.5</ele>
        <time>2010-01-01T00:00:00Z</time>
      </trkpt>
      <trkpt lat="44.76236" lon="1.60539">
        <ele>279.1</ele>
        <time>2010-01-01T00:00:00Z</time>
      </trkpt>
      <trkpt lat="44.76247" lon="1.60576">
        <ele>281.5</ele>
        <time>2010-01-01T00:00:00Z</time>
      </trkpt>
      <trkpt lat="44.76266" lon="1.60642">
        <ele>283.4</ele>
        <time>2010-01-01T00:00:00Z</time>
      </trkpt>
      <trkpt lat="44.76271" lon="1.60661">
        <ele>283.7</ele>
        <time>2010-01-01T00:00:00Z</time>
      </trkpt>
      <trkpt lat="44.76274" lon="1.60693">
        <ele>284.4</ele>
        <time>2010-01-01T00:00:00Z</time>
      </trkpt>
      <trkpt lat="44.76274" lon="1.60706">
        <ele>284.7</ele>
        <time>2010-01-01T00:00:00Z</time>
      </trkpt>
      <trkpt lat="44.76271" lon="1.60725">
        <ele>285.3</ele>
        <time>2010-01-01T00:00:00Z</time>
      </trkpt>
      <trkpt lat="44.76266" lon="1.60745">
        <ele>286.1</ele>
        <time>2010-01-01T00:00:00Z</time>
      </trkpt>
      <trkpt lat="44.76261" lon="1.60764">
        <ele>287.3</ele>
        <time>2010-01-01T00:00:00Z</time>
      </trkpt>
      <trkpt lat="44.76258" lon="1.60778">
        <ele>288.3</ele>
        <time>2010-01-01T00:00:00Z</time>
      </trkpt>
      <trkpt lat="44.76252" lon="1.60793">
        <ele>289.5</ele>
        <time>2010-01-01T00:00:00Z</time>
      </trkpt>
      <trkpt lat="44.76246" lon="1.60802">
        <ele>290</ele>
        <time>2010-01-01T00:00:00Z</time>
      </trkpt>
      <trkpt lat="44.76226" lon="1.6085">
        <ele>291.5</ele>
        <time>2010-01-01T00:00:00Z</time>
      </trkpt>
      <trkpt lat="44.7622" lon="1.60864">
        <ele>291.7</ele>
        <time>2010-01-01T00:00:00Z</time>
      </trkpt>
      <trkpt lat="44.76219" lon="1.60884">
        <ele>292.1</ele>
        <time>2010-01-01T00:00:00Z</time>
      </trkpt>
      <trkpt lat="44.76218" lon="1.60896">
        <ele>292.4</ele>
        <time>2010-01-01T00:00:00Z</time>
      </trkpt>
      <trkpt lat="44.76212" lon="1.60921">
        <ele>292.6</ele>
        <time>2010-01-01T00:00:00Z</time>
      </trkpt>
      <trkpt lat="44.76203" lon="1.60941">
        <ele>292.3</ele>
        <time>2010-01-01T00:00:00Z</time>
      </trkpt>
      <trkpt lat="44.76196" lon="1.60956">
        <ele>292.2</ele>
        <time>2010-01-01T00:00:00Z</time>
      </trkpt>
      <trkpt lat="44.76193" lon="1.6096">
        <ele>292.1</ele>
        <time>2010-01-01T00:00:00Z</time>
      </trkpt>
      <trkpt lat="44.76198" lon="1.60973">
        <ele>292.3</ele>
        <time>2010-01-01T00:00:00Z</time>
      </trkpt>
      <trkpt lat="44.76224" lon="1.61023">
        <ele>292.4</ele>
        <time>2010-01-01T00:00:00Z</time>
      </trkpt>
      <trkpt lat="44.76252" lon="1.61073">
        <ele>292.1</ele>
        <time>2010-01-01T00:00:00Z</time>
      </trkpt>
      <trkpt lat="44.7627" lon="1.61109">
        <ele>292.2</ele>
        <time>2010-01-01T00:00:00Z</time>
      </trkpt>
      <trkpt lat="44.76297" lon="1.61169">
        <ele>292.5</ele>
        <time>2010-01-01T00:00:00Z</time>
      </trkpt>
      <trkpt lat="44.7632" lon="1.61219">
        <ele>292</ele>
        <time>2010-01-01T00:00:00Z</time>
      </trkpt>
      <trkpt lat="44.7634" lon="1.61262">
        <ele>291.6</ele>
        <time>2010-01-01T00:00:00Z</time>
      </trkpt>
      <trkpt lat="44.76362" lon="1.613">
        <ele>290.4</ele>
        <time>2010-01-01T00:00:00Z</time>
      </trkpt>
      <trkpt lat="44.76375" lon="1.61325">
        <ele>289.6</ele>
        <time>2010-01-01T00:00:00Z</time>
      </trkpt>
      <trkpt lat="44.76394" lon="1.6137">
        <ele>289.8</ele>
        <time>2010-01-01T00:00:00Z</time>
      </trkpt>
      <trkpt lat="44.76409" lon="1.61407">
        <ele>290.7</ele>
        <time>2010-01-01T00:00:00Z</time>
      </trkpt>
      <trkpt lat="44.76427" lon="1.6145">
        <ele>292.3</ele>
        <time>2010-01-01T00:00:00Z</time>
      </trkpt>
      <trkpt lat="44.76447" lon="1.61496">
        <ele>293.9</ele>
        <time>2010-01-01T00:00:00Z</time>
      </trkpt>
      <trkpt lat="44.76464" lon="1.6153">
        <ele>295</ele>
        <time>2010-01-01T00:00:00Z</time>
      </trkpt>
      <trkpt lat="44.76472" lon="1.61545">
        <ele>295.6</ele>
        <time>2010-01-01T00:00:00Z</time>
      </trkpt>
      <trkpt lat="44.7648" lon="1.61563">
        <ele>296.5</ele>
        <time>2010-01-01T00:00:00Z</time>
      </trkpt>
      <trkpt lat="44.76484" lon="1.61572">
        <ele>297</ele>
        <time>2010-01-01T00:00:00Z</time>
      </trkpt>
      <trkpt lat="44.76488" lon="1.61586">
        <ele>297.6</ele>
        <time>2010-01-01T00:00:00Z</time>
      </trkpt>
      <trkpt lat="44.76491" lon="1.61589">
        <ele>297.7</ele>
        <time>2010-01-01T00:00:00Z</time>
      </trkpt>
      <trkpt lat="44.76496" lon="1.61591">
        <ele>297.9</ele>
        <time>2010-01-01T00:00:00Z</time>
      </trkpt>
      <trkpt lat="44.76507" lon="1.61594">
        <ele>297.9</ele>
        <time>2010-01-01T00:00:00Z</time>
      </trkpt>
      <trkpt lat="44.76512" lon="1.61597">
        <ele>297.8</ele>
        <time>2010-01-01T00:00:00Z</time>
      </trkpt>
      <trkpt lat="44.76515" lon="1.61599">
        <ele>297.8</ele>
        <time>2010-01-01T00:00:00Z</time>
      </trkpt>
      <trkpt lat="44.7652" lon="1.61605">
        <ele>297.6</ele>
        <time>2010-01-01T00:00:00Z</time>
      </trkpt>
      <trkpt lat="44.76526" lon="1.61611">
        <ele>297.5</ele>
        <time>2010-01-01T00:00:00Z</time>
      </trkpt>
      <trkpt lat="44.76532" lon="1.61613">
        <ele>297.3</ele>
        <time>2010-01-01T00:00:00Z</time>
      </trkpt>
      <trkpt lat="44.76534" lon="1.61613">
        <ele>297.3</ele>
        <time>2010-01-01T00:00:00Z</time>
      </trkpt>
      <trkpt lat="44.76534" lon="1.61613">
        <ele>297.3</ele>
        <time>2010-01-01T00:00:00Z</time>
      </trkpt>
      <trkpt lat="44.76538" lon="1.61613">
        <ele>297.2</ele>
        <time>2010-01-01T00:00:00Z</time>
      </trkpt>
      <trkpt lat="44.76543" lon="1.61613">
        <ele>297.1</ele>
        <time>2010-01-01T00:00:00Z</time>
      </trkpt>
      <trkpt lat="44.76571" lon="1.61601">
        <ele>296.8</ele>
        <time>2010-01-01T00:00:00Z</time>
      </trkpt>
      <trkpt lat="44.76584" lon="1.61596">
        <ele>296.6</ele>
        <time>2010-01-01T00:00:00Z</time>
      </trkpt>
      <trkpt lat="44.76596" lon="1.61593">
        <ele>295.9</ele>
        <time>2010-01-01T00:00:00Z</time>
      </trkpt>
      <trkpt lat="44.766" lon="1.61583">
        <ele>296</ele>
        <time>2010-01-01T00:00:00Z</time>
      </trkpt>
      <trkpt lat="44.76616" lon="1.61565">
        <ele>294.9</ele>
        <time>2010-01-01T00:00:00Z</time>
      </trkpt>
      <trkpt lat="44.76634" lon="1.61539">
        <ele>294.3</ele>
        <time>2010-01-01T00:00:00Z</time>
      </trkpt>
      <trkpt lat="44.76653" lon="1.61509">
        <ele>294.6</ele>
        <time>2010-01-01T00:00:00Z</time>
      </trkpt>
      <trkpt lat="44.76659" lon="1.61504">
        <ele>294.8</ele>
        <time>2010-01-01T00:00:00Z</time>
      </trkpt>
      <trkpt lat="44.76675" lon="1.61496">
        <ele>294.9</ele>
        <time>2010-01-01T00:00:00Z</time>
      </trkpt>
      <trkpt lat="44.76686" lon="1.61492">
        <ele>294.7</ele>
        <time>2010-01-01T00:00:00Z</time>
      </trkpt>
      <trkpt lat="44.76696" lon="1.61491">
        <ele>294.6</ele>
        <time>2010-01-01T00:00:00Z</time>
      </trkpt>
      <trkpt lat="44.76717" lon="1.61493">
        <ele>294.3</ele>
        <time>2010-01-01T00:00:00Z</time>
      </trkpt>
      <trkpt lat="44.76744" lon="1.61494">
        <ele>294</ele>
        <time>2010-01-01T00:00:00Z</time>
      </trkpt>
      <trkpt lat="44.76773" lon="1.61497">
        <ele>293.1</ele>
        <time>2010-01-01T00:00:00Z</time>
      </trkpt>
      <trkpt lat="44.76802" lon="1.61502">
        <ele>292</ele>
        <time>2010-01-01T00:00:00Z</time>
      </trkpt>
      <trkpt lat="44.76832" lon="1.61511">
        <ele>290.6</ele>
        <time>2010-01-01T00:00:00Z</time>
      </trkpt>
      <trkpt lat="44.76842" lon="1.61516">
        <ele>289.8</ele>
        <time>2010-01-01T00:00:00Z</time>
      </trkpt>
      <trkpt lat="44.76864" lon="1.6152">
        <ele>288.2</ele>
        <time>2010-01-01T00:00:00Z</time>
      </trkpt>
      <trkpt lat="44.76888" lon="1.61528">
        <ele>286.5</ele>
        <time>2010-01-01T00:00:00Z</time>
      </trkpt>
      <trkpt lat="44.76906" lon="1.61533">
        <ele>285.3</ele>
        <time>2010-01-01T00:00:00Z</time>
      </trkpt>
      <trkpt lat="44.76928" lon="1.61536">
        <ele>283.8</ele>
        <time>2010-01-01T00:00:00Z</time>
      </trkpt>
      <trkpt lat="44.76962" lon="1.61539">
        <ele>281.6</ele>
        <time>2010-01-01T00:00:00Z</time>
      </trkpt>
      <trkpt lat="44.77006" lon="1.61543">
        <ele>278.9</ele>
        <time>2010-01-01T00:00:00Z</time>
      </trkpt>
      <trkpt lat="44.77025" lon="1.61549">
        <ele>278.5</ele>
        <time>2010-01-01T00:00:00Z</time>
      </trkpt>
      <trkpt lat="44.77044" lon="1.61554">
        <ele>278.1</ele>
        <time>2010-01-01T00:00:00Z</time>
      </trkpt>
      <trkpt lat="44.77053" lon="1.61556">
        <ele>278</ele>
        <time>2010-01-01T00:00:00Z</time>
      </trkpt>
      <trkpt lat="44.77071" lon="1.6156">
        <ele>277.8</ele>
        <time>2010-01-01T00:00:00Z</time>
      </trkpt>
      <trkpt lat="44.77084" lon="1.61563">
        <ele>277.7</ele>
        <time>2010-01-01T00:00:00Z</time>
      </trkpt>
      <trkpt lat="44.77112" lon="1.61567">
        <ele>277.5</ele>
        <time>2010-01-01T00:00:00Z</time>
      </trkpt>
      <trkpt lat="44.77115" lon="1.61564">
        <ele>277.4</ele>
        <time>2010-01-01T00:00:00Z</time>
      </trkpt>
      <trkpt lat="44.77117" lon="1.6156">
        <ele>277.3</ele>
        <time>2010-01-01T00:00:00Z</time>
      </trkpt>
      <trkpt lat="44.77117" lon="1.61559">
        <ele>277.3</ele>
        <time>2010-01-01T00:00:00Z</time>
      </trkpt>
      <trkpt lat="44.77117" lon="1.61559">
        <ele>277.3</ele>
        <time>2010-01-01T00:00:00Z</time>
      </trkpt>
      <trkpt lat="44.77119" lon="1.61547">
        <ele>277.1</ele>
        <time>2010-01-01T00:00:00Z</time>
      </trkpt>
      <trkpt lat="44.77122" lon="1.61543">
        <ele>277.1</ele>
        <time>2010-01-01T00:00:00Z</time>
      </trkpt>
      <trkpt lat="44.77126" lon="1.61541">
        <ele>277</ele>
        <time>2010-01-01T00:00:00Z</time>
      </trkpt>
      <trkpt lat="44.77152" lon="1.61532">
        <ele>276.6</ele>
        <time>2010-01-01T00:00:00Z</time>
      </trkpt>
      <trkpt lat="44.7719" lon="1.61517">
        <ele>276</ele>
        <time>2010-01-01T00:00:00Z</time>
      </trkpt>
      <trkpt lat="44.77225" lon="1.61504">
        <ele>275.4</ele>
        <time>2010-01-01T00:00:00Z</time>
      </trkpt>
      <trkpt lat="44.77231" lon="1.615">
        <ele>275.2</ele>
        <time>2010-01-01T00:00:00Z</time>
      </trkpt>
      <trkpt lat="44.77247" lon="1.61487">
        <ele>274.6</ele>
        <time>2010-01-01T00:00:00Z</time>
      </trkpt>
      <trkpt lat="44.77265" lon="1.61471">
        <ele>273.4</ele>
        <time>2010-01-01T00:00:00Z</time>
      </trkpt>
      <trkpt lat="44.77304" lon="1.61448">
        <ele>271.2</ele>
        <time>2010-01-01T00:00:00Z</time>
      </trkpt>
      <trkpt lat="44.77353" lon="1.61424">
        <ele>269</ele>
        <time>2010-01-01T00:00:00Z</time>
      </trkpt>
      <trkpt lat="44.77396" lon="1.61399">
        <ele>268.1</ele>
        <time>2010-01-01T00:00:00Z</time>
      </trkpt>
      <trkpt lat="44.7744" lon="1.61375">
        <ele>267.2</ele>
        <time>2010-01-01T00:00:00Z</time>
      </trkpt>
      <trkpt lat="44.77475" lon="1.61353">
        <ele>266.5</ele>
        <time>2010-01-01T00:00:00Z</time>
      </trkpt>
      <trkpt lat="44.77484" lon="1.61349">
        <ele>266.4</ele>
        <time>2010-01-01T00:00:00Z</time>
      </trkpt>
      <trkpt lat="44.77507" lon="1.61344">
        <ele>266.1</ele>
        <time>2010-01-01T00:00:00Z</time>
      </trkpt>
      <trkpt lat="44.77528" lon="1.61336">
        <ele>265.7</ele>
        <time>2010-01-01T00:00:00Z</time>
      </trkpt>
      <trkpt lat="44.77562" lon="1.61315">
        <ele>264.6</ele>
        <time>2010-01-01T00:00:00Z</time>
      </trkpt>
      <trkpt lat="44.77575" lon="1.61301">
        <ele>263.7</ele>
        <time>2010-01-01T00:00:00Z</time>
      </trkpt>
      <trkpt lat="44.77585" lon="1.61287">
        <ele>262.6</ele>
        <time>2010-01-01T00:00:00Z</time>
      </trkpt>
      <trkpt lat="44.77589" lon="1.61275">
        <ele>261.8</ele>
        <time>2010-01-01T00:00:00Z</time>
      </trkpt>
      <trkpt lat="44.7759" lon="1.61273">
        <ele>261.7</ele>
        <time>2010-01-01T00:00:00Z</time>
      </trkpt>
      <trkpt lat="44.7759" lon="1.61273">
        <ele>261.7</ele>
        <time>2010-01-01T00:00:00Z</time>
      </trkpt>
      <trkpt lat="44.77592" lon="1.61271">
        <ele>261.4</ele>
        <time>2010-01-01T00:00:00Z</time>
      </trkpt>
      <trkpt lat="44.77595" lon="1.61267">
        <ele>261.1</ele>
        <time>2010-01-01T00:00:00Z</time>
      </trkpt>
      <trkpt lat="44.77602" lon="1.61265">
        <ele>260.6</ele>
        <time>2010-01-01T00:00:00Z</time>
      </trkpt>
      <trkpt lat="44.77612" lon="1.61264">
        <ele>259.9</ele>
        <time>2010-01-01T00:00:00Z</time>
      </trkpt>
      <trkpt lat="44.77618" lon="1.61259">
        <ele>259.5</ele>
        <time>2010-01-01T00:00:00Z</time>
      </trkpt>
      <trkpt lat="44.77625" lon="1.61256">
        <ele>259.1</ele>
        <time>2010-01-01T00:00:00Z</time>
      </trkpt>
      <trkpt lat="44.77635" lon="1.61259">
        <ele>258.6</ele>
        <time>2010-01-01T00:00:00Z</time>
      </trkpt>
      <trkpt lat="44.77649" lon="1.61264">
        <ele>257.7</ele>
        <time>2010-01-01T00:00:00Z</time>
      </trkpt>
      <trkpt lat="44.77665" lon="1.61274">
        <ele>256.5</ele>
        <time>2010-01-01T00:00:00Z</time>
      </trkpt>
      <trkpt lat="44.77686" lon="1.61293">
        <ele>255.7</ele>
        <time>2010-01-01T00:00:00Z</time>
      </trkpt>
      <trkpt lat="44.77696" lon="1.61303">
        <ele>254.9</ele>
        <time>2010-01-01T00:00:00Z</time>
      </trkpt>
      <trkpt lat="44.77702" lon="1.61317">
        <ele>253.7</ele>
        <time>2010-01-01T00:00:00Z</time>
      </trkpt>
      <trkpt lat="44.77709" lon="1.61338">
        <ele>251.7</ele>
        <time>2010-01-01T00:00:00Z</time>
      </trkpt>
      <trkpt lat="44.77718" lon="1.61368">
        <ele>248.8</ele>
        <time>2010-01-01T00:00:00Z</time>
      </trkpt>
      <trkpt lat="44.77726" lon="1.61398">
        <ele>245.1</ele>
        <time>2010-01-01T00:00:00Z</time>
      </trkpt>
      <trkpt lat="44.77738" lon="1.61414">
        <ele>241</ele>
        <time>2010-01-01T00:00:00Z</time>
      </trkpt>
      <trkpt lat="44.7775" lon="1.61425">
        <ele>238.5</ele>
        <time>2010-01-01T00:00:00Z</time>
      </trkpt>
      <trkpt lat="44.77758" lon="1.61435">
        <ele>238.2</ele>
        <time>2010-01-01T00:00:00Z</time>
      </trkpt>
      <trkpt lat="44.77764" lon="1.61447">
        <ele>238.2</ele>
        <time>2010-01-01T00:00:00Z</time>
      </trkpt>
      <trkpt lat="44.77777" lon="1.61453">
        <ele>237</ele>
        <time>2010-01-01T00:00:00Z</time>
      </trkpt>
      <trkpt lat="44.77788" lon="1.61457">
        <ele>235.9</ele>
        <time>2010-01-01T00:00:00Z</time>
      </trkpt>
      <trkpt lat="44.77797" lon="1.61458">
        <ele>234.8</ele>
        <time>2010-01-01T00:00:00Z</time>
      </trkpt>
      <trkpt lat="44.77807" lon="1.61455">
        <ele>233.6</ele>
        <time>2010-01-01T00:00:00Z</time>
      </trkpt>
      <trkpt lat="44.77815" lon="1.61454">
        <ele>232.6</ele>
        <time>2010-01-01T00:00:00Z</time>
      </trkpt>
      <trkpt lat="44.77825" lon="1.61448">
        <ele>231.3</ele>
        <time>2010-01-01T00:00:00Z</time>
      </trkpt>
      <trkpt lat="44.77832" lon="1.61442">
        <ele>230.5</ele>
        <time>2010-01-01T00:00:00Z</time>
      </trkpt>
      <trkpt lat="44.77845" lon="1.61431">
        <ele>229.1</ele>
        <time>2010-01-01T00:00:00Z</time>
      </trkpt>
      <trkpt lat="44.77855" lon="1.61425">
        <ele>228.1</ele>
        <time>2010-01-01T00:00:00Z</time>
      </trkpt>
      <trkpt lat="44.77863" lon="1.61419">
        <ele>227.2</ele>
        <time>2010-01-01T00:00:00Z</time>
      </trkpt>
      <trkpt lat="44.77875" lon="1.61417">
        <ele>226</ele>
        <time>2010-01-01T00:00:00Z</time>
      </trkpt>
      <trkpt lat="44.77884" lon="1.61415">
        <ele>225.6</ele>
        <time>2010-01-01T00:00:00Z</time>
      </trkpt>
      <trkpt lat="44.7789" lon="1.61416">
        <ele>224.7</ele>
        <time>2010-01-01T00:00:00Z</time>
      </trkpt>
      <trkpt lat="44.77893" lon="1.6142">
        <ele>224.4</ele>
        <time>2010-01-01T00:00:00Z</time>
      </trkpt>
      <trkpt lat="44.77896" lon="1.61427">
        <ele>224.4</ele>
        <time>2010-01-01T00:00:00Z</time>
      </trkpt>
      <trkpt lat="44.77905" lon="1.61429">
        <ele>223.6</ele>
        <time>2010-01-01T00:00:00Z</time>
      </trkpt>
      <trkpt lat="44.77913" lon="1.61429">
        <ele>222.9</ele>
        <time>2010-01-01T00:00:00Z</time>
      </trkpt>
      <trkpt lat="44.77921" lon="1.61425">
        <ele>222</ele>
        <time>2010-01-01T00:00:00Z</time>
      </trkpt>
      <trkpt lat="44.77929" lon="1.61425">
        <ele>221.2</ele>
        <time>2010-01-01T00:00:00Z</time>
      </trkpt>
      <trkpt lat="44.77938" lon="1.61423">
        <ele>220.3</ele>
        <time>2010-01-01T00:00:00Z</time>
      </trkpt>
      <trkpt lat="44.77942" lon="1.6142">
        <ele>219.9</ele>
        <time>2010-01-01T00:00:00Z</time>
      </trkpt>
      <trkpt lat="44.77951" lon="1.61419">
        <ele>219.1</ele>
        <time>2010-01-01T00:00:00Z</time>
      </trkpt>
      <trkpt lat="44.77961" lon="1.61419">
        <ele>218.2</ele>
        <time>2010-01-01T00:00:00Z</time>
      </trkpt>
      <trkpt lat="44.77976" lon="1.6142">
        <ele>216.9</ele>
        <time>2010-01-01T00:00:00Z</time>
      </trkpt>
      <trkpt lat="44.77987" lon="1.61423">
        <ele>215.8</ele>
        <time>2010-01-01T00:00:00Z</time>
      </trkpt>
      <trkpt lat="44.77992" lon="1.61426">
        <ele>215.1</ele>
        <time>2010-01-01T00:00:00Z</time>
      </trkpt>
      <trkpt lat="44.77996" lon="1.61433">
        <ele>214.3</ele>
        <time>2010-01-01T00:00:00Z</time>
      </trkpt>
      <trkpt lat="44.77998" lon="1.61445">
        <ele>213.2</ele>
        <time>2010-01-01T00:00:00Z</time>
      </trkpt>
      <trkpt lat="44.78003" lon="1.61463">
        <ele>211.9</ele>
        <time>2010-01-01T00:00:00Z</time>
      </trkpt>
      <trkpt lat="44.78006" lon="1.61475">
        <ele>211.3</ele>
        <time>2010-01-01T00:00:00Z</time>
      </trkpt>
      <trkpt lat="44.78007" lon="1.61485">
        <ele>210.7</ele>
        <time>2010-01-01T00:00:00Z</time>
      </trkpt>
      <trkpt lat="44.78009" lon="1.61495">
        <ele>210.1</ele>
        <time>2010-01-01T00:00:00Z</time>
      </trkpt>
      <trkpt lat="44.78008" lon="1.61501">
        <ele>209.6</ele>
        <time>2010-01-01T00:00:00Z</time>
      </trkpt>
      <trkpt lat="44.78004" lon="1.61511">
        <ele>209.1</ele>
        <time>2010-01-01T00:00:00Z</time>
      </trkpt>
      <trkpt lat="44.78002" lon="1.61521">
        <ele>208.9</ele>
        <time>2010-01-01T00:00:00Z</time>
      </trkpt>
      <trkpt lat="44.78" lon="1.61534">
        <ele>208.6</ele>
        <time>2010-01-01T00:00:00Z</time>
      </trkpt>
      <trkpt lat="44.78001" lon="1.61549">
        <ele>208.4</ele>
        <time>2010-01-01T00:00:00Z</time>
      </trkpt>
      <trkpt lat="44.78007" lon="1.61563">
        <ele>208.2</ele>
        <time>2010-01-01T00:00:00Z</time>
      </trkpt>
      <trkpt lat="44.78016" lon="1.61577">
        <ele>207.6</ele>
        <time>2010-01-01T00:00:00Z</time>
      </trkpt>
      <trkpt lat="44.78022" lon="1.61583">
        <ele>207.2</ele>
        <time>2010-01-01T00:00:00Z</time>
      </trkpt>
      <trkpt lat="44.78029" lon="1.61588">
        <ele>206.8</ele>
        <time>2010-01-01T00:00:00Z</time>
      </trkpt>
      <trkpt lat="44.78041" lon="1.616">
        <ele>205.6</ele>
        <time>2010-01-01T00:00:00Z</time>
      </trkpt>
      <trkpt lat="44.78052" lon="1.61609">
        <ele>204.2</ele>
        <time>2010-01-01T00:00:00Z</time>
      </trkpt>
      <trkpt lat="44.78062" lon="1.61618">
        <ele>202.6</ele>
        <time>2010-01-01T00:00:00Z</time>
      </trkpt>
      <trkpt lat="44.7808" lon="1.61641">
        <ele>197.9</ele>
        <time>2010-01-01T00:00:00Z</time>
      </trkpt>
      <trkpt lat="44.78094" lon="1.61651">
        <ele>195.6</ele>
        <time>2010-01-01T00:00:00Z</time>
      </trkpt>
      <trkpt lat="44.78104" lon="1.61664">
        <ele>193.8</ele>
        <time>2010-01-01T00:00:00Z</time>
      </trkpt>
      <trkpt lat="44.78108" lon="1.61675">
        <ele>193.4</ele>
        <time>2010-01-01T00:00:00Z</time>
      </trkpt>
      <trkpt lat="44.78114" lon="1.61678">
        <ele>193.3</ele>
        <time>2010-01-01T00:00:00Z</time>
      </trkpt>
      <trkpt lat="44.78122" lon="1.61676">
        <ele>193.2</ele>
        <time>2010-01-01T00:00:00Z</time>
      </trkpt>
      <trkpt lat="44.78129" lon="1.61671">
        <ele>193</ele>
        <time>2010-01-01T00:00:00Z</time>
      </trkpt>
      <trkpt lat="44.78131" lon="1.61673">
        <ele>193</ele>
        <time>2010-01-01T00:00:00Z</time>
      </trkpt>
      <trkpt lat="44.78135" lon="1.61679">
        <ele>193.1</ele>
        <time>2010-01-01T00:00:00Z</time>
      </trkpt>
      <trkpt lat="44.78135" lon="1.61692">
        <ele>193.5</ele>
        <time>2010-01-01T00:00:00Z</time>
      </trkpt>
      <trkpt lat="44.78132" lon="1.61711">
        <ele>194</ele>
        <time>2010-01-01T00:00:00Z</time>
      </trkpt>
      <trkpt lat="44.7813" lon="1.61728">
        <ele>194.4</ele>
        <time>2010-01-01T00:00:00Z</time>
      </trkpt>
      <trkpt lat="44.78131" lon="1.61741">
        <ele>194.8</ele>
        <time>2010-01-01T00:00:00Z</time>
      </trkpt>
      <trkpt lat="44.78132" lon="1.61749">
        <ele>195.1</ele>
        <time>2010-01-01T00:00:00Z</time>
      </trkpt>
      <trkpt lat="44.78137" lon="1.61743">
        <ele>195.3</ele>
        <time>2010-01-01T00:00:00Z</time>
      </trkpt>
      <trkpt lat="44.7814" lon="1.61738">
        <ele>195.3</ele>
        <time>2010-01-01T00:00:00Z</time>
      </trkpt>
      <trkpt lat="44.7814" lon="1.61738">
        <ele>195.3</ele>
        <time>2010-01-01T00:00:00Z</time>
      </trkpt>
      <trkpt lat="44.78152" lon="1.61721">
        <ele>195.2</ele>
        <time>2010-01-01T00:00:00Z</time>
      </trkpt>
      <trkpt lat="44.78163" lon="1.61701">
        <ele>194.4</ele>
        <time>2010-01-01T00:00:00Z</time>
      </trkpt>
      <trkpt lat="44.78172" lon="1.61691">
        <ele>195.2</ele>
        <time>2010-01-01T00:00:00Z</time>
      </trkpt>
      <trkpt lat="44.78189" lon="1.61677">
        <ele>198.6</ele>
        <time>2010-01-01T00:00:00Z</time>
      </trkpt>
      <trkpt lat="44.78212" lon="1.61663">
        <ele>203.1</ele>
        <time>2010-01-01T00:00:00Z</time>
      </trkpt>
      <trkpt lat="44.78231" lon="1.61647">
        <ele>205.5</ele>
        <time>2010-01-01T00:00:00Z</time>
      </trkpt>
      <trkpt lat="44.78246" lon="1.61632">
        <ele>205.7</ele>
        <time>2010-01-01T00:00:00Z</time>
      </trkpt>
      <trkpt lat="44.78255" lon="1.61619">
        <ele>205.6</ele>
        <time>2010-01-01T00:00:00Z</time>
      </trkpt>
      <trkpt lat="44.78261" lon="1.61618">
        <ele>207.6</ele>
        <time>2010-01-01T00:00:00Z</time>
      </trkpt>
      <trkpt lat="44.78264" lon="1.61616">
        <ele>208.4</ele>
        <time>2010-01-01T00:00:00Z</time>
      </trkpt>
      <trkpt lat="44.78268" lon="1.61609">
        <ele>208.6</ele>
        <time>2010-01-01T00:00:00Z</time>
      </trkpt>
      <trkpt lat="44.78268" lon="1.61609">
        <ele>208.6</ele>
        <time>2010-01-01T00:00:00Z</time>
      </trkpt>
      <trkpt lat="44.78277" lon="1.61594">
        <ele>209.4</ele>
        <time>2010-01-01T00:00:00Z</time>
      </trkpt>
      <trkpt lat="44.78291" lon="1.61558">
        <ele>212.2</ele>
        <time>2010-01-01T00:00:00Z</time>
      </trkpt>
      <trkpt lat="44.78312" lon="1.61517">
        <ele>218.6</ele>
        <time>2010-01-01T00:00:00Z</time>
      </trkpt>
      <trkpt lat="44.78339" lon="1.61484">
        <ele>225.3</ele>
        <time>2010-01-01T00:00:00Z</time>
      </trkpt>
      <trkpt lat="44.78352" lon="1.6147">
        <ele>226.1</ele>
        <time>2010-01-01T00:00:00Z</time>
      </trkpt>
      <trkpt lat="44.78368" lon="1.61464">
        <ele>228.4</ele>
        <time>2010-01-01T00:00:00Z</time>
      </trkpt>
      <trkpt lat="44.78384" lon="1.6146">
        <ele>231</ele>
        <time>2010-01-01T00:00:00Z</time>
      </trkpt>
      <trkpt lat="44.78408" lon="1.61453">
        <ele>234.5</ele>
        <time>2010-01-01T00:00:00Z</time>
      </trkpt>
      <trkpt lat="44.78429" lon="1.61448">
        <ele>235.9</ele>
        <time>2010-01-01T00:00:00Z</time>
      </trkpt>
      <trkpt lat="44.78444" lon="1.61446">
        <ele>236.3</ele>
        <time>2010-01-01T00:00:00Z</time>
      </trkpt>
      <trkpt lat="44.78453" lon="1.61443">
        <ele>236.3</ele>
        <time>2010-01-01T00:00:00Z</time>
      </trkpt>
      <trkpt lat="44.78463" lon="1.61442">
        <ele>236.7</ele>
        <time>2010-01-01T00:00:00Z</time>
      </trkpt>
      <trkpt lat="44.78473" lon="1.61447">
        <ele>238</ele>
        <time>2010-01-01T00:00:00Z</time>
      </trkpt>
      <trkpt lat="44.78485" lon="1.61457">
        <ele>240.1</ele>
        <time>2010-01-01T00:00:00Z</time>
      </trkpt>
      <trkpt lat="44.78501" lon="1.61472">
        <ele>243.1</ele>
        <time>2010-01-01T00:00:00Z</time>
      </trkpt>
      <trkpt lat="44.78508" lon="1.61481">
        <ele>244.9</ele>
        <time>2010-01-01T00:00:00Z</time>
      </trkpt>
      <trkpt lat="44.78518" lon="1.61481">
        <ele>245.7</ele>
        <time>2010-01-01T00:00:00Z</time>
      </trkpt>
      <trkpt lat="44.78529" lon="1.61482">
        <ele>246.7</ele>
        <time>2010-01-01T00:00:00Z</time>
      </trkpt>
      <trkpt lat="44.78534" lon="1.61479">
        <ele>246.8</ele>
        <time>2010-01-01T00:00:00Z</time>
      </trkpt>
      <trkpt lat="44.78542" lon="1.6148">
        <ele>247.6</ele>
        <time>2010-01-01T00:00:00Z</time>
      </trkpt>
      <trkpt lat="44.78548" lon="1.61477">
        <ele>247.9</ele>
        <time>2010-01-01T00:00:00Z</time>
      </trkpt>
      <trkpt lat="44.78557" lon="1.6147">
        <ele>248.4</ele>
        <time>2010-01-01T00:00:00Z</time>
      </trkpt>
      <trkpt lat="44.7856" lon="1.61462">
        <ele>248.3</ele>
        <time>2010-01-01T00:00:00Z</time>
      </trkpt>
      <trkpt lat="44.78561" lon="1.6144">
        <ele>247.6</ele>
        <time>2010-01-01T00:00:00Z</time>
      </trkpt>
      <trkpt lat="44.78561" lon="1.61426">
        <ele>247.1</ele>
        <time>2010-01-01T00:00:00Z</time>
      </trkpt>
      <trkpt lat="44.78561" lon="1.61418">
        <ele>246.8</ele>
        <time>2010-01-01T00:00:00Z</time>
      </trkpt>
      <trkpt lat="44.7856" lon="1.61406">
        <ele>246.7</ele>
        <time>2010-01-01T00:00:00Z</time>
      </trkpt>
      <trkpt lat="44.78559" lon="1.6139">
        <ele>246.7</ele>
        <time>2010-01-01T00:00:00Z</time>
      </trkpt>
      <trkpt lat="44.78559" lon="1.61369">
        <ele>246.9</ele>
        <time>2010-01-01T00:00:00Z</time>
      </trkpt>
      <trkpt lat="44.78559" lon="1.61356">
        <ele>247.1</ele>
        <time>2010-01-01T00:00:00Z</time>
      </trkpt>
      <trkpt lat="44.78559" lon="1.61343">
        <ele>247.3</ele>
        <time>2010-01-01T00:00:00Z</time>
      </trkpt>
      <trkpt lat="44.78554" lon="1.61333">
        <ele>245.9</ele>
        <time>2010-01-01T00:00:00Z</time>
      </trkpt>
      <trkpt lat="44.78551" lon="1.61325">
        <ele>245.7</ele>
        <time>2010-01-01T00:00:00Z</time>
      </trkpt>
      <trkpt lat="44.78551" lon="1.61314">
        <ele>246.7</ele>
        <time>2010-01-01T00:00:00Z</time>
      </trkpt>
      <trkpt lat="44.78552" lon="1.613">
        <ele>248.2</ele>
        <time>2010-01-01T00:00:00Z</time>
      </trkpt>
      <trkpt lat="44.78551" lon="1.61268">
        <ele>250.8</ele>
        <time>2010-01-01T00:00:00Z</time>
      </trkpt>
      <trkpt lat="44.78551" lon="1.61259">
        <ele>251.6</ele>
        <time>2010-01-01T00:00:00Z</time>
      </trkpt>
      <trkpt lat="44.78552" lon="1.61252">
        <ele>252.5</ele>
        <time>2010-01-01T00:00:00Z</time>
      </trkpt>
      <trkpt lat="44.7855" lon="1.61242">
        <ele>252.6</ele>
        <time>2010-01-01T00:00:00Z</time>
      </trkpt>
      <trkpt lat="44.78549" lon="1.61227">
        <ele>253.1</ele>
        <time>2010-01-01T00:00:00Z</time>
      </trkpt>
      <trkpt lat="44.78552" lon="1.61205">
        <ele>254.8</ele>
        <time>2010-01-01T00:00:00Z</time>
      </trkpt>
      <trkpt lat="44.7856" lon="1.61186">
        <ele>257</ele>
        <time>2010-01-01T00:00:00Z</time>
      </trkpt>
      <trkpt lat="44.78572" lon="1.61131">
        <ele>258.5</ele>
        <time>2010-01-01T00:00:00Z</time>
      </trkpt>
      <trkpt lat="44.78574" lon="1.61122">
        <ele>258.6</ele>
        <time>2010-01-01T00:00:00Z</time>
      </trkpt>
      <trkpt lat="44.78594" lon="1.61099">
        <ele>260.1</ele>
        <time>2010-01-01T00:00:00Z</time>
      </trkpt>
      <trkpt lat="44.78624" lon="1.61063">
        <ele>261.1</ele>
        <time>2010-01-01T00:00:00Z</time>
      </trkpt>
      <trkpt lat="44.78631" lon="1.61059">
        <ele>261.3</ele>
        <time>2010-01-01T00:00:00Z</time>
      </trkpt>
      <trkpt lat="44.78638" lon="1.61058">
        <ele>261.7</ele>
        <time>2010-01-01T00:00:00Z</time>
      </trkpt>
      <trkpt lat="44.78648" lon="1.61058">
        <ele>262.3</ele>
        <time>2010-01-01T00:00:00Z</time>
      </trkpt>
      <trkpt lat="44.78661" lon="1.61061">
        <ele>263.3</ele>
        <time>2010-01-01T00:00:00Z</time>
      </trkpt>
      <trkpt lat="44.78694" lon="1.61076">
        <ele>263.7</ele>
        <time>2010-01-01T00:00:00Z</time>
      </trkpt>
      <trkpt lat="44.78711" lon="1.61085">
        <ele>263.3</ele>
        <time>2010-01-01T00:00:00Z</time>
      </trkpt>
      <trkpt lat="44.78717" lon="1.61086">
        <ele>263.1</ele>
        <time>2010-01-01T00:00:00Z</time>
      </trkpt>
      <trkpt lat="44.78724" lon="1.61085">
        <ele>262.8</ele>
        <time>2010-01-01T00:00:00Z</time>
      </trkpt>
      <trkpt lat="44.78737" lon="1.61079">
        <ele>262.4</ele>
        <time>2010-01-01T00:00:00Z</time>
      </trkpt>
      <trkpt lat="44.78758" lon="1.61058">
        <ele>260.8</ele>
        <time>2010-01-01T00:00:00Z</time>
      </trkpt>
      <trkpt lat="44.78754" lon="1.61071">
        <ele>261.3</ele>
        <time>2010-01-01T00:00:00Z</time>
      </trkpt>
      <trkpt lat="44.78754" lon="1.61071">
        <ele>261.3</ele>
        <time>2010-01-01T00:00:00Z</time>
      </trkpt>
      <trkpt lat="44.78758" lon="1.61058">
        <ele>260.8</ele>
        <time>2010-01-01T00:00:00Z</time>
      </trkpt>
      <trkpt lat="44.78769" lon="1.61028">
        <ele>260</ele>
        <time>2010-01-01T00:00:00Z</time>
      </trkpt>
      <trkpt lat="44.78778" lon="1.60992">
        <ele>260.3</ele>
        <time>2010-01-01T00:00:00Z</time>
      </trkpt>
      <trkpt lat="44.78782" lon="1.60971">
        <ele>260.2</ele>
        <time>2010-01-01T00:00:00Z</time>
      </trkpt>
      <trkpt lat="44.78786" lon="1.60938">
        <ele>260.3</ele>
        <time>2010-01-01T00:00:00Z</time>
      </trkpt>
      <trkpt lat="44.78791" lon="1.60911">
        <ele>260.2</ele>
        <time>2010-01-01T00:00:00Z</time>
      </trkpt>
      <trkpt lat="44.78801" lon="1.60884">
        <ele>259.2</ele>
        <time>2010-01-01T00:00:00Z</time>
      </trkpt>
      <trkpt lat="44.78808" lon="1.60857">
        <ele>257.9</ele>
        <time>2010-01-01T00:00:00Z</time>
      </trkpt>
      <trkpt lat="44.78809" lon="1.60852">
        <ele>257.7</ele>
        <time>2010-01-01T00:00:00Z</time>
      </trkpt>
      <trkpt lat="44.78809" lon="1.60852">
        <ele>257.7</ele>
        <time>2010-01-01T00:00:00Z</time>
      </trkpt>
      <trkpt lat="44.78809" lon="1.60852">
        <ele>257.7</ele>
        <time>2010-01-01T00:00:00Z</time>
      </trkpt>
      <trkpt lat="44.78809" lon="1.60848">
        <ele>257.5</ele>
        <time>2010-01-01T00:00:00Z</time>
      </trkpt>
      <trkpt lat="44.78811" lon="1.60859">
        <ele>258.1</ele>
        <time>2010-01-01T00:00:00Z</time>
      </trkpt>
      <trkpt lat="44.78813" lon="1.60872">
        <ele>258.8</ele>
        <time>2010-01-01T00:00:00Z</time>
      </trkpt>
      <trkpt lat="44.78818" lon="1.60881">
        <ele>259.5</ele>
        <time>2010-01-01T00:00:00Z</time>
      </trkpt>
      <trkpt lat="44.78825" lon="1.60892">
        <ele>260.3</ele>
        <time>2010-01-01T00:00:00Z</time>
      </trkpt>
      <trkpt lat="44.78847" lon="1.60915">
        <ele>262.1</ele>
        <time>2010-01-01T00:00:00Z</time>
      </trkpt>
      <trkpt lat="44.78886" lon="1.60941">
        <ele>261.4</ele>
        <time>2010-01-01T00:00:00Z</time>
      </trkpt>
      <trkpt lat="44.78922" lon="1.60955">
        <ele>260.7</ele>
        <time>2010-01-01T00:00:00Z</time>
      </trkpt>
      <trkpt lat="44.78946" lon="1.60964">
        <ele>260.3</ele>
        <time>2010-01-01T00:00:00Z</time>
      </trkpt>
      <trkpt lat="44.78953" lon="1.60963">
        <ele>260.4</ele>
        <time>2010-01-01T00:00:00Z</time>
      </trkpt>
      <trkpt lat="44.78954" lon="1.60967">
        <ele>260.3</ele>
        <time>2010-01-01T00:00:00Z</time>
      </trkpt>
      <trkpt lat="44.78957" lon="1.6097">
        <ele>260.2</ele>
        <time>2010-01-01T00:00:00Z</time>
      </trkpt>
      <trkpt lat="44.78961" lon="1.60973">
        <ele>260.2</ele>
        <time>2010-01-01T00:00:00Z</time>
      </trkpt>
      <trkpt lat="44.78973" lon="1.6098">
        <ele>260.3</ele>
        <time>2010-01-01T00:00:00Z</time>
      </trkpt>
      <trkpt lat="44.78986" lon="1.60989">
        <ele>260.5</ele>
        <time>2010-01-01T00:00:00Z</time>
      </trkpt>
      <trkpt lat="44.78999" lon="1.61004">
        <ele>260.8</ele>
        <time>2010-01-01T00:00:00Z</time>
      </trkpt>
      <trkpt lat="44.79015" lon="1.61014">
        <ele>260.7</ele>
        <time>2010-01-01T00:00:00Z</time>
      </trkpt>
      <trkpt lat="44.79046" lon="1.61026">
        <ele>261.5</ele>
        <time>2010-01-01T00:00:00Z</time>
      </trkpt>
      <trkpt lat="44.79051" lon="1.61032">
        <ele>261.7</ele>
        <time>2010-01-01T00:00:00Z</time>
      </trkpt>
      <trkpt lat="44.79052" lon="1.61038">
        <ele>261.8</ele>
        <time>2010-01-01T00:00:00Z</time>
      </trkpt>
      <trkpt lat="44.79066" lon="1.61043">
        <ele>262.6</ele>
        <time>2010-01-01T00:00:00Z</time>
      </trkpt>
      <trkpt lat="44.79101" lon="1.61055">
        <ele>264</ele>
        <time>2010-01-01T00:00:00Z</time>
      </trkpt>
      <trkpt lat="44.79151" lon="1.61072">
        <ele>265.1</ele>
        <time>2010-01-01T00:00:00Z</time>
      </trkpt>
      <trkpt lat="44.79189" lon="1.61086">
        <ele>265.1</ele>
        <time>2010-01-01T00:00:00Z</time>
      </trkpt>
      <trkpt lat="44.79219" lon="1.61093">
        <ele>264</ele>
        <time>2010-01-01T00:00:00Z</time>
      </trkpt>
      <trkpt lat="44.79238" lon="1.61097">
        <ele>263.4</ele>
        <time>2010-01-01T00:00:00Z</time>
      </trkpt>
      <trkpt lat="44.7927" lon="1.61106">
        <ele>261.8</ele>
        <time>2010-01-01T00:00:00Z</time>
      </trkpt>
      <trkpt lat="44.79294" lon="1.61114">
        <ele>260.3</ele>
        <time>2010-01-01T00:00:00Z</time>
      </trkpt>
      <trkpt lat="44.79297" lon="1.61115">
        <ele>260.1</ele>
        <time>2010-01-01T00:00:00Z</time>
      </trkpt>
      <trkpt lat="44.79315" lon="1.61119">
        <ele>258.8</ele>
        <time>2010-01-01T00:00:00Z</time>
      </trkpt>
      <trkpt lat="44.79325" lon="1.6112">
        <ele>258</ele>
        <time>2010-01-01T00:00:00Z</time>
      </trkpt>
      <trkpt lat="44.79345" lon="1.61116">
        <ele>255.2</ele>
        <time>2010-01-01T00:00:00Z</time>
      </trkpt>
      <trkpt lat="44.79365" lon="1.61109">
        <ele>251.5</ele>
        <time>2010-01-01T00:00:00Z</time>
      </trkpt>
      <trkpt lat="44.79395" lon="1.61095">
        <ele>246</ele>
        <time>2010-01-01T00:00:00Z</time>
      </trkpt>
      <trkpt lat="44.79414" lon="1.61091">
        <ele>242.6</ele>
        <time>2010-01-01T00:00:00Z</time>
      </trkpt>
      <trkpt lat="44.79428" lon="1.61091">
        <ele>239.4</ele>
        <time>2010-01-01T00:00:00Z</time>
      </trkpt>
      <trkpt lat="44.79444" lon="1.611">
        <ele>235.5</ele>
        <time>2010-01-01T00:00:00Z</time>
      </trkpt>
      <trkpt lat="44.79456" lon="1.61109">
        <ele>232.4</ele>
        <time>2010-01-01T00:00:00Z</time>
      </trkpt>
      <trkpt lat="44.79467" lon="1.61116">
        <ele>229.5</ele>
        <time>2010-01-01T00:00:00Z</time>
      </trkpt>
      <trkpt lat="44.7948" lon="1.61118">
        <ele>226.1</ele>
        <time>2010-01-01T00:00:00Z</time>
      </trkpt>
      <trkpt lat="44.79502" lon="1.61112">
        <ele>219.9</ele>
        <time>2010-01-01T00:00:00Z</time>
      </trkpt>
      <trkpt lat="44.79515" lon="1.61108">
        <ele>213.2</ele>
        <time>2010-01-01T00:00:00Z</time>
      </trkpt>
      <trkpt lat="44.79516" lon="1.61113">
        <ele>212.5</ele>
        <time>2010-01-01T00:00:00Z</time>
      </trkpt>
      <trkpt lat="44.79516" lon="1.61113">
        <ele>212.5</ele>
        <time>2010-01-01T00:00:00Z</time>
      </trkpt>
      <trkpt lat="44.79515" lon="1.61108">
        <ele>213.2</ele>
        <time>2010-01-01T00:00:00Z</time>
      </trkpt>
      <trkpt lat="44.79548" lon="1.61094">
        <ele>197</ele>
        <time>2010-01-01T00:00:00Z</time>
      </trkpt>
      <trkpt lat="44.79552" lon="1.61093">
        <ele>195</ele>
        <time>2010-01-01T00:00:00Z</time>
      </trkpt>
      <trkpt lat="44.79554" lon="1.61096">
        <ele>193.7</ele>
        <time>2010-01-01T00:00:00Z</time>
      </trkpt>
      <trkpt lat="44.79561" lon="1.61131">
        <ele>187</ele>
        <time>2010-01-01T00:00:00Z</time>
      </trkpt>
      <trkpt lat="44.79562" lon="1.61139">
        <ele>185.8</ele>
        <time>2010-01-01T00:00:00Z</time>
      </trkpt>
      <trkpt lat="44.7956" lon="1.61149">
        <ele>186</ele>
        <time>2010-01-01T00:00:00Z</time>
      </trkpt>
      <trkpt lat="44.79558" lon="1.61158">
        <ele>186.3</ele>
        <time>2010-01-01T00:00:00Z</time>
      </trkpt>
      <trkpt lat="44.79551" lon="1.61184">
        <ele>185.6</ele>
        <time>2010-01-01T00:00:00Z</time>
      </trkpt>
      <trkpt lat="44.79548" lon="1.6119">
        <ele>186</ele>
        <time>2010-01-01T00:00:00Z</time>
      </trkpt>
      <trkpt lat="44.79543" lon="1.61195">
        <ele>187.8</ele>
        <time>2010-01-01T00:00:00Z</time>
      </trkpt>
      <trkpt lat="44.79537" lon="1.61202">
        <ele>189.7</ele>
        <time>2010-01-01T00:00:00Z</time>
      </trkpt>
      <trkpt lat="44.79531" lon="1.61209">
        <ele>191.6</ele>
        <time>2010-01-01T00:00:00Z</time>
      </trkpt>
      <trkpt lat="44.79523" lon="1.61218">
        <ele>194.3</ele>
        <time>2010-01-01T00:00:00Z</time>
      </trkpt>
      <trkpt lat="44.79515" lon="1.61226">
        <ele>197.3</ele>
        <time>2010-01-01T00:00:00Z</time>
      </trkpt>
      <trkpt lat="44.79508" lon="1.61234">
        <ele>199.7</ele>
        <time>2010-01-01T00:00:00Z</time>
      </trkpt>
      <trkpt lat="44.79501" lon="1.61243">
        <ele>201.9</ele>
        <time>2010-01-01T00:00:00Z</time>
      </trkpt>
      <trkpt lat="44.79495" lon="1.61253">
        <ele>202.5</ele>
        <time>2010-01-01T00:00:00Z</time>
      </trkpt>
      <trkpt lat="44.79489" lon="1.61263">
        <ele>202.7</ele>
        <time>2010-01-01T00:00:00Z</time>
      </trkpt>
      <trkpt lat="44.79483" lon="1.61271">
        <ele>203.7</ele>
        <time>2010-01-01T00:00:00Z</time>
      </trkpt>
      <trkpt lat="44.79478" lon="1.61281">
        <ele>203.9</ele>
        <time>2010-01-01T00:00:00Z</time>
      </trkpt>
      <trkpt lat="44.79474" lon="1.61291">
        <ele>203.7</ele>
        <time>2010-01-01T00:00:00Z</time>
      </trkpt>
      <trkpt lat="44.79469" lon="1.61299">
        <ele>204.7</ele>
        <time>2010-01-01T00:00:00Z</time>
      </trkpt>
      <trkpt lat="44.79465" lon="1.61306">
        <ele>205.5</ele>
        <time>2010-01-01T00:00:00Z</time>
      </trkpt>
      <trkpt lat="44.7946" lon="1.61315">
        <ele>206.5</ele>
        <time>2010-01-01T00:00:00Z</time>
      </trkpt>
      <trkpt lat="44.79457" lon="1.61323">
        <ele>206.8</ele>
        <time>2010-01-01T00:00:00Z</time>
      </trkpt>
      <trkpt lat="44.79454" lon="1.61334">
        <ele>206.7</ele>
        <time>2010-01-01T00:00:00Z</time>
      </trkpt>
      <trkpt lat="44.79453" lon="1.61342">
        <ele>206.8</ele>
        <time>2010-01-01T00:00:00Z</time>
      </trkpt>
      <trkpt lat="44.79455" lon="1.61357">
        <ele>204.7</ele>
        <time>2010-01-01T00:00:00Z</time>
      </trkpt>
      <trkpt lat="44.79456" lon="1.61368">
        <ele>203.4</ele>
        <time>2010-01-01T00:00:00Z</time>
      </trkpt>
      <trkpt lat="44.79456" lon="1.61377">
        <ele>202.9</ele>
        <time>2010-01-01T00:00:00Z</time>
      </trkpt>
      <trkpt lat="44.79456" lon="1.61391">
        <ele>202.1</ele>
        <time>2010-01-01T00:00:00Z</time>
      </trkpt>
      <trkpt lat="44.79456" lon="1.61404">
        <ele>201.4</ele>
        <time>2010-01-01T00:00:00Z</time>
      </trkpt>
      <trkpt lat="44.79457" lon="1.61414">
        <ele>200.1</ele>
        <time>2010-01-01T00:00:00Z</time>
      </trkpt>
      <trkpt lat="44.79459" lon="1.61427">
        <ele>199.9</ele>
        <time>2010-01-01T00:00:00Z</time>
      </trkpt>
      <trkpt lat="44.79463" lon="1.61438">
        <ele>198.6</ele>
        <time>2010-01-01T00:00:00Z</time>
      </trkpt>
      <trkpt lat="44.79467" lon="1.61453">
        <ele>197.8</ele>
        <time>2010-01-01T00:00:00Z</time>
      </trkpt>
      <trkpt lat="44.79481" lon="1.61493">
        <ele>193.3</ele>
        <time>2010-01-01T00:00:00Z</time>
      </trkpt>
      <trkpt lat="44.79486" lon="1.61506">
        <ele>191.8</ele>
        <time>2010-01-01T00:00:00Z</time>
      </trkpt>
      <trkpt lat="44.79494" lon="1.61524">
        <ele>189.6</ele>
        <time>2010-01-01T00:00:00Z</time>
      </trkpt>
      <trkpt lat="44.79503" lon="1.61543">
        <ele>187.8</ele>
        <time>2010-01-01T00:00:00Z</time>
      </trkpt>
      <trkpt lat="44.79501" lon="1.61532">
        <ele>186.7</ele>
        <time>2010-01-01T00:00:00Z</time>
      </trkpt>
      <trkpt lat="44.795" lon="1.61517">
        <ele>184.3</ele>
        <time>2010-01-01T00:00:00Z</time>
      </trkpt>
      <trkpt lat="44.79498" lon="1.61498">
        <ele>182.1</ele>
        <time>2010-01-01T00:00:00Z</time>
      </trkpt>
      <trkpt lat="44.79496" lon="1.61484">
        <ele>181.7</ele>
        <time>2010-01-01T00:00:00Z</time>
      </trkpt>
      <trkpt lat="44.79495" lon="1.61466">
        <ele>180</ele>
        <time>2010-01-01T00:00:00Z</time>
      </trkpt>
      <trkpt lat="44.79496" lon="1.61442">
        <ele>176.1</ele>
        <time>2010-01-01T00:00:00Z</time>
      </trkpt>
      <trkpt lat="44.79499" lon="1.61441">
        <ele>173.9</ele>
        <time>2010-01-01T00:00:00Z</time>
      </trkpt>
      <trkpt lat="44.79502" lon="1.61447">
        <ele>173.2</ele>
        <time>2010-01-01T00:00:00Z</time>
      </trkpt>
      <trkpt lat="44.79527" lon="1.61485">
        <ele>167.8</ele>
        <time>2010-01-01T00:00:00Z</time>
      </trkpt>
      <trkpt lat="44.79536" lon="1.615">
        <ele>165.4</ele>
        <time>2010-01-01T00:00:00Z</time>
      </trkpt>
      <trkpt lat="44.79546" lon="1.61513">
        <ele>162.8</ele>
        <time>2010-01-01T00:00:00Z</time>
      </trkpt>
      <trkpt lat="44.79555" lon="1.61524">
        <ele>160.1</ele>
        <time>2010-01-01T00:00:00Z</time>
      </trkpt>
      <trkpt lat="44.79562" lon="1.61533">
        <ele>157.9</ele>
        <time>2010-01-01T00:00:00Z</time>
      </trkpt>
      <trkpt lat="44.79569" lon="1.6154">
        <ele>155.3</ele>
        <time>2010-01-01T00:00:00Z</time>
      </trkpt>
      <trkpt lat="44.79575" lon="1.61548">
        <ele>153.2</ele>
        <time>2010-01-01T00:00:00Z</time>
      </trkpt>
      <trkpt lat="44.79576" lon="1.6155">
        <ele>152.8</ele>
        <time>2010-01-01T00:00:00Z</time>
      </trkpt>
      <trkpt lat="44.79576" lon="1.6155">
        <ele>152.8</ele>
        <time>2010-01-01T00:00:00Z</time>
      </trkpt>
      <trkpt lat="44.79576" lon="1.6155">
        <ele>152.8</ele>
        <time>2010-01-01T00:00:00Z</time>
      </trkpt>
      <trkpt lat="44.79588" lon="1.61568">
        <ele>150.4</ele>
        <time>2010-01-01T00:00:00Z</time>
      </trkpt>
      <trkpt lat="44.79598" lon="1.61583">
        <ele>150.4</ele>
        <time>2010-01-01T00:00:00Z</time>
      </trkpt>
      <trkpt lat="44.79623" lon="1.6161">
        <ele>151.3</ele>
        <time>2010-01-01T00:00:00Z</time>
      </trkpt>
      <trkpt lat="44.79638" lon="1.61626">
        <ele>149.3</ele>
        <time>2010-01-01T00:00:00Z</time>
      </trkpt>
      <trkpt lat="44.79643" lon="1.61633">
        <ele>148.3</ele>
        <time>2010-01-01T00:00:00Z</time>
      </trkpt>
      <trkpt lat="44.79647" lon="1.61637">
        <ele>147.3</ele>
        <time>2010-01-01T00:00:00Z</time>
      </trkpt>
      <trkpt lat="44.7965" lon="1.61637">
        <ele>146.3</ele>
        <time>2010-01-01T00:00:00Z</time>
      </trkpt>
      <trkpt lat="44.79653" lon="1.61636">
        <ele>145.4</ele>
        <time>2010-01-01T00:00:00Z</time>
      </trkpt>
      <trkpt lat="44.79658" lon="1.61635">
        <ele>143.8</ele>
        <time>2010-01-01T00:00:00Z</time>
      </trkpt>
      <trkpt lat="44.79661" lon="1.61633">
        <ele>142.9</ele>
        <time>2010-01-01T00:00:00Z</time>
      </trkpt>
      <trkpt lat="44.7967" lon="1.61628">
        <ele>142.4</ele>
        <time>2010-01-01T00:00:00Z</time>
      </trkpt>
      <trkpt lat="44.79671" lon="1.61628">
        <ele>142.8</ele>
        <time>2010-01-01T00:00:00Z</time>
      </trkpt>
      <trkpt lat="44.79676" lon="1.61628">
        <ele>144.3</ele>
        <time>2010-01-01T00:00:00Z</time>
      </trkpt>
      <trkpt lat="44.79682" lon="1.61624">
        <ele>146.5</ele>
        <time>2010-01-01T00:00:00Z</time>
      </trkpt>
      <trkpt lat="44.79688" lon="1.61621">
        <ele>148.8</ele>
        <time>2010-01-01T00:00:00Z</time>
      </trkpt>
      <trkpt lat="44.79688" lon="1.61621">
        <ele>148.8</ele>
        <time>2010-01-01T00:00:00Z</time>
      </trkpt>
      <trkpt lat="44.79691" lon="1.61619">
        <ele>150</ele>
        <time>2010-01-01T00:00:00Z</time>
      </trkpt>
      <trkpt lat="44.79689" lon="1.61613">
        <ele>149.9</ele>
        <time>2010-01-01T00:00:00Z</time>
      </trkpt>
      <trkpt lat="44.79682" lon="1.61594">
        <ele>149</ele>
        <time>2010-01-01T00:00:00Z</time>
      </trkpt>
      <trkpt lat="44.79656" lon="1.61528">
        <ele>152.8</ele>
        <time>2010-01-01T00:00:00Z</time>
      </trkpt>
      <trkpt lat="44.79636" lon="1.61477">
        <ele>155.2</ele>
        <time>2010-01-01T00:00:00Z</time>
      </trkpt>
      <trkpt lat="44.79622" lon="1.61426">
        <ele>153.7</ele>
        <time>2010-01-01T00:00:00Z</time>
      </trkpt>
      <trkpt lat="44.7962" lon="1.61416">
        <ele>153.3</ele>
        <time>2010-01-01T00:00:00Z</time>
      </trkpt>
      <trkpt lat="44.79618" lon="1.61406">
        <ele>152.3</ele>
        <time>2010-01-01T00:00:00Z</time>
      </trkpt>
      <trkpt lat="44.79617" lon="1.61398">
        <ele>151.7</ele>
        <time>2010-01-01T00:00:00Z</time>
      </trkpt>
      <trkpt lat="44.79618" lon="1.61395">
        <ele>151.9</ele>
        <time>2010-01-01T00:00:00Z</time>
      </trkpt>
      <trkpt lat="44.79618" lon="1.6139">
        <ele>151.8</ele>
        <time>2010-01-01T00:00:00Z</time>
      </trkpt>
      <trkpt lat="44.79619" lon="1.6138">
        <ele>151.7</ele>
        <time>2010-01-01T00:00:00Z</time>
      </trkpt>
      <trkpt lat="44.7962" lon="1.6137">
        <ele>151.7</ele>
        <time>2010-01-01T00:00:00Z</time>
      </trkpt>
      <trkpt lat="44.79622" lon="1.6136">
        <ele>151.8</ele>
        <time>2010-01-01T00:00:00Z</time>
      </trkpt>
      <trkpt lat="44.7963" lon="1.61335">
        <ele>152.7</ele>
        <time>2010-01-01T00:00:00Z</time>
      </trkpt>
      <trkpt lat="44.79631" lon="1.61329">
        <ele>152.5</ele>
        <time>2010-01-01T00:00:00Z</time>
      </trkpt>
      <trkpt lat="44.79655" lon="1.61279">
        <ele>149.1</ele>
        <time>2010-01-01T00:00:00Z</time>
      </trkpt>
      <trkpt lat="44.7968" lon="1.61237">
        <ele>149.4</ele>
        <time>2010-01-01T00:00:00Z</time>
      </trkpt>
      <trkpt lat="44.79683" lon="1.61231">
        <ele>150.5</ele>
        <time>2010-01-01T00:00:00Z</time>
      </trkpt>
      <trkpt lat="44.79686" lon="1.61225">
        <ele>151.6</ele>
        <time>2010-01-01T00:00:00Z</time>
      </trkpt>
      <trkpt lat="44.79687" lon="1.61218">
        <ele>151.6</ele>
        <time>2010-01-01T00:00:00Z</time>
      </trkpt>
      <trkpt lat="44.79692" lon="1.61195">
        <ele>152.2</ele>
        <time>2010-01-01T00:00:00Z</time>
      </trkpt>
      <trkpt lat="44.79703" lon="1.61137">
        <ele>152.8</ele>
        <time>2010-01-01T00:00:00Z</time>
      </trkpt>
      <trkpt lat="44.79711" lon="1.61094">
        <ele>152.6</ele>
        <time>2010-01-01T00:00:00Z</time>
      </trkpt>
      <trkpt lat="44.79721" lon="1.61051">
        <ele>154.8</ele>
        <time>2010-01-01T00:00:00Z</time>
      </trkpt>
      <trkpt lat="44.79722" lon="1.61043">
        <ele>155.1</ele>
        <time>2010-01-01T00:00:00Z</time>
      </trkpt>
      <trkpt lat="44.79723" lon="1.61035">
        <ele>155.4</ele>
        <time>2010-01-01T00:00:00Z</time>
      </trkpt>
      <trkpt lat="44.79721" lon="1.61023">
        <ele>154.9</ele>
        <time>2010-01-01T00:00:00Z</time>
      </trkpt>
      <trkpt lat="44.7972" lon="1.61019">
        <ele>154.6</ele>
        <time>2010-01-01T00:00:00Z</time>
      </trkpt>
      <trkpt lat="44.79716" lon="1.61011">
        <ele>153.6</ele>
        <time>2010-01-01T00:00:00Z</time>
      </trkpt>
      <trkpt lat="44.79715" lon="1.61007">
        <ele>153.3</ele>
        <time>2010-01-01T00:00:00Z</time>
      </trkpt>
      <trkpt lat="44.79709" lon="1.60997">
        <ele>152.7</ele>
        <time>2010-01-01T00:00:00Z</time>
      </trkpt>
      <trkpt lat="44.79698" lon="1.60982">
        <ele>154.1</ele>
        <time>2010-01-01T00:00:00Z</time>
      </trkpt>
      <trkpt lat="44.79684" lon="1.60962">
        <ele>155.1</ele>
        <time>2010-01-01T00:00:00Z</time>
      </trkpt>
      <trkpt lat="44.79662" lon="1.60934">
        <ele>154.5</ele>
        <time>2010-01-01T00:00:00Z</time>
      </trkpt>
      <trkpt lat="44.79641" lon="1.60907">
        <ele>156.3</ele>
        <time>2010-01-01T00:00:00Z</time>
      </trkpt>
      <trkpt lat="44.79622" lon="1.60885">
        <ele>157.5</ele>
        <time>2010-01-01T00:00:00Z</time>
      </trkpt>
      <trkpt lat="44.79604" lon="1.60868">
        <ele>155.6</ele>
        <time>2010-01-01T00:00:00Z</time>
      </trkpt>
      <trkpt lat="44.79589" lon="1.60851">
        <ele>153.3</ele>
        <time>2010-01-01T00:00:00Z</time>
      </trkpt>
      <trkpt lat="44.79575" lon="1.60836">
        <ele>152.4</ele>
        <time>2010-01-01T00:00:00Z</time>
      </trkpt>
      <trkpt lat="44.79553" lon="1.60819">
        <ele>151.9</ele>
        <time>2010-01-01T00:00:00Z</time>
      </trkpt>
      <trkpt lat="44.79529" lon="1.60801">
        <ele>148.6</ele>
        <time>2010-01-01T00:00:00Z</time>
      </trkpt>
      <trkpt lat="44.79514" lon="1.60783">
        <ele>145.2</ele>
        <time>2010-01-01T00:00:00Z</time>
      </trkpt>
      <trkpt lat="44.79507" lon="1.6077">
        <ele>143</ele>
        <time>2010-01-01T00:00:00Z</time>
      </trkpt>
      <trkpt lat="44.79499" lon="1.6075">
        <ele>140.3</ele>
        <time>2010-01-01T00:00:00Z</time>
      </trkpt>
      <trkpt lat="44.79496" lon="1.60737">
        <ele>141.7</ele>
        <time>2010-01-01T00:00:00Z</time>
      </trkpt>
      <trkpt lat="44.79494" lon="1.60723">
        <ele>142.8</ele>
        <time>2010-01-01T00:00:00Z</time>
      </trkpt>
      <trkpt lat="44.79494" lon="1.60697">
        <ele>143.5</ele>
        <time>2010-01-01T00:00:00Z</time>
      </trkpt>
      <trkpt lat="44.79497" lon="1.60682">
        <ele>142.8</ele>
        <time>2010-01-01T00:00:00Z</time>
      </trkpt>
      <trkpt lat="44.79499" lon="1.60667">
        <ele>142.4</ele>
        <time>2010-01-01T00:00:00Z</time>
      </trkpt>
      <trkpt lat="44.79503" lon="1.60651">
        <ele>142.9</ele>
        <time>2010-01-01T00:00:00Z</time>
      </trkpt>
      <trkpt lat="44.79508" lon="1.60636">
        <ele>144.5</ele>
        <time>2010-01-01T00:00:00Z</time>
      </trkpt>
      <trkpt lat="44.79513" lon="1.60623">
        <ele>145.9</ele>
        <time>2010-01-01T00:00:00Z</time>
      </trkpt>
      <trkpt lat="44.79524" lon="1.60596">
        <ele>148.3</ele>
        <time>2010-01-01T00:00:00Z</time>
      </trkpt>
      <trkpt lat="44.79542" lon="1.60557">
        <ele>150.4</ele>
        <time>2010-01-01T00:00:00Z</time>
      </trkpt>
      <trkpt lat="44.79557" lon="1.60525">
        <ele>149.6</ele>
        <time>2010-01-01T00:00:00Z</time>
      </trkpt>
      <trkpt lat="44.79562" lon="1.60511">
        <ele>148.4</ele>
        <time>2010-01-01T00:00:00Z</time>
      </trkpt>
      <trkpt lat="44.79568" lon="1.60483">
        <ele>147.1</ele>
        <time>2010-01-01T00:00:00Z</time>
      </trkpt>
      <trkpt lat="44.79573" lon="1.60453">
        <ele>147.3</ele>
        <time>2010-01-01T00:00:00Z</time>
      </trkpt>
      <trkpt lat="44.79575" lon="1.60435">
        <ele>147.2</ele>
        <time>2010-01-01T00:00:00Z</time>
      </trkpt>
      <trkpt lat="44.79576" lon="1.60423">
        <ele>147.2</ele>
        <time>2010-01-01T00:00:00Z</time>
      </trkpt>
      <trkpt lat="44.79576" lon="1.60412">
        <ele>148</ele>
        <time>2010-01-01T00:00:00Z</time>
      </trkpt>
      <trkpt lat="44.79573" lon="1.60398">
        <ele>150.3</ele>
        <time>2010-01-01T00:00:00Z</time>
      </trkpt>
      <trkpt lat="44.79563" lon="1.60373">
        <ele>152.6</ele>
        <time>2010-01-01T00:00:00Z</time>
      </trkpt>
      <trkpt lat="44.79542" lon="1.60336">
        <ele>151.3</ele>
        <time>2010-01-01T00:00:00Z</time>
      </trkpt>
      <trkpt lat="44.79508" lon="1.60275">
        <ele>144.7</ele>
        <time>2010-01-01T00:00:00Z</time>
      </trkpt>
      <trkpt lat="44.79491" lon="1.60243">
        <ele>144.8</ele>
        <time>2010-01-01T00:00:00Z</time>
      </trkpt>
      <trkpt lat="44.79475" lon="1.60204">
        <ele>148.2</ele>
        <time>2010-01-01T00:00:00Z</time>
      </trkpt>
      <trkpt lat="44.79457" lon="1.60161">
        <ele>146.7</ele>
        <time>2010-01-01T00:00:00Z</time>
      </trkpt>
      <trkpt lat="44.79445" lon="1.60139">
        <ele>145.7</ele>
        <time>2010-01-01T00:00:00Z</time>
      </trkpt>
      <trkpt lat="44.79434" lon="1.60124">
        <ele>143.9</ele>
        <time>2010-01-01T00:00:00Z</time>
      </trkpt>
      <trkpt lat="44.79429" lon="1.60114">
        <ele>143.1</ele>
        <time>2010-01-01T00:00:00Z</time>
      </trkpt>
      <trkpt lat="44.79427" lon="1.60099">
        <ele>143.4</ele>
        <time>2010-01-01T00:00:00Z</time>
      </trkpt>
      <trkpt lat="44.79429" lon="1.60073">
        <ele>144.5</ele>
        <time>2010-01-01T00:00:00Z</time>
      </trkpt>
      <trkpt lat="44.79433" lon="1.60028">
        <ele>143.4</ele>
        <time>2010-01-01T00:00:00Z</time>
      </trkpt>
      <trkpt lat="44.79437" lon="1.60017">
        <ele>143.8</ele>
        <time>2010-01-01T00:00:00Z</time>
      </trkpt>
      <trkpt lat="44.79447" lon="1.5999">
        <ele>145.3</ele>
        <time>2010-01-01T00:00:00Z</time>
      </trkpt>
      <trkpt lat="44.79457" lon="1.59974">
        <ele>146.7</ele>
        <time>2010-01-01T00:00:00Z</time>
      </trkpt>
      <trkpt lat="44.79475" lon="1.59956">
        <ele>147.3</ele>
        <time>2010-01-01T00:00:00Z</time>
      </trkpt>
      <trkpt lat="44.79499" lon="1.59942">
        <ele>146.2</ele>
        <time>2010-01-01T00:00:00Z</time>
      </trkpt>
      <trkpt lat="44.79515" lon="1.59934">
        <ele>148.8</ele>
        <time>2010-01-01T00:00:00Z</time>
      </trkpt>
      <trkpt lat="44.7955" lon="1.59907">
        <ele>152.1</ele>
        <time>2010-01-01T00:00:00Z</time>
      </trkpt>
      <trkpt lat="44.79579" lon="1.59886">
        <ele>152.6</ele>
        <time>2010-01-01T00:00:00Z</time>
      </trkpt>
      <trkpt lat="44.79589" lon="1.59876">
        <ele>152.8</ele>
        <time>2010-01-01T00:00:00Z</time>
      </trkpt>
      <trkpt lat="44.79598" lon="1.59865">
        <ele>153.8</ele>
        <time>2010-01-01T00:00:00Z</time>
      </trkpt>
      <trkpt lat="44.79605" lon="1.59852">
        <ele>153.4</ele>
        <time>2010-01-01T00:00:00Z</time>
      </trkpt>
      <trkpt lat="44.79613" lon="1.59829">
        <ele>152.2</ele>
        <time>2010-01-01T00:00:00Z</time>
      </trkpt>
      <trkpt lat="44.7962" lon="1.59808">
        <ele>155.6</ele>
        <time>2010-01-01T00:00:00Z</time>
      </trkpt>
      <trkpt lat="44.79624" lon="1.59788">
        <ele>157.5</ele>
        <time>2010-01-01T00:00:00Z</time>
      </trkpt>
      <trkpt lat="44.79625" lon="1.5977">
        <ele>158</ele>
        <time>2010-01-01T00:00:00Z</time>
      </trkpt>
      <trkpt lat="44.79624" lon="1.59752">
        <ele>157.5</ele>
        <time>2010-01-01T00:00:00Z</time>
      </trkpt>
      <trkpt lat="44.79621" lon="1.59735">
        <ele>158.6</ele>
        <time>2010-01-01T00:00:00Z</time>
      </trkpt>
      <trkpt lat="44.79619" lon="1.59722">
        <ele>159.8</ele>
        <time>2010-01-01T00:00:00Z</time>
      </trkpt>
      <trkpt lat="44.79613" lon="1.59708">
        <ele>159.2</ele>
        <time>2010-01-01T00:00:00Z</time>
      </trkpt>
      <trkpt lat="44.79602" lon="1.59691">
        <ele>156.5</ele>
        <time>2010-01-01T00:00:00Z</time>
      </trkpt>
      <trkpt lat="44.7956" lon="1.59643">
        <ele>153.5</ele>
        <time>2010-01-01T00:00:00Z</time>
      </trkpt>
      <trkpt lat="44.79516" lon="1.59604">
        <ele>150.5</ele>
        <time>2010-01-01T00:00:00Z</time>
      </trkpt>
      <trkpt lat="44.79489" lon="1.5959">
        <ele>146</ele>
        <time>2010-01-01T00:00:00Z</time>
      </trkpt>
      <trkpt lat="44.79476" lon="1.59583">
        <ele>144.3</ele>
        <time>2010-01-01T00:00:00Z</time>
      </trkpt>
      <trkpt lat="44.79459" lon="1.59575">
        <ele>143.1</ele>
        <time>2010-01-01T00:00:00Z</time>
      </trkpt>
      <trkpt lat="44.79458" lon="1.59575">
        <ele>142.9</ele>
        <time>2010-01-01T00:00:00Z</time>
      </trkpt>
      <trkpt lat="44.79455" lon="1.59575">
        <ele>142.4</ele>
        <time>2010-01-01T00:00:00Z</time>
      </trkpt>
      <trkpt lat="44.79453" lon="1.59579">
        <ele>141.4</ele>
        <time>2010-01-01T00:00:00Z</time>
      </trkpt>
      <trkpt lat="44.79441" lon="1.59593">
        <ele>140.3</ele>
        <time>2010-01-01T00:00:00Z</time>
      </trkpt>
      <trkpt lat="44.79438" lon="1.59598">
        <ele>140.8</ele>
        <time>2010-01-01T00:00:00Z</time>
      </trkpt>
      <trkpt lat="44.79437" lon="1.59598">
        <ele>140.7</ele>
        <time>2010-01-01T00:00:00Z</time>
      </trkpt>
      <trkpt lat="44.7943" lon="1.59606">
        <ele>141.6</ele>
        <time>2010-01-01T00:00:00Z</time>
      </trkpt>
      <trkpt lat="44.79419" lon="1.59617">
        <ele>143.5</ele>
        <time>2010-01-01T00:00:00Z</time>
      </trkpt>
      <trkpt lat="44.79412" lon="1.59622">
        <ele>146</ele>
        <time>2010-01-01T00:00:00Z</time>
      </trkpt>
      <trkpt lat="44.79401" lon="1.59617">
        <ele>147.8</ele>
        <time>2010-01-01T00:00:00Z</time>
      </trkpt>
      <trkpt lat="44.79371" lon="1.59592">
        <ele>148.5</ele>
        <time>2010-01-01T00:00:00Z</time>
      </trkpt>
      <trkpt lat="44.7934" lon="1.59565">
        <ele>150.3</ele>
        <time>2010-01-01T00:00:00Z</time>
      </trkpt>
      <trkpt lat="44.79317" lon="1.59536">
        <ele>153.5</ele>
        <time>2010-01-01T00:00:00Z</time>
      </trkpt>
      <trkpt lat="44.79299" lon="1.59495">
        <ele>153.8</ele>
        <time>2010-01-01T00:00:00Z</time>
      </trkpt>
      <trkpt lat="44.79285" lon="1.5946">
        <ele>156.3</ele>
        <time>2010-01-01T00:00:00Z</time>
      </trkpt>
      <trkpt lat="44.79268" lon="1.59418">
        <ele>157.9</ele>
        <time>2010-01-01T00:00:00Z</time>
      </trkpt>
      <trkpt lat="44.79262" lon="1.59377">
        <ele>156.9</ele>
        <time>2010-01-01T00:00:00Z</time>
      </trkpt>
      <trkpt lat="44.79258" lon="1.59326">
        <ele>154.8</ele>
        <time>2010-01-01T00:00:00Z</time>
      </trkpt>
      <trkpt lat="44.79262" lon="1.59266">
        <ele>153.7</ele>
        <time>2010-01-01T00:00:00Z</time>
      </trkpt>
      <trkpt lat="44.79265" lon="1.59245">
        <ele>152.8</ele>
        <time>2010-01-01T00:00:00Z</time>
      </trkpt>
      <trkpt lat="44.79273" lon="1.5921">
        <ele>150.9</ele>
        <time>2010-01-01T00:00:00Z</time>
      </trkpt>
      <trkpt lat="44.79278" lon="1.59195">
        <ele>149.9</ele>
        <time>2010-01-01T00:00:00Z</time>
      </trkpt>
      <trkpt lat="44.7928" lon="1.59187">
        <ele>149.7</ele>
        <time>2010-01-01T00:00:00Z</time>
      </trkpt>
      <trkpt lat="44.79282" lon="1.59179">
        <ele>149.4</ele>
        <time>2010-01-01T00:00:00Z</time>
      </trkpt>
      <trkpt lat="44.79283" lon="1.59174">
        <ele>149.3</ele>
        <time>2010-01-01T00:00:00Z</time>
      </trkpt>
      <trkpt lat="44.79284" lon="1.59168">
        <ele>149.3</ele>
        <time>2010-01-01T00:00:00Z</time>
      </trkpt>
      <trkpt lat="44.79284" lon="1.59155">
        <ele>149.5</ele>
        <time>2010-01-01T00:00:00Z</time>
      </trkpt>
      <trkpt lat="44.79285" lon="1.59148">
        <ele>149.6</ele>
        <time>2010-01-01T00:00:00Z</time>
      </trkpt>
      <trkpt lat="44.79284" lon="1.59143">
        <ele>149.7</ele>
        <time>2010-01-01T00:00:00Z</time>
      </trkpt>
      <trkpt lat="44.79284" lon="1.59143">
        <ele>149.7</ele>
        <time>2010-01-01T00:00:00Z</time>
      </trkpt>
      <trkpt lat="44.79283" lon="1.59135">
        <ele>149.9</ele>
        <time>2010-01-01T00:00:00Z</time>
      </trkpt>
      <trkpt lat="44.79284" lon="1.59133">
        <ele>149.9</ele>
        <time>2010-01-01T00:00:00Z</time>
      </trkpt>
      <trkpt lat="44.79289" lon="1.59127">
        <ele>150</ele>
        <time>2010-01-01T00:00:00Z</time>
      </trkpt>
      <trkpt lat="44.79292" lon="1.59123">
        <ele>150.1</ele>
        <time>2010-01-01T00:00:00Z</time>
      </trkpt>
      <trkpt lat="44.79297" lon="1.59114">
        <ele>150.7</ele>
        <time>2010-01-01T00:00:00Z</time>
      </trkpt>
      <trkpt lat="44.79313" lon="1.59079">
        <ele>155.4</ele>
        <time>2010-01-01T00:00:00Z</time>
      </trkpt>
      <trkpt lat="44.79328" lon="1.59043">
        <ele>162.1</ele>
        <time>2010-01-01T00:00:00Z</time>
      </trkpt>
      <trkpt lat="44.79354" lon="1.59022">
        <ele>165.2</ele>
        <time>2010-01-01T00:00:00Z</time>
      </trkpt>
      <trkpt lat="44.7937" lon="1.59015">
        <ele>166.2</ele>
        <time>2010-01-01T00:00:00Z</time>
      </trkpt>
      <trkpt lat="44.79399" lon="1.59012">
        <ele>166.6</ele>
        <time>2010-01-01T00:00:00Z</time>
      </trkpt>
      <trkpt lat="44.79423" lon="1.5901">
        <ele>166.5</ele>
        <time>2010-01-01T00:00:00Z</time>
      </trkpt>
      <trkpt lat="44.79428" lon="1.59009">
        <ele>166.4</ele>
        <time>2010-01-01T00:00:00Z</time>
      </trkpt>
      <trkpt lat="44.79436" lon="1.5901">
        <ele>165.2</ele>
        <time>2010-01-01T00:00:00Z</time>
      </trkpt>
      <trkpt lat="44.79442" lon="1.59011">
        <ele>164.3</ele>
        <time>2010-01-01T00:00:00Z</time>
      </trkpt>
      <trkpt lat="44.79452" lon="1.59013">
        <ele>162.6</ele>
        <time>2010-01-01T00:00:00Z</time>
      </trkpt>
      <trkpt lat="44.79466" lon="1.59018">
        <ele>159.5</ele>
        <time>2010-01-01T00:00:00Z</time>
      </trkpt>
      <trkpt lat="44.79476" lon="1.59023">
        <ele>156.9</ele>
        <time>2010-01-01T00:00:00Z</time>
      </trkpt>
      <trkpt lat="44.79481" lon="1.59025">
        <ele>155.8</ele>
        <time>2010-01-01T00:00:00Z</time>
      </trkpt>
      <trkpt lat="44.79486" lon="1.59026">
        <ele>155.1</ele>
        <time>2010-01-01T00:00:00Z</time>
      </trkpt>
      <trkpt lat="44.7949" lon="1.59026">
        <ele>154.7</ele>
        <time>2010-01-01T00:00:00Z</time>
      </trkpt>
      <trkpt lat="44.79495" lon="1.59027">
        <ele>154</ele>
        <time>2010-01-01T00:00:00Z</time>
      </trkpt>
      <trkpt lat="44.795" lon="1.59027">
        <ele>153.6</ele>
        <time>2010-01-01T00:00:00Z</time>
      </trkpt>
      <trkpt lat="44.79502" lon="1.59027">
        <ele>153.2</ele>
        <time>2010-01-01T00:00:00Z</time>
      </trkpt>
      <trkpt lat="44.79505" lon="1.59027">
        <ele>152.5</ele>
        <time>2010-01-01T00:00:00Z</time>
      </trkpt>
      <trkpt lat="44.79508" lon="1.59026">
        <ele>152.2</ele>
        <time>2010-01-01T00:00:00Z</time>
      </trkpt>
      <trkpt lat="44.79512" lon="1.59023">
        <ele>152.2</ele>
        <time>2010-01-01T00:00:00Z</time>
      </trkpt>
      <trkpt lat="44.79515" lon="1.59022">
        <ele>151.8</ele>
        <time>2010-01-01T00:00:00Z</time>
      </trkpt>
      <trkpt lat="44.79518" lon="1.59019">
        <ele>151.9</ele>
        <time>2010-01-01T00:00:00Z</time>
      </trkpt>
      <trkpt lat="44.79522" lon="1.59012">
        <ele>152.7</ele>
        <time>2010-01-01T00:00:00Z</time>
      </trkpt>
      <trkpt lat="44.79528" lon="1.58998">
        <ele>154.5</ele>
        <time>2010-01-01T00:00:00Z</time>
      </trkpt>
      <trkpt lat="44.79534" lon="1.58976">
        <ele>158.3</ele>
        <time>2010-01-01T00:00:00Z</time>
      </trkpt>
      <trkpt lat="44.79536" lon="1.58972">
        <ele>158.7</ele>
        <time>2010-01-01T00:00:00Z</time>
      </trkpt>
      <trkpt lat="44.7954" lon="1.58973">
        <ele>157.2</ele>
        <time>2010-01-01T00:00:00Z</time>
      </trkpt>
      <trkpt lat="44.79543" lon="1.58994">
        <ele>151.1</ele>
        <time>2010-01-01T00:00:00Z</time>
      </trkpt>
      <trkpt lat="44.79547" lon="1.59016">
        <ele>145.7</ele>
        <time>2010-01-01T00:00:00Z</time>
      </trkpt>
      <trkpt lat="44.79549" lon="1.59043">
        <ele>140.8</ele>
        <time>2010-01-01T00:00:00Z</time>
      </trkpt>
      <trkpt lat="44.79552" lon="1.5906">
        <ele>137.7</ele>
        <time>2010-01-01T00:00:00Z</time>
      </trkpt>
      <trkpt lat="44.79551" lon="1.59074">
        <ele>135.6</ele>
        <time>2010-01-01T00:00:00Z</time>
      </trkpt>
      <trkpt lat="44.79544" lon="1.59089">
        <ele>134.9</ele>
        <time>2010-01-01T00:00:00Z</time>
      </trkpt>
      <trkpt lat="44.79537" lon="1.59101">
        <ele>136</ele>
        <time>2010-01-01T00:00:00Z</time>
      </trkpt>
      <trkpt lat="44.79533" lon="1.59106">
        <ele>136.3</ele>
        <time>2010-01-01T00:00:00Z</time>
      </trkpt>
      <trkpt lat="44.79529" lon="1.59109">
        <ele>136.5</ele>
        <time>2010-01-01T00:00:00Z</time>
      </trkpt>
      <trkpt lat="44.7953" lon="1.59114">
        <ele>136.8</ele>
        <time>2010-01-01T00:00:00Z</time>
      </trkpt>
      <trkpt lat="44.7954" lon="1.59119">
        <ele>137.4</ele>
        <time>2010-01-01T00:00:00Z</time>
      </trkpt>
      <trkpt lat="44.79551" lon="1.59114">
        <ele>137.3</ele>
        <time>2010-01-01T00:00:00Z</time>
      </trkpt>
      <trkpt lat="44.7956" lon="1.59102">
        <ele>136.1</ele>
        <time>2010-01-01T00:00:00Z</time>
      </trkpt>
      <trkpt lat="44.79564" lon="1.59085">
        <ele>133.9</ele>
        <time>2010-01-01T00:00:00Z</time>
      </trkpt>
      <trkpt lat="44.79567" lon="1.59068">
        <ele>135.3</ele>
        <time>2010-01-01T00:00:00Z</time>
      </trkpt>
      <trkpt lat="44.7957" lon="1.5904">
        <ele>137.8</ele>
        <time>2010-01-01T00:00:00Z</time>
      </trkpt>
      <trkpt lat="44.7957" lon="1.59013">
        <ele>140.5</ele>
        <time>2010-01-01T00:00:00Z</time>
      </trkpt>
      <trkpt lat="44.79572" lon="1.58993">
        <ele>142.8</ele>
        <time>2010-01-01T00:00:00Z</time>
      </trkpt>
      <trkpt lat="44.79577" lon="1.58978">
        <ele>144.5</ele>
        <time>2010-01-01T00:00:00Z</time>
      </trkpt>
      <trkpt lat="44.79584" lon="1.58966">
        <ele>144.9</ele>
        <time>2010-01-01T00:00:00Z</time>
      </trkpt>
      <trkpt lat="44.79593" lon="1.58959">
        <ele>145.2</ele>
        <time>2010-01-01T00:00:00Z</time>
      </trkpt>
      <trkpt lat="44.7961" lon="1.58956">
        <ele>143.7</ele>
        <time>2010-01-01T00:00:00Z</time>
      </trkpt>
      <trkpt lat="44.79641" lon="1.58952">
        <ele>140.5</ele>
        <time>2010-01-01T00:00:00Z</time>
      </trkpt>
      <trkpt lat="44.79663" lon="1.58956">
        <ele>137.2</ele>
        <time>2010-01-01T00:00:00Z</time>
      </trkpt>
      <trkpt lat="44.79683" lon="1.58966">
        <ele>135.4</ele>
        <time>2010-01-01T00:00:00Z</time>
      </trkpt>
      <trkpt lat="44.79701" lon="1.58971">
        <ele>134.6</ele>
        <time>2010-01-01T00:00:00Z</time>
      </trkpt>
      <trkpt lat="44.79715" lon="1.58972">
        <ele>134.2</ele>
        <time>2010-01-01T00:00:00Z</time>
      </trkpt>
      <trkpt lat="44.7972" lon="1.58969">
        <ele>134.4</ele>
        <time>2010-01-01T00:00:00Z</time>
      </trkpt>
      <trkpt lat="44.79747" lon="1.58953">
        <ele>134.9</ele>
        <time>2010-01-01T00:00:00Z</time>
      </trkpt>
      <trkpt lat="44.79757" lon="1.58948">
        <ele>135.2</ele>
        <time>2010-01-01T00:00:00Z</time>
      </trkpt>
      <trkpt lat="44.79761" lon="1.58946">
        <ele>135.3</ele>
        <time>2010-01-01T00:00:00Z</time>
      </trkpt>
      <trkpt lat="44.79766" lon="1.58946">
        <ele>135.3</ele>
        <time>2010-01-01T00:00:00Z</time>
      </trkpt>
      <trkpt lat="44.79769" lon="1.58946">
        <ele>135.3</ele>
        <time>2010-01-01T00:00:00Z</time>
      </trkpt>
      <trkpt lat="44.79773" lon="1.58947">
        <ele>135.3</ele>
        <time>2010-01-01T00:00:00Z</time>
      </trkpt>
      <trkpt lat="44.79791" lon="1.58959">
        <ele>135.5</ele>
        <time>2010-01-01T00:00:00Z</time>
      </trkpt>
      <trkpt lat="44.79796" lon="1.58963">
        <ele>135.7</ele>
        <time>2010-01-01T00:00:00Z</time>
      </trkpt>
      <trkpt lat="44.79802" lon="1.58967">
        <ele>136</ele>
        <time>2010-01-01T00:00:00Z</time>
      </trkpt>
      <trkpt lat="44.79811" lon="1.58966">
        <ele>136.3</ele>
        <time>2010-01-01T00:00:00Z</time>
      </trkpt>
      <trkpt lat="44.79818" lon="1.58962">
        <ele>136.3</ele>
        <time>2010-01-01T00:00:00Z</time>
      </trkpt>
      <trkpt lat="44.79826" lon="1.5896">
        <ele>136.4</ele>
        <time>2010-01-01T00:00:00Z</time>
      </trkpt>
      <trkpt lat="44.79833" lon="1.58958">
        <ele>136.5</ele>
        <time>2010-01-01T00:00:00Z</time>
      </trkpt>
      <trkpt lat="44.79842" lon="1.58956">
        <ele>136.5</ele>
        <time>2010-01-01T00:00:00Z</time>
      </trkpt>
      <trkpt lat="44.79867" lon="1.58954">
        <ele>136.9</ele>
        <time>2010-01-01T00:00:00Z</time>
      </trkpt>
      <trkpt lat="44.79893" lon="1.58953">
        <ele>137.3</ele>
        <time>2010-01-01T00:00:00Z</time>
      </trkpt>
      <trkpt lat="44.79917" lon="1.58948">
        <ele>136.8</ele>
        <time>2010-01-01T00:00:00Z</time>
      </trkpt>
      <trkpt lat="44.79942" lon="1.5894">
        <ele>136.7</ele>
        <time>2010-01-01T00:00:00Z</time>
      </trkpt>
      <trkpt lat="44.79957" lon="1.58933">
        <ele>135.9</ele>
        <time>2010-01-01T00:00:00Z</time>
      </trkpt>
      <trkpt lat="44.79967" lon="1.58926">
        <ele>134.8</ele>
        <time>2010-01-01T00:00:00Z</time>
      </trkpt>
      <trkpt lat="44.79975" lon="1.58917">
        <ele>132.9</ele>
        <time>2010-01-01T00:00:00Z</time>
      </trkpt>
      <trkpt lat="44.79981" lon="1.58905">
        <ele>133</ele>
        <time>2010-01-01T00:00:00Z</time>
      </trkpt>
      <trkpt lat="44.79987" lon="1.58887">
        <ele>133.1</ele>
        <time>2010-01-01T00:00:00Z</time>
      </trkpt>
      <trkpt lat="44.79989" lon="1.58877">
        <ele>133</ele>
        <time>2010-01-01T00:00:00Z</time>
      </trkpt>
      <trkpt lat="44.7999" lon="1.58867">
        <ele>132.8</ele>
        <time>2010-01-01T00:00:00Z</time>
      </trkpt>
      <trkpt lat="44.79991" lon="1.58839">
        <ele>132.4</ele>
        <time>2010-01-01T00:00:00Z</time>
      </trkpt>
      <trkpt lat="44.79991" lon="1.58806">
        <ele>131.5</ele>
        <time>2010-01-01T00:00:00Z</time>
      </trkpt>
      <trkpt lat="44.79991" lon="1.58795">
        <ele>131.2</ele>
        <time>2010-01-01T00:00:00Z</time>
      </trkpt>
      <trkpt lat="44.79993" lon="1.58791">
        <ele>131</ele>
        <time>2010-01-01T00:00:00Z</time>
      </trkpt>
      <trkpt lat="44.79995" lon="1.5879">
        <ele>131</ele>
        <time>2010-01-01T00:00:00Z</time>
      </trkpt>
      <trkpt lat="44.79998" lon="1.58791">
        <ele>131</ele>
        <time>2010-01-01T00:00:00Z</time>
      </trkpt>
      <trkpt lat="44.8" lon="1.58793">
        <ele>131</ele>
        <time>2010-01-01T00:00:00Z</time>
      </trkpt>
      <trkpt lat="44.80001" lon="1.58797">
        <ele>131.4</ele>
        <time>2010-01-01T00:00:00Z</time>
      </trkpt>
      <trkpt lat="44.80003" lon="1.58804">
        <ele>132.2</ele>
        <time>2010-01-01T00:00:00Z</time>
      </trkpt>
      <trkpt lat="44.80006" lon="1.58826">
        <ele>133.7</ele>
        <time>2010-01-01T00:00:00Z</time>
      </trkpt>
      <trkpt lat="44.80007" lon="1.58843">
        <ele>134.3</ele>
        <time>2010-01-01T00:00:00Z</time>
      </trkpt>
      <trkpt lat="44.80008" lon="1.58852">
        <ele>134.8</ele>
        <time>2010-01-01T00:00:00Z</time>
      </trkpt>
      <trkpt lat="44.8001" lon="1.58859">
        <ele>135.5</ele>
        <time>2010-01-01T00:00:00Z</time>
      </trkpt>
      <trkpt lat="44.80015" lon="1.58867">
        <ele>137</ele>
        <time>2010-01-01T00:00:00Z</time>
      </trkpt>
      <trkpt lat="44.80042" lon="1.58902">
        <ele>143.8</ele>
        <time>2010-01-01T00:00:00Z</time>
      </trkpt>
      <trkpt lat="44.80062" lon="1.58925">
        <ele>149.6</ele>
        <time>2010-01-01T00:00:00Z</time>
      </trkpt>
      <trkpt lat="44.80075" lon="1.58938">
        <ele>154.5</ele>
        <time>2010-01-01T00:00:00Z</time>
      </trkpt>
      <trkpt lat="44.80084" lon="1.58947">
        <ele>157.5</ele>
        <time>2010-01-01T00:00:00Z</time>
      </trkpt>
      <trkpt lat="44.80108" lon="1.58963">
        <ele>164.1</ele>
        <time>2010-01-01T00:00:00Z</time>
      </trkpt>
      <trkpt lat="44.80128" lon="1.58979">
        <ele>168.2</ele>
        <time>2010-01-01T00:00:00Z</time>
      </trkpt>
      <trkpt lat="44.8014" lon="1.58989">
        <ele>169.8</ele>
        <time>2010-01-01T00:00:00Z</time>
      </trkpt>
      <trkpt lat="44.80153" lon="1.58997">
        <ele>171</ele>
        <time>2010-01-01T00:00:00Z</time>
      </trkpt>
      <trkpt lat="44.80162" lon="1.59">
        <ele>171.6</ele>
        <time>2010-01-01T00:00:00Z</time>
      </trkpt>
      <trkpt lat="44.80173" lon="1.59004">
        <ele>174.1</ele>
        <time>2010-01-01T00:00:00Z</time>
      </trkpt>
      <trkpt lat="44.80185" lon="1.59007">
        <ele>177</ele>
        <time>2010-01-01T00:00:00Z</time>
      </trkpt>
      <trkpt lat="44.80195" lon="1.59012">
        <ele>179.4</ele>
        <time>2010-01-01T00:00:00Z</time>
      </trkpt>
      <trkpt lat="44.80205" lon="1.59018">
        <ele>181.7</ele>
        <time>2010-01-01T00:00:00Z</time>
      </trkpt>
      <trkpt lat="44.8022" lon="1.59028">
        <ele>184.3</ele>
        <time>2010-01-01T00:00:00Z</time>
      </trkpt>
      <trkpt lat="44.80223" lon="1.59035">
        <ele>184.8</ele>
        <time>2010-01-01T00:00:00Z</time>
      </trkpt>
      <trkpt lat="44.80225" lon="1.59044">
        <ele>185.1</ele>
        <time>2010-01-01T00:00:00Z</time>
      </trkpt>
      <trkpt lat="44.8023" lon="1.59046">
        <ele>185.4</ele>
        <time>2010-01-01T00:00:00Z</time>
      </trkpt>
      <trkpt lat="44.80234" lon="1.59049">
        <ele>185.6</ele>
        <time>2010-01-01T00:00:00Z</time>
      </trkpt>
      <trkpt lat="44.80238" lon="1.59052">
        <ele>185.7</ele>
        <time>2010-01-01T00:00:00Z</time>
      </trkpt>
      <trkpt lat="44.80246" lon="1.59062">
        <ele>185.5</ele>
        <time>2010-01-01T00:00:00Z</time>
      </trkpt>
      <trkpt lat="44.80253" lon="1.59072">
        <ele>185.4</ele>
        <time>2010-01-01T00:00:00Z</time>
      </trkpt>
      <trkpt lat="44.80259" lon="1.59078">
        <ele>186.2</ele>
        <time>2010-01-01T00:00:00Z</time>
      </trkpt>
      <trkpt lat="44.80271" lon="1.59087">
        <ele>189.1</ele>
        <time>2010-01-01T00:00:00Z</time>
      </trkpt>
      <trkpt lat="44.80297" lon="1.59101">
        <ele>196.8</ele>
        <time>2010-01-01T00:00:00Z</time>
      </trkpt>
      <trkpt lat="44.80306" lon="1.59105">
        <ele>199</ele>
        <time>2010-01-01T00:00:00Z</time>
      </trkpt>
      <trkpt lat="44.80319" lon="1.59108">
        <ele>201.5</ele>
        <time>2010-01-01T00:00:00Z</time>
      </trkpt>
      <trkpt lat="44.80329" lon="1.59109">
        <ele>203.1</ele>
        <time>2010-01-01T00:00:00Z</time>
      </trkpt>
      <trkpt lat="44.80343" lon="1.59109">
        <ele>205.6</ele>
        <time>2010-01-01T00:00:00Z</time>
      </trkpt>
      <trkpt lat="44.80363" lon="1.59105">
        <ele>208.9</ele>
        <time>2010-01-01T00:00:00Z</time>
      </trkpt>
      <trkpt lat="44.80377" lon="1.59104">
        <ele>211.5</ele>
        <time>2010-01-01T00:00:00Z</time>
      </trkpt>
      <trkpt lat="44.80387" lon="1.59105">
        <ele>213.5</ele>
        <time>2010-01-01T00:00:00Z</time>
      </trkpt>
      <trkpt lat="44.80396" lon="1.59107">
        <ele>215.3</ele>
        <time>2010-01-01T00:00:00Z</time>
      </trkpt>
      <trkpt lat="44.80407" lon="1.5911">
        <ele>217.5</ele>
        <time>2010-01-01T00:00:00Z</time>
      </trkpt>
      <trkpt lat="44.80413" lon="1.59112">
        <ele>218.7</ele>
        <time>2010-01-01T00:00:00Z</time>
      </trkpt>
      <trkpt lat="44.80417" lon="1.59112">
        <ele>219.4</ele>
        <time>2010-01-01T00:00:00Z</time>
      </trkpt>
      <trkpt lat="44.80419" lon="1.59109">
        <ele>219.5</ele>
        <time>2010-01-01T00:00:00Z</time>
      </trkpt>
      <trkpt lat="44.80419" lon="1.59108">
        <ele>219.5</ele>
        <time>2010-01-01T00:00:00Z</time>
      </trkpt>
      <trkpt lat="44.8042" lon="1.59105">
        <ele>219.5</ele>
        <time>2010-01-01T00:00:00Z</time>
      </trkpt>
      <trkpt lat="44.8042" lon="1.59102">
        <ele>219.3</ele>
        <time>2010-01-01T00:00:00Z</time>
      </trkpt>
      <trkpt lat="44.80418" lon="1.591">
        <ele>219</ele>
        <time>2010-01-01T00:00:00Z</time>
      </trkpt>
      <trkpt lat="44.80415" lon="1.59095">
        <ele>218.2</ele>
        <time>2010-01-01T00:00:00Z</time>
      </trkpt>
      <trkpt lat="44.80391" lon="1.59068">
        <ele>213.4</ele>
        <time>2010-01-01T00:00:00Z</time>
      </trkpt>
      <trkpt lat="44.80376" lon="1.59052">
        <ele>211.5</ele>
        <time>2010-01-01T00:00:00Z</time>
      </trkpt>
      <trkpt lat="44.80373" lon="1.59047">
        <ele>211.4</ele>
        <time>2010-01-01T00:00:00Z</time>
      </trkpt>
      <trkpt lat="44.8037" lon="1.59043">
        <ele>211.1</ele>
        <time>2010-01-01T00:00:00Z</time>
      </trkpt>
      <trkpt lat="44.80368" lon="1.59038">
        <ele>211.2</ele>
        <time>2010-01-01T00:00:00Z</time>
      </trkpt>
      <trkpt lat="44.80366" lon="1.59034">
        <ele>211.1</ele>
        <time>2010-01-01T00:00:00Z</time>
      </trkpt>
      <trkpt lat="44.80366" lon="1.59031">
        <ele>211.3</ele>
        <time>2010-01-01T00:00:00Z</time>
      </trkpt>
      <trkpt lat="44.80366" lon="1.59029">
        <ele>211.5</ele>
        <time>2010-01-01T00:00:00Z</time>
      </trkpt>
      <trkpt lat="44.80367" lon="1.59027">
        <ele>211.8</ele>
        <time>2010-01-01T00:00:00Z</time>
      </trkpt>
      <trkpt lat="44.80368" lon="1.59026">
        <ele>212</ele>
        <time>2010-01-01T00:00:00Z</time>
      </trkpt>
      <trkpt lat="44.8037" lon="1.59025">
        <ele>212.3</ele>
        <time>2010-01-01T00:00:00Z</time>
      </trkpt>
      <trkpt lat="44.80375" lon="1.59025">
        <ele>213</ele>
        <time>2010-01-01T00:00:00Z</time>
      </trkpt>
      <trkpt lat="44.80385" lon="1.59028">
        <ele>214.2</ele>
        <time>2010-01-01T00:00:00Z</time>
      </trkpt>
      <trkpt lat="44.80396" lon="1.59034">
        <ele>215.6</ele>
        <time>2010-01-01T00:00:00Z</time>
      </trkpt>
      <trkpt lat="44.80409" lon="1.59042">
        <ele>217.3</ele>
        <time>2010-01-01T00:00:00Z</time>
      </trkpt>
      <trkpt lat="44.80418" lon="1.59049">
        <ele>218.5</ele>
        <time>2010-01-01T00:00:00Z</time>
      </trkpt>
      <trkpt lat="44.80433" lon="1.59057">
        <ele>219.7</ele>
        <time>2010-01-01T00:00:00Z</time>
      </trkpt>
      <trkpt lat="44.80449" lon="1.59063">
        <ele>221.4</ele>
        <time>2010-01-01T00:00:00Z</time>
      </trkpt>
      <trkpt lat="44.80458" lon="1.59067">
        <ele>222.5</ele>
        <time>2010-01-01T00:00:00Z</time>
      </trkpt>
      <trkpt lat="44.80464" lon="1.5907">
        <ele>223.3</ele>
        <time>2010-01-01T00:00:00Z</time>
      </trkpt>
      <trkpt lat="44.80477" lon="1.59071">
        <ele>224.8</ele>
        <time>2010-01-01T00:00:00Z</time>
      </trkpt>
      <trkpt lat="44.80493" lon="1.59073">
        <ele>226.8</ele>
        <time>2010-01-01T00:00:00Z</time>
      </trkpt>
      <trkpt lat="44.80512" lon="1.59072">
        <ele>227.7</ele>
        <time>2010-01-01T00:00:00Z</time>
      </trkpt>
      <trkpt lat="44.80524" lon="1.59074">
        <ele>228.3</ele>
        <time>2010-01-01T00:00:00Z</time>
      </trkpt>
      <trkpt lat="44.80539" lon="1.59077">
        <ele>229.2</ele>
        <time>2010-01-01T00:00:00Z</time>
      </trkpt>
      <trkpt lat="44.80551" lon="1.59079">
        <ele>229.9</ele>
        <time>2010-01-01T00:00:00Z</time>
      </trkpt>
      <trkpt lat="44.80565" lon="1.59084">
        <ele>231.4</ele>
        <time>2010-01-01T00:00:00Z</time>
      </trkpt>
      <trkpt lat="44.80583" lon="1.59091">
        <ele>232.7</ele>
        <time>2010-01-01T00:00:00Z</time>
      </trkpt>
      <trkpt lat="44.80595" lon="1.59099">
        <ele>232.2</ele>
        <time>2010-01-01T00:00:00Z</time>
      </trkpt>
      <trkpt lat="44.80602" lon="1.59104">
        <ele>231.9</ele>
        <time>2010-01-01T00:00:00Z</time>
      </trkpt>
      <trkpt lat="44.80604" lon="1.59107">
        <ele>231.9</ele>
        <time>2010-01-01T00:00:00Z</time>
      </trkpt>
      <trkpt lat="44.80604" lon="1.59106">
        <ele>231.8</ele>
        <time>2010-01-01T00:00:00Z</time>
      </trkpt>
      <trkpt lat="44.80604" lon="1.59106">
        <ele>231.8</ele>
        <time>2010-01-01T00:00:00Z</time>
      </trkpt>
      <trkpt lat="44.80604" lon="1.59107">
        <ele>231.9</ele>
        <time>2010-01-01T00:00:00Z</time>
      </trkpt>
      <trkpt lat="44.80606" lon="1.59116">
        <ele>232.6</ele>
        <time>2010-01-01T00:00:00Z</time>
      </trkpt>
      <trkpt lat="44.80606" lon="1.5912">
        <ele>233</ele>
        <time>2010-01-01T00:00:00Z</time>
      </trkpt>
      <trkpt lat="44.80606" lon="1.59125">
        <ele>233.6</ele>
        <time>2010-01-01T00:00:00Z</time>
      </trkpt>
      <trkpt lat="44.80606" lon="1.5913">
        <ele>234.1</ele>
        <time>2010-01-01T00:00:00Z</time>
      </trkpt>
      <trkpt lat="44.80605" lon="1.59152">
        <ele>236.4</ele>
        <time>2010-01-01T00:00:00Z</time>
      </trkpt>
      <trkpt lat="44.80601" lon="1.5918">
        <ele>239.1</ele>
        <time>2010-01-01T00:00:00Z</time>
      </trkpt>
      <trkpt lat="44.80594" lon="1.59218">
        <ele>242.1</ele>
        <time>2010-01-01T00:00:00Z</time>
      </trkpt>
      <trkpt lat="44.80587" lon="1.59257">
        <ele>245.3</ele>
        <time>2010-01-01T00:00:00Z</time>
      </trkpt>
      <trkpt lat="44.80581" lon="1.59293">
        <ele>248.5</ele>
        <time>2010-01-01T00:00:00Z</time>
      </trkpt>
      <trkpt lat="44.80574" lon="1.59333">
        <ele>251.5</ele>
        <time>2010-01-01T00:00:00Z</time>
      </trkpt>
      <trkpt lat="44.80568" lon="1.59361">
        <ele>253.2</ele>
        <time>2010-01-01T00:00:00Z</time>
      </trkpt>
      <trkpt lat="44.80565" lon="1.59368">
        <ele>253.6</ele>
        <time>2010-01-01T00:00:00Z</time>
      </trkpt>
      <trkpt lat="44.80563" lon="1.59372">
        <ele>253.8</ele>
        <time>2010-01-01T00:00:00Z</time>
      </trkpt>
      <trkpt lat="44.80561" lon="1.59376">
        <ele>254</ele>
        <time>2010-01-01T00:00:00Z</time>
      </trkpt>
      <trkpt lat="44.80556" lon="1.59381">
        <ele>254.3</ele>
        <time>2010-01-01T00:00:00Z</time>
      </trkpt>
      <trkpt lat="44.8055" lon="1.59388">
        <ele>254.7</ele>
        <time>2010-01-01T00:00:00Z</time>
      </trkpt>
      <trkpt lat="44.8054" lon="1.59408">
        <ele>256.3</ele>
        <time>2010-01-01T00:00:00Z</time>
      </trkpt>
      <trkpt lat="44.80527" lon="1.59434">
        <ele>258</ele>
        <time>2010-01-01T00:00:00Z</time>
      </trkpt>
      <trkpt lat="44.80516" lon="1.59452">
        <ele>259.3</ele>
        <time>2010-01-01T00:00:00Z</time>
      </trkpt>
      <trkpt lat="44.80501" lon="1.59471">
        <ele>260.9</ele>
        <time>2010-01-01T00:00:00Z</time>
      </trkpt>
      <trkpt lat="44.80482" lon="1.59492">
        <ele>262.7</ele>
        <time>2010-01-01T00:00:00Z</time>
      </trkpt>
      <trkpt lat="44.80469" lon="1.59505">
        <ele>263.6</ele>
        <time>2010-01-01T00:00:00Z</time>
      </trkpt>
      <trkpt lat="44.80452" lon="1.59519">
        <ele>264.4</ele>
        <time>2010-01-01T00:00:00Z</time>
      </trkpt>
      <trkpt lat="44.80442" lon="1.59529">
        <ele>264.8</ele>
        <time>2010-01-01T00:00:00Z</time>
      </trkpt>
      <trkpt lat="44.80439" lon="1.59533">
        <ele>265</ele>
        <time>2010-01-01T00:00:00Z</time>
      </trkpt>
      <trkpt lat="44.80433" lon="1.59541">
        <ele>265.4</ele>
        <time>2010-01-01T00:00:00Z</time>
      </trkpt>
      <trkpt lat="44.80435" lon="1.59566">
        <ele>266.3</ele>
        <time>2010-01-01T00:00:00Z</time>
      </trkpt>
      <trkpt lat="44.80434" lon="1.59567">
        <ele>266.4</ele>
        <time>2010-01-01T00:00:00Z</time>
      </trkpt>
    </trkseg>
  </trk>
</gpx>